<?xml version="1.0" encoding="UTF-8" standalone="no" ?>
<gpx xmlns="http://www.topografix.com/GPX/1/1" xmlns:xsi="http://www.w3.org/2001/XMLSchema-instance" xsi:schemaLocation="http://www.topografix.com/GPX/1/1 http://www.topografix.com/GPX/1/1/gpx.xsd" version="1.1" creator="VisuGPX - https://www.visugpx.com">
  <metadata>
    <name>BOURG ARGENTAL 27 KM</name>
    <desc><![CDATA[BOURG BARRAGE DE TERNAY]]></desc>
  </metadata>
  <trk>
    <name><![CDATA[BOURG]]></name>
    <trkseg>
      <trkpt lat="45.29908" lon="4.57423">
        <ele>516.37</ele>
        <time>2016-03-20T08:57:40Z</time>
      </trkpt>
      <trkpt lat="45.29905" lon="4.57429">
        <ele>517.81</ele>
        <time>2016-03-20T08:58:04Z</time>
      </trkpt>
      <trkpt lat="45.29904" lon="4.57427">
        <ele>515.4</ele>
        <time>2016-03-20T08:58:20Z</time>
      </trkpt>
      <trkpt lat="45.29903" lon="4.57427">
        <ele>512.52</ele>
        <time>2016-03-20T08:58:39Z</time>
      </trkpt>
      <trkpt lat="45.29902" lon="4.57426">
        <ele>512.52</ele>
        <time>2016-03-20T08:58:54Z</time>
      </trkpt>
      <trkpt lat="45.29902" lon="4.57424">
        <ele>513.48</ele>
        <time>2016-03-20T08:59:19Z</time>
      </trkpt>
      <trkpt lat="45.29903" lon="4.57427">
        <ele>513</ele>
        <time>2016-03-20T08:59:36Z</time>
      </trkpt>
      <trkpt lat="45.29903" lon="4.57428">
        <ele>512.04</ele>
        <time>2016-03-20T08:59:54Z</time>
      </trkpt>
      <trkpt lat="45.29904" lon="4.57428">
        <ele>512.04</ele>
        <time>2016-03-20T09:00:11Z</time>
      </trkpt>
      <trkpt lat="45.29904" lon="4.57428">
        <ele>512.04</ele>
        <time>2016-03-20T09:00:26Z</time>
      </trkpt>
      <trkpt lat="45.29904" lon="4.57428">
        <ele>512.04</ele>
        <time>2016-03-20T09:00:40Z</time>
      </trkpt>
      <trkpt lat="45.29904" lon="4.57429">
        <ele>512.52</ele>
        <time>2016-03-20T09:00:58Z</time>
      </trkpt>
      <trkpt lat="45.29904" lon="4.5743">
        <ele>511.56</ele>
        <time>2016-03-20T09:01:13Z</time>
      </trkpt>
      <trkpt lat="45.29903" lon="4.5743">
        <ele>512.04</ele>
        <time>2016-03-20T09:01:30Z</time>
      </trkpt>
      <trkpt lat="45.29902" lon="4.57433">
        <ele>512.52</ele>
        <time>2016-03-20T09:01:56Z</time>
      </trkpt>
      <trkpt lat="45.29904" lon="4.5743">
        <ele>511.56</ele>
        <time>2016-03-20T09:02:10Z</time>
      </trkpt>
      <trkpt lat="45.29904" lon="4.57433">
        <ele>511.08</ele>
        <time>2016-03-20T09:02:27Z</time>
      </trkpt>
      <trkpt lat="45.29902" lon="4.57434">
        <ele>511.56</ele>
        <time>2016-03-20T09:02:47Z</time>
      </trkpt>
      <trkpt lat="45.299" lon="4.57434">
        <ele>512.52</ele>
        <time>2016-03-20T09:03:10Z</time>
      </trkpt>
      <trkpt lat="45.299" lon="4.57434">
        <ele>514.44</ele>
        <time>2016-03-20T09:03:37Z</time>
      </trkpt>
      <trkpt lat="45.299" lon="4.57434">
        <ele>513.96</ele>
        <time>2016-03-20T09:04:02Z</time>
      </trkpt>
      <trkpt lat="45.299" lon="4.57434">
        <ele>514.44</ele>
        <time>2016-03-20T09:04:21Z</time>
      </trkpt>
      <trkpt lat="45.29901" lon="4.57432">
        <ele>514.44</ele>
        <time>2016-03-20T09:04:41Z</time>
      </trkpt>
      <trkpt lat="45.29901" lon="4.57432">
        <ele>514.44</ele>
        <time>2016-03-20T09:04:59Z</time>
      </trkpt>
      <trkpt lat="45.29903" lon="4.57431">
        <ele>513.96</ele>
        <time>2016-03-20T09:05:19Z</time>
      </trkpt>
      <trkpt lat="45.29903" lon="4.5743">
        <ele>513.96</ele>
        <time>2016-03-20T09:05:33Z</time>
      </trkpt>
      <trkpt lat="45.29902" lon="4.5743">
        <ele>513.96</ele>
        <time>2016-03-20T09:05:54Z</time>
      </trkpt>
      <trkpt lat="45.29902" lon="4.5743">
        <ele>513.96</ele>
        <time>2016-03-20T09:06:19Z</time>
      </trkpt>
      <trkpt lat="45.29902" lon="4.5743">
        <ele>513.96</ele>
        <time>2016-03-20T09:06:42Z</time>
      </trkpt>
      <trkpt lat="45.29902" lon="4.5743">
        <ele>514.44</ele>
        <time>2016-03-20T09:07:06Z</time>
      </trkpt>
      <trkpt lat="45.29902" lon="4.5743">
        <ele>513.96</ele>
        <time>2016-03-20T09:07:27Z</time>
      </trkpt>
      <trkpt lat="45.29902" lon="4.57431">
        <ele>513.96</ele>
        <time>2016-03-20T09:07:47Z</time>
      </trkpt>
      <trkpt lat="45.29901" lon="4.57431">
        <ele>513.96</ele>
        <time>2016-03-20T09:08:10Z</time>
      </trkpt>
      <trkpt lat="45.29901" lon="4.57431">
        <ele>514.44</ele>
        <time>2016-03-20T09:08:37Z</time>
      </trkpt>
      <trkpt lat="45.29901" lon="4.57431">
        <ele>514.44</ele>
        <time>2016-03-20T09:08:58Z</time>
      </trkpt>
      <trkpt lat="45.29902" lon="4.57431">
        <ele>513.96</ele>
        <time>2016-03-20T09:09:20Z</time>
      </trkpt>
      <trkpt lat="45.29902" lon="4.57431">
        <ele>513.96</ele>
        <time>2016-03-20T09:09:41Z</time>
      </trkpt>
      <trkpt lat="45.29903" lon="4.57429">
        <ele>513.48</ele>
        <time>2016-03-20T09:09:59Z</time>
      </trkpt>
      <trkpt lat="45.29904" lon="4.57429">
        <ele>513.48</ele>
        <time>2016-03-20T09:10:17Z</time>
      </trkpt>
      <trkpt lat="45.29905" lon="4.5743">
        <ele>513.48</ele>
        <time>2016-03-20T09:10:38Z</time>
      </trkpt>
      <trkpt lat="45.29905" lon="4.5743">
        <ele>513.96</ele>
        <time>2016-03-20T09:10:59Z</time>
      </trkpt>
      <trkpt lat="45.29905" lon="4.5743">
        <ele>513.96</ele>
        <time>2016-03-20T09:11:20Z</time>
      </trkpt>
      <trkpt lat="45.29905" lon="4.5743">
        <ele>514.92</ele>
        <time>2016-03-20T09:11:50Z</time>
      </trkpt>
      <trkpt lat="45.29904" lon="4.57429">
        <ele>515.88</ele>
        <time>2016-03-20T09:12:17Z</time>
      </trkpt>
      <trkpt lat="45.29904" lon="4.57429">
        <ele>515.4</ele>
        <time>2016-03-20T09:12:42Z</time>
      </trkpt>
      <trkpt lat="45.29904" lon="4.57429">
        <ele>514.92</ele>
        <time>2016-03-20T09:13:09Z</time>
      </trkpt>
      <trkpt lat="45.29902" lon="4.5743">
        <ele>514.92</ele>
        <time>2016-03-20T09:13:28Z</time>
      </trkpt>
      <trkpt lat="45.29899" lon="4.57426">
        <ele>514.44</ele>
        <time>2016-03-20T09:13:41Z</time>
      </trkpt>
      <trkpt lat="45.29888" lon="4.57413">
        <ele>513</ele>
        <time>2016-03-20T09:13:56Z</time>
      </trkpt>
      <trkpt lat="45.29886" lon="4.57412">
        <ele>512.52</ele>
        <time>2016-03-20T09:13:59Z</time>
      </trkpt>
      <trkpt lat="45.29873" lon="4.574">
        <ele>509.64</ele>
        <time>2016-03-20T09:14:15Z</time>
      </trkpt>
      <trkpt lat="45.2986" lon="4.57394">
        <ele>509.16</ele>
        <time>2016-03-20T09:14:27Z</time>
      </trkpt>
      <trkpt lat="45.29843" lon="4.57392">
        <ele>513</ele>
        <time>2016-03-20T09:14:43Z</time>
      </trkpt>
      <trkpt lat="45.29833" lon="4.57382">
        <ele>513</ele>
        <time>2016-03-20T09:14:57Z</time>
      </trkpt>
      <trkpt lat="45.29831" lon="4.57373">
        <ele>513</ele>
        <time>2016-03-20T09:15:04Z</time>
      </trkpt>
      <trkpt lat="45.29815" lon="4.57372">
        <ele>513.48</ele>
        <time>2016-03-20T09:15:18Z</time>
      </trkpt>
      <trkpt lat="45.29793" lon="4.57373">
        <ele>508.67</ele>
        <time>2016-03-20T09:15:35Z</time>
      </trkpt>
      <trkpt lat="45.29774" lon="4.57373">
        <ele>506.75</ele>
        <time>2016-03-20T09:15:51Z</time>
      </trkpt>
      <trkpt lat="45.29773" lon="4.57383">
        <ele>503.87</ele>
        <time>2016-03-20T09:16:02Z</time>
      </trkpt>
      <trkpt lat="45.29773" lon="4.57384">
        <ele>503.87</ele>
        <time>2016-03-20T09:16:03Z</time>
      </trkpt>
      <trkpt lat="45.29769" lon="4.57402">
        <ele>501.95</ele>
        <time>2016-03-20T09:16:17Z</time>
      </trkpt>
      <trkpt lat="45.29758" lon="4.57412">
        <ele>500.98</ele>
        <time>2016-03-20T09:16:30Z</time>
      </trkpt>
      <trkpt lat="45.29759" lon="4.57429">
        <ele>495.22</ele>
        <time>2016-03-20T09:16:40Z</time>
      </trkpt>
      <trkpt lat="45.29762" lon="4.57447">
        <ele>486.08</ele>
        <time>2016-03-20T09:16:54Z</time>
      </trkpt>
      <trkpt lat="45.29766" lon="4.57476">
        <ele>486.56</ele>
        <time>2016-03-20T09:17:08Z</time>
      </trkpt>
      <trkpt lat="45.29774" lon="4.57491">
        <ele>492.33</ele>
        <time>2016-03-20T09:17:27Z</time>
      </trkpt>
      <trkpt lat="45.29783" lon="4.57509">
        <ele>492.81</ele>
        <time>2016-03-20T09:17:42Z</time>
      </trkpt>
      <trkpt lat="45.29797" lon="4.57538">
        <ele>490.89</ele>
        <time>2016-03-20T09:17:58Z</time>
      </trkpt>
      <trkpt lat="45.29802" lon="4.57549">
        <ele>489.45</ele>
        <time>2016-03-20T09:18:05Z</time>
      </trkpt>
      <trkpt lat="45.29817" lon="4.57582">
        <ele>493.77</ele>
        <time>2016-03-20T09:18:20Z</time>
      </trkpt>
      <trkpt lat="45.29823" lon="4.5761">
        <ele>500.5</ele>
        <time>2016-03-20T09:18:34Z</time>
      </trkpt>
      <trkpt lat="45.29829" lon="4.57632">
        <ele>502.91</ele>
        <time>2016-03-20T09:18:44Z</time>
      </trkpt>
      <trkpt lat="45.29833" lon="4.57664">
        <ele>505.79</ele>
        <time>2016-03-20T09:19:00Z</time>
      </trkpt>
      <trkpt lat="45.29834" lon="4.57668">
        <ele>505.79</ele>
        <time>2016-03-20T09:19:02Z</time>
      </trkpt>
      <trkpt lat="45.29842" lon="4.57698">
        <ele>504.83</ele>
        <time>2016-03-20T09:19:17Z</time>
      </trkpt>
      <trkpt lat="45.29847" lon="4.57729">
        <ele>504.35</ele>
        <time>2016-03-20T09:19:33Z</time>
      </trkpt>
      <trkpt lat="45.29857" lon="4.57759">
        <ele>503.39</ele>
        <time>2016-03-20T09:19:49Z</time>
      </trkpt>
      <trkpt lat="45.29858" lon="4.57794">
        <ele>504.83</ele>
        <time>2016-03-20T09:20:06Z</time>
      </trkpt>
      <trkpt lat="45.29856" lon="4.57826">
        <ele>508.67</ele>
        <time>2016-03-20T09:20:22Z</time>
      </trkpt>
      <trkpt lat="45.29857" lon="4.57857">
        <ele>504.83</ele>
        <time>2016-03-20T09:20:37Z</time>
      </trkpt>
      <trkpt lat="45.29859" lon="4.57897">
        <ele>499.06</ele>
        <time>2016-03-20T09:20:56Z</time>
      </trkpt>
      <trkpt lat="45.29858" lon="4.57923">
        <ele>494.26</ele>
        <time>2016-03-20T09:21:10Z</time>
      </trkpt>
      <trkpt lat="45.29857" lon="4.57946">
        <ele>497.14</ele>
        <time>2016-03-20T09:21:19Z</time>
      </trkpt>
      <trkpt lat="45.29858" lon="4.57956">
        <ele>497.62</ele>
        <time>2016-03-20T09:21:23Z</time>
      </trkpt>
      <trkpt lat="45.2986" lon="4.57967">
        <ele>498.1</ele>
        <time>2016-03-20T09:21:28Z</time>
      </trkpt>
      <trkpt lat="45.2986" lon="4.57975">
        <ele>498.1</ele>
        <time>2016-03-20T09:21:32Z</time>
      </trkpt>
      <trkpt lat="45.29861" lon="4.57985">
        <ele>498.58</ele>
        <time>2016-03-20T09:21:37Z</time>
      </trkpt>
      <trkpt lat="45.29862" lon="4.57993">
        <ele>498.58</ele>
        <time>2016-03-20T09:21:41Z</time>
      </trkpt>
      <trkpt lat="45.29864" lon="4.58004">
        <ele>499.06</ele>
        <time>2016-03-20T09:21:47Z</time>
      </trkpt>
      <trkpt lat="45.29863" lon="4.58046">
        <ele>500.02</ele>
        <time>2016-03-20T09:22:07Z</time>
      </trkpt>
      <trkpt lat="45.29865" lon="4.58081">
        <ele>500.02</ele>
        <time>2016-03-20T09:22:23Z</time>
      </trkpt>
      <trkpt lat="45.29863" lon="4.58102">
        <ele>500.02</ele>
        <time>2016-03-20T09:22:31Z</time>
      </trkpt>
      <trkpt lat="45.2986" lon="4.58113">
        <ele>499.54</ele>
        <time>2016-03-20T09:22:36Z</time>
      </trkpt>
      <trkpt lat="45.29858" lon="4.58129">
        <ele>500.02</ele>
        <time>2016-03-20T09:22:45Z</time>
      </trkpt>
      <trkpt lat="45.29859" lon="4.58154">
        <ele>499.54</ele>
        <time>2016-03-20T09:22:57Z</time>
      </trkpt>
      <trkpt lat="45.29872" lon="4.58174">
        <ele>501.95</ele>
        <time>2016-03-20T09:23:12Z</time>
      </trkpt>
      <trkpt lat="45.2989" lon="4.58193">
        <ele>501.46</ele>
        <time>2016-03-20T09:23:28Z</time>
      </trkpt>
      <trkpt lat="45.29897" lon="4.58196">
        <ele>501.46</ele>
        <time>2016-03-20T09:23:34Z</time>
      </trkpt>
      <trkpt lat="45.29917" lon="4.58187">
        <ele>501.95</ele>
        <time>2016-03-20T09:23:51Z</time>
      </trkpt>
      <trkpt lat="45.29936" lon="4.5817">
        <ele>506.27</ele>
        <time>2016-03-20T09:24:09Z</time>
      </trkpt>
      <trkpt lat="45.29954" lon="4.58164">
        <ele>510.6</ele>
        <time>2016-03-20T09:24:24Z</time>
      </trkpt>
      <trkpt lat="45.29973" lon="4.58169">
        <ele>513</ele>
        <time>2016-03-20T09:24:41Z</time>
      </trkpt>
      <trkpt lat="45.29982" lon="4.58177">
        <ele>510.6</ele>
        <time>2016-03-20T09:24:51Z</time>
      </trkpt>
      <trkpt lat="45.29988" lon="4.58199">
        <ele>505.79</ele>
        <time>2016-03-20T09:25:08Z</time>
      </trkpt>
      <trkpt lat="45.29986" lon="4.58212">
        <ele>505.31</ele>
        <time>2016-03-20T09:25:21Z</time>
      </trkpt>
      <trkpt lat="45.29987" lon="4.58216">
        <ele>505.31</ele>
        <time>2016-03-20T09:25:23Z</time>
      </trkpt>
      <trkpt lat="45.2999" lon="4.58247">
        <ele>503.39</ele>
        <time>2016-03-20T09:25:40Z</time>
      </trkpt>
      <trkpt lat="45.29991" lon="4.58259">
        <ele>502.91</ele>
        <time>2016-03-20T09:25:47Z</time>
      </trkpt>
      <trkpt lat="45.29995" lon="4.58271">
        <ele>502.91</ele>
        <time>2016-03-20T09:25:54Z</time>
      </trkpt>
      <trkpt lat="45.30013" lon="4.58295">
        <ele>504.35</ele>
        <time>2016-03-20T09:26:10Z</time>
      </trkpt>
      <trkpt lat="45.30011" lon="4.583">
        <ele>504.83</ele>
        <time>2016-03-20T09:26:12Z</time>
      </trkpt>
      <trkpt lat="45.30004" lon="4.58328">
        <ele>510.12</ele>
        <time>2016-03-20T09:26:28Z</time>
      </trkpt>
      <trkpt lat="45.30003" lon="4.58361">
        <ele>513.96</ele>
        <time>2016-03-20T09:26:48Z</time>
      </trkpt>
      <trkpt lat="45.30009" lon="4.58389">
        <ele>516.37</ele>
        <time>2016-03-20T09:27:04Z</time>
      </trkpt>
      <trkpt lat="45.30015" lon="4.58402">
        <ele>517.33</ele>
        <time>2016-03-20T09:27:14Z</time>
      </trkpt>
      <trkpt lat="45.30029" lon="4.58432">
        <ele>520.21</ele>
        <time>2016-03-20T09:27:35Z</time>
      </trkpt>
      <trkpt lat="45.30039" lon="4.58459">
        <ele>524.06</ele>
        <time>2016-03-20T09:27:54Z</time>
      </trkpt>
      <trkpt lat="45.30056" lon="4.58488">
        <ele>528.38</ele>
        <time>2016-03-20T09:28:16Z</time>
      </trkpt>
      <trkpt lat="45.30073" lon="4.58509">
        <ele>530.79</ele>
        <time>2016-03-20T09:28:34Z</time>
      </trkpt>
      <trkpt lat="45.30088" lon="4.58529">
        <ele>531.75</ele>
        <time>2016-03-20T09:28:50Z</time>
      </trkpt>
      <trkpt lat="45.30102" lon="4.58555">
        <ele>532.23</ele>
        <time>2016-03-20T09:29:07Z</time>
      </trkpt>
      <trkpt lat="45.3012" lon="4.58582">
        <ele>532.23</ele>
        <time>2016-03-20T09:29:27Z</time>
      </trkpt>
      <trkpt lat="45.30136" lon="4.58606">
        <ele>534.15</ele>
        <time>2016-03-20T09:29:45Z</time>
      </trkpt>
      <trkpt lat="45.30151" lon="4.58628">
        <ele>535.11</ele>
        <time>2016-03-20T09:30:01Z</time>
      </trkpt>
      <trkpt lat="45.30155" lon="4.58632">
        <ele>535.11</ele>
        <time>2016-03-20T09:30:05Z</time>
      </trkpt>
      <trkpt lat="45.3017" lon="4.58654">
        <ele>536.55</ele>
        <time>2016-03-20T09:30:23Z</time>
      </trkpt>
      <trkpt lat="45.3019" lon="4.58675">
        <ele>538.96</ele>
        <time>2016-03-20T09:30:43Z</time>
      </trkpt>
      <trkpt lat="45.30211" lon="4.5869">
        <ele>539.44</ele>
        <time>2016-03-20T09:31:01Z</time>
      </trkpt>
      <trkpt lat="45.3023" lon="4.58704">
        <ele>539.44</ele>
        <time>2016-03-20T09:31:18Z</time>
      </trkpt>
      <trkpt lat="45.30258" lon="4.58716">
        <ele>539.44</ele>
        <time>2016-03-20T09:31:39Z</time>
      </trkpt>
      <trkpt lat="45.30266" lon="4.58717">
        <ele>539.44</ele>
        <time>2016-03-20T09:31:45Z</time>
      </trkpt>
      <trkpt lat="45.30294" lon="4.58713">
        <ele>540.4</ele>
        <time>2016-03-20T09:32:06Z</time>
      </trkpt>
      <trkpt lat="45.30316" lon="4.58708">
        <ele>541.36</ele>
        <time>2016-03-20T09:32:22Z</time>
      </trkpt>
      <trkpt lat="45.30331" lon="4.58702">
        <ele>542.8</ele>
        <time>2016-03-20T09:32:37Z</time>
      </trkpt>
      <trkpt lat="45.30332" lon="4.587">
        <ele>543.28</ele>
        <time>2016-03-20T09:32:52Z</time>
      </trkpt>
      <trkpt lat="45.30332" lon="4.58699">
        <ele>542.8</ele>
        <time>2016-03-20T09:33:17Z</time>
      </trkpt>
      <trkpt lat="45.30332" lon="4.58698">
        <ele>543.28</ele>
        <time>2016-03-20T09:33:41Z</time>
      </trkpt>
      <trkpt lat="45.30332" lon="4.58699">
        <ele>543.28</ele>
        <time>2016-03-20T09:34:01Z</time>
      </trkpt>
      <trkpt lat="45.30334" lon="4.58698">
        <ele>542.8</ele>
        <time>2016-03-20T09:34:27Z</time>
      </trkpt>
      <trkpt lat="45.30345" lon="4.587">
        <ele>542.32</ele>
        <time>2016-03-20T09:34:37Z</time>
      </trkpt>
      <trkpt lat="45.30365" lon="4.58701">
        <ele>539.92</ele>
        <time>2016-03-20T09:34:53Z</time>
      </trkpt>
      <trkpt lat="45.30378" lon="4.58699">
        <ele>539.44</ele>
        <time>2016-03-20T09:35:00Z</time>
      </trkpt>
      <trkpt lat="45.30399" lon="4.58694">
        <ele>540.4</ele>
        <time>2016-03-20T09:35:16Z</time>
      </trkpt>
      <trkpt lat="45.30418" lon="4.58696">
        <ele>542.32</ele>
        <time>2016-03-20T09:35:32Z</time>
      </trkpt>
      <trkpt lat="45.30422" lon="4.58723">
        <ele>542.32</ele>
        <time>2016-03-20T09:35:47Z</time>
      </trkpt>
      <trkpt lat="45.30406" lon="4.58739">
        <ele>540.4</ele>
        <time>2016-03-20T09:36:04Z</time>
      </trkpt>
      <trkpt lat="45.30398" lon="4.58744">
        <ele>539.44</ele>
        <time>2016-03-20T09:36:11Z</time>
      </trkpt>
      <trkpt lat="45.3038" lon="4.5876">
        <ele>538.96</ele>
        <time>2016-03-20T09:36:29Z</time>
      </trkpt>
      <trkpt lat="45.30379" lon="4.58761">
        <ele>539.44</ele>
        <time>2016-03-20T09:36:32Z</time>
      </trkpt>
      <trkpt lat="45.30361" lon="4.58765">
        <ele>537.99</ele>
        <time>2016-03-20T09:36:42Z</time>
      </trkpt>
      <trkpt lat="45.30335" lon="4.58776">
        <ele>537.03</ele>
        <time>2016-03-20T09:37:01Z</time>
      </trkpt>
      <trkpt lat="45.30317" lon="4.58796">
        <ele>535.59</ele>
        <time>2016-03-20T09:37:16Z</time>
      </trkpt>
      <trkpt lat="45.30298" lon="4.58809">
        <ele>534.63</ele>
        <time>2016-03-20T09:37:31Z</time>
      </trkpt>
      <trkpt lat="45.30277" lon="4.58825">
        <ele>529.82</ele>
        <time>2016-03-20T09:37:48Z</time>
      </trkpt>
      <trkpt lat="45.30254" lon="4.58836">
        <ele>527.9</ele>
        <time>2016-03-20T09:38:06Z</time>
      </trkpt>
      <trkpt lat="45.30246" lon="4.58838">
        <ele>527.9</ele>
        <time>2016-03-20T09:38:11Z</time>
      </trkpt>
      <trkpt lat="45.30221" lon="4.58848">
        <ele>529.82</ele>
        <time>2016-03-20T09:38:28Z</time>
      </trkpt>
      <trkpt lat="45.302" lon="4.5886">
        <ele>530.3</ele>
        <time>2016-03-20T09:38:43Z</time>
      </trkpt>
      <trkpt lat="45.3018" lon="4.58879">
        <ele>530.3</ele>
        <time>2016-03-20T09:39:00Z</time>
      </trkpt>
      <trkpt lat="45.30162" lon="4.58905">
        <ele>533.19</ele>
        <time>2016-03-20T09:39:17Z</time>
      </trkpt>
      <trkpt lat="45.30144" lon="4.58931">
        <ele>535.11</ele>
        <time>2016-03-20T09:39:35Z</time>
      </trkpt>
      <trkpt lat="45.30128" lon="4.58949">
        <ele>536.07</ele>
        <time>2016-03-20T09:39:49Z</time>
      </trkpt>
      <trkpt lat="45.30108" lon="4.58968">
        <ele>537.99</ele>
        <time>2016-03-20T09:40:08Z</time>
      </trkpt>
      <trkpt lat="45.30089" lon="4.58983">
        <ele>537.51</ele>
        <time>2016-03-20T09:40:23Z</time>
      </trkpt>
      <trkpt lat="45.30066" lon="4.59">
        <ele>538.96</ele>
        <time>2016-03-20T09:40:41Z</time>
      </trkpt>
      <trkpt lat="45.30052" lon="4.59023">
        <ele>540.88</ele>
        <time>2016-03-20T09:40:57Z</time>
      </trkpt>
      <trkpt lat="45.30054" lon="4.59032">
        <ele>540.88</ele>
        <time>2016-03-20T09:41:03Z</time>
      </trkpt>
      <trkpt lat="45.30072" lon="4.59057">
        <ele>542.32</ele>
        <time>2016-03-20T09:41:22Z</time>
      </trkpt>
      <trkpt lat="45.30084" lon="4.59076">
        <ele>544.24</ele>
        <time>2016-03-20T09:41:37Z</time>
      </trkpt>
      <trkpt lat="45.30103" lon="4.59095">
        <ele>545.69</ele>
        <time>2016-03-20T09:41:55Z</time>
      </trkpt>
      <trkpt lat="45.30122" lon="4.59095">
        <ele>548.57</ele>
        <time>2016-03-20T09:42:09Z</time>
      </trkpt>
      <trkpt lat="45.30133" lon="4.59097">
        <ele>550.97</ele>
        <time>2016-03-20T09:42:18Z</time>
      </trkpt>
      <trkpt lat="45.30151" lon="4.59102">
        <ele>553.86</ele>
        <time>2016-03-20T09:42:34Z</time>
      </trkpt>
      <trkpt lat="45.30166" lon="4.59105">
        <ele>557.22</ele>
        <time>2016-03-20T09:42:50Z</time>
      </trkpt>
      <trkpt lat="45.30186" lon="4.59108">
        <ele>560.11</ele>
        <time>2016-03-20T09:43:10Z</time>
      </trkpt>
      <trkpt lat="45.302" lon="4.59107">
        <ele>563.47</ele>
        <time>2016-03-20T09:43:23Z</time>
      </trkpt>
      <trkpt lat="45.30218" lon="4.59104">
        <ele>567.32</ele>
        <time>2016-03-20T09:43:38Z</time>
      </trkpt>
      <trkpt lat="45.30238" lon="4.59098">
        <ele>567.8</ele>
        <time>2016-03-20T09:43:53Z</time>
      </trkpt>
      <trkpt lat="45.30254" lon="4.59094">
        <ele>569.72</ele>
        <time>2016-03-20T09:44:07Z</time>
      </trkpt>
      <trkpt lat="45.30268" lon="4.59088">
        <ele>573.56</ele>
        <time>2016-03-20T09:44:21Z</time>
      </trkpt>
      <trkpt lat="45.30284" lon="4.59083">
        <ele>578.37</ele>
        <time>2016-03-20T09:44:36Z</time>
      </trkpt>
      <trkpt lat="45.30286" lon="4.59082">
        <ele>578.37</ele>
        <time>2016-03-20T09:44:38Z</time>
      </trkpt>
      <trkpt lat="45.30304" lon="4.5908">
        <ele>579.81</ele>
        <time>2016-03-20T09:44:52Z</time>
      </trkpt>
      <trkpt lat="45.30306" lon="4.59086">
        <ele>580.29</ele>
        <time>2016-03-20T09:44:57Z</time>
      </trkpt>
      <trkpt lat="45.30306" lon="4.59095">
        <ele>580.77</ele>
        <time>2016-03-20T09:45:03Z</time>
      </trkpt>
      <trkpt lat="45.30302" lon="4.59117">
        <ele>582.22</ele>
        <time>2016-03-20T09:45:17Z</time>
      </trkpt>
      <trkpt lat="45.30301" lon="4.59144">
        <ele>584.14</ele>
        <time>2016-03-20T09:45:35Z</time>
      </trkpt>
      <trkpt lat="45.303" lon="4.59166">
        <ele>587.02</ele>
        <time>2016-03-20T09:45:50Z</time>
      </trkpt>
      <trkpt lat="45.30302" lon="4.59187">
        <ele>589.91</ele>
        <time>2016-03-20T09:46:05Z</time>
      </trkpt>
      <trkpt lat="45.30301" lon="4.5921">
        <ele>592.79</ele>
        <time>2016-03-20T09:46:22Z</time>
      </trkpt>
      <trkpt lat="45.30299" lon="4.5923">
        <ele>595.67</ele>
        <time>2016-03-20T09:46:36Z</time>
      </trkpt>
      <trkpt lat="45.30299" lon="4.59234">
        <ele>596.15</ele>
        <time>2016-03-20T09:46:38Z</time>
      </trkpt>
      <trkpt lat="45.30299" lon="4.59249">
        <ele>596.64</ele>
        <time>2016-03-20T09:46:47Z</time>
      </trkpt>
      <trkpt lat="45.30297" lon="4.59278">
        <ele>597.6</ele>
        <time>2016-03-20T09:47:04Z</time>
      </trkpt>
      <trkpt lat="45.30296" lon="4.59312">
        <ele>598.08</ele>
        <time>2016-03-20T09:47:22Z</time>
      </trkpt>
      <trkpt lat="45.30295" lon="4.59349">
        <ele>598.08</ele>
        <time>2016-03-20T09:47:42Z</time>
      </trkpt>
      <trkpt lat="45.30291" lon="4.59357">
        <ele>598.56</ele>
        <time>2016-03-20T09:47:47Z</time>
      </trkpt>
      <trkpt lat="45.30283" lon="4.59377">
        <ele>603.36</ele>
        <time>2016-03-20T09:48:02Z</time>
      </trkpt>
      <trkpt lat="45.30275" lon="4.59395">
        <ele>605.77</ele>
        <time>2016-03-20T09:48:17Z</time>
      </trkpt>
      <trkpt lat="45.30268" lon="4.59418">
        <ele>606.73</ele>
        <time>2016-03-20T09:48:33Z</time>
      </trkpt>
      <trkpt lat="45.30261" lon="4.59444">
        <ele>607.69</ele>
        <time>2016-03-20T09:48:50Z</time>
      </trkpt>
      <trkpt lat="45.30252" lon="4.59475">
        <ele>608.17</ele>
        <time>2016-03-20T09:49:07Z</time>
      </trkpt>
      <trkpt lat="45.30262" lon="4.59479">
        <ele>609.61</ele>
        <time>2016-03-20T09:49:23Z</time>
      </trkpt>
      <trkpt lat="45.30278" lon="4.59462">
        <ele>612.98</ele>
        <time>2016-03-20T09:49:41Z</time>
      </trkpt>
      <trkpt lat="45.30296" lon="4.5946">
        <ele>616.82</ele>
        <time>2016-03-20T09:49:58Z</time>
      </trkpt>
      <trkpt lat="45.30313" lon="4.59468">
        <ele>620.19</ele>
        <time>2016-03-20T09:50:18Z</time>
      </trkpt>
      <trkpt lat="45.30314" lon="4.5947">
        <ele>620.19</ele>
        <time>2016-03-20T09:50:20Z</time>
      </trkpt>
      <trkpt lat="45.30317" lon="4.5949">
        <ele>620.67</ele>
        <time>2016-03-20T09:50:34Z</time>
      </trkpt>
      <trkpt lat="45.30305" lon="4.59514">
        <ele>625.47</ele>
        <time>2016-03-20T09:50:52Z</time>
      </trkpt>
      <trkpt lat="45.30297" lon="4.59531">
        <ele>628.36</ele>
        <time>2016-03-20T09:51:05Z</time>
      </trkpt>
      <trkpt lat="45.30291" lon="4.59554">
        <ele>632.2</ele>
        <time>2016-03-20T09:51:21Z</time>
      </trkpt>
      <trkpt lat="45.3029" lon="4.59559">
        <ele>633.65</ele>
        <time>2016-03-20T09:51:25Z</time>
      </trkpt>
      <trkpt lat="45.30293" lon="4.59568">
        <ele>634.13</ele>
        <time>2016-03-20T09:51:31Z</time>
      </trkpt>
      <trkpt lat="45.30309" lon="4.59563">
        <ele>636.53</ele>
        <time>2016-03-20T09:51:45Z</time>
      </trkpt>
      <trkpt lat="45.30319" lon="4.59572">
        <ele>639.89</ele>
        <time>2016-03-20T09:52:00Z</time>
      </trkpt>
      <trkpt lat="45.30319" lon="4.59575">
        <ele>640.38</ele>
        <time>2016-03-20T09:52:04Z</time>
      </trkpt>
      <trkpt lat="45.30313" lon="4.5959">
        <ele>641.34</ele>
        <time>2016-03-20T09:52:18Z</time>
      </trkpt>
      <trkpt lat="45.3031" lon="4.59592">
        <ele>642.3</ele>
        <time>2016-03-20T09:52:30Z</time>
      </trkpt>
      <trkpt lat="45.30309" lon="4.59594">
        <ele>643.26</ele>
        <time>2016-03-20T09:52:38Z</time>
      </trkpt>
      <trkpt lat="45.30309" lon="4.59594">
        <ele>643.26</ele>
        <time>2016-03-20T09:52:54Z</time>
      </trkpt>
      <trkpt lat="45.30308" lon="4.59594">
        <ele>644.7</ele>
        <time>2016-03-20T09:53:16Z</time>
      </trkpt>
      <trkpt lat="45.30307" lon="4.59593">
        <ele>644.22</ele>
        <time>2016-03-20T09:53:31Z</time>
      </trkpt>
      <trkpt lat="45.30308" lon="4.59595">
        <ele>644.22</ele>
        <time>2016-03-20T09:53:48Z</time>
      </trkpt>
      <trkpt lat="45.30308" lon="4.59595">
        <ele>644.22</ele>
        <time>2016-03-20T09:54:03Z</time>
      </trkpt>
      <trkpt lat="45.30308" lon="4.59595">
        <ele>644.22</ele>
        <time>2016-03-20T09:54:20Z</time>
      </trkpt>
      <trkpt lat="45.30307" lon="4.59595">
        <ele>645.18</ele>
        <time>2016-03-20T09:54:34Z</time>
      </trkpt>
      <trkpt lat="45.30308" lon="4.59594">
        <ele>646.14</ele>
        <time>2016-03-20T09:54:52Z</time>
      </trkpt>
      <trkpt lat="45.30308" lon="4.59592">
        <ele>646.62</ele>
        <time>2016-03-20T09:55:05Z</time>
      </trkpt>
      <trkpt lat="45.30308" lon="4.59592">
        <ele>647.1</ele>
        <time>2016-03-20T09:55:23Z</time>
      </trkpt>
      <trkpt lat="45.30307" lon="4.59589">
        <ele>647.1</ele>
        <time>2016-03-20T09:55:37Z</time>
      </trkpt>
      <trkpt lat="45.30307" lon="4.59591">
        <ele>646.62</ele>
        <time>2016-03-20T09:55:53Z</time>
      </trkpt>
      <trkpt lat="45.30307" lon="4.59592">
        <ele>646.62</ele>
        <time>2016-03-20T09:56:12Z</time>
      </trkpt>
      <trkpt lat="45.30307" lon="4.59592">
        <ele>646.62</ele>
        <time>2016-03-20T09:56:35Z</time>
      </trkpt>
      <trkpt lat="45.30308" lon="4.59592">
        <ele>646.62</ele>
        <time>2016-03-20T09:56:56Z</time>
      </trkpt>
      <trkpt lat="45.30308" lon="4.59591">
        <ele>646.62</ele>
        <time>2016-03-20T09:57:16Z</time>
      </trkpt>
      <trkpt lat="45.30308" lon="4.59597">
        <ele>646.62</ele>
        <time>2016-03-20T09:57:41Z</time>
      </trkpt>
      <trkpt lat="45.30308" lon="4.596">
        <ele>646.62</ele>
        <time>2016-03-20T09:57:44Z</time>
      </trkpt>
      <trkpt lat="45.30305" lon="4.59618">
        <ele>646.62</ele>
        <time>2016-03-20T09:57:57Z</time>
      </trkpt>
      <trkpt lat="45.30306" lon="4.59627">
        <ele>646.62</ele>
        <time>2016-03-20T09:58:03Z</time>
      </trkpt>
      <trkpt lat="45.30307" lon="4.5965">
        <ele>648.07</ele>
        <time>2016-03-20T09:58:18Z</time>
      </trkpt>
      <trkpt lat="45.30309" lon="4.59672">
        <ele>650.95</ele>
        <time>2016-03-20T09:58:33Z</time>
      </trkpt>
      <trkpt lat="45.30314" lon="4.59689">
        <ele>652.87</ele>
        <time>2016-03-20T09:58:49Z</time>
      </trkpt>
      <trkpt lat="45.30315" lon="4.59691">
        <ele>653.35</ele>
        <time>2016-03-20T09:58:51Z</time>
      </trkpt>
      <trkpt lat="45.30316" lon="4.59707">
        <ele>654.31</ele>
        <time>2016-03-20T09:59:07Z</time>
      </trkpt>
      <trkpt lat="45.30315" lon="4.59718">
        <ele>655.28</ele>
        <time>2016-03-20T09:59:19Z</time>
      </trkpt>
      <trkpt lat="45.30316" lon="4.59718">
        <ele>654.8</ele>
        <time>2016-03-20T09:59:39Z</time>
      </trkpt>
      <trkpt lat="45.30314" lon="4.59729">
        <ele>655.76</ele>
        <time>2016-03-20T09:59:47Z</time>
      </trkpt>
      <trkpt lat="45.30308" lon="4.59743">
        <ele>655.76</ele>
        <time>2016-03-20T09:59:55Z</time>
      </trkpt>
      <trkpt lat="45.30298" lon="4.59769">
        <ele>654.8</ele>
        <time>2016-03-20T10:00:12Z</time>
      </trkpt>
      <trkpt lat="45.30284" lon="4.5977">
        <ele>656.24</ele>
        <time>2016-03-20T10:00:22Z</time>
      </trkpt>
      <trkpt lat="45.30258" lon="4.59767">
        <ele>657.2</ele>
        <time>2016-03-20T10:00:41Z</time>
      </trkpt>
      <trkpt lat="45.30233" lon="4.59778">
        <ele>655.76</ele>
        <time>2016-03-20T10:01:00Z</time>
      </trkpt>
      <trkpt lat="45.30222" lon="4.59786">
        <ele>653.35</ele>
        <time>2016-03-20T10:01:10Z</time>
      </trkpt>
      <trkpt lat="45.30209" lon="4.59808">
        <ele>648.55</ele>
        <time>2016-03-20T10:01:26Z</time>
      </trkpt>
      <trkpt lat="45.30206" lon="4.59813">
        <ele>648.07</ele>
        <time>2016-03-20T10:01:30Z</time>
      </trkpt>
      <trkpt lat="45.30206" lon="4.59832">
        <ele>644.22</ele>
        <time>2016-03-20T10:01:41Z</time>
      </trkpt>
      <trkpt lat="45.30212" lon="4.59853">
        <ele>640.86</ele>
        <time>2016-03-20T10:01:55Z</time>
      </trkpt>
      <trkpt lat="45.30225" lon="4.59871">
        <ele>640.38</ele>
        <time>2016-03-20T10:02:09Z</time>
      </trkpt>
      <trkpt lat="45.30244" lon="4.59886">
        <ele>637.97</ele>
        <time>2016-03-20T10:02:25Z</time>
      </trkpt>
      <trkpt lat="45.30261" lon="4.59904">
        <ele>638.45</ele>
        <time>2016-03-20T10:02:41Z</time>
      </trkpt>
      <trkpt lat="45.30276" lon="4.59924">
        <ele>637.49</ele>
        <time>2016-03-20T10:02:57Z</time>
      </trkpt>
      <trkpt lat="45.30286" lon="4.59945">
        <ele>637.01</ele>
        <time>2016-03-20T10:03:11Z</time>
      </trkpt>
      <trkpt lat="45.30292" lon="4.59959">
        <ele>636.05</ele>
        <time>2016-03-20T10:03:20Z</time>
      </trkpt>
      <trkpt lat="45.30304" lon="4.59987">
        <ele>631.72</ele>
        <time>2016-03-20T10:03:36Z</time>
      </trkpt>
      <trkpt lat="45.30312" lon="4.6001">
        <ele>629.32</ele>
        <time>2016-03-20T10:03:50Z</time>
      </trkpt>
      <trkpt lat="45.30323" lon="4.60034">
        <ele>627.88</ele>
        <time>2016-03-20T10:04:05Z</time>
      </trkpt>
      <trkpt lat="45.30331" lon="4.60063">
        <ele>626.92</ele>
        <time>2016-03-20T10:04:21Z</time>
      </trkpt>
      <trkpt lat="45.30333" lon="4.60084">
        <ele>626.92</ele>
        <time>2016-03-20T10:04:32Z</time>
      </trkpt>
      <trkpt lat="45.30335" lon="4.60102">
        <ele>625.96</ele>
        <time>2016-03-20T10:04:42Z</time>
      </trkpt>
      <trkpt lat="45.30337" lon="4.60121">
        <ele>625.96</ele>
        <time>2016-03-20T10:04:53Z</time>
      </trkpt>
      <trkpt lat="45.30339" lon="4.60149">
        <ele>625.47</ele>
        <time>2016-03-20T10:05:08Z</time>
      </trkpt>
      <trkpt lat="45.30334" lon="4.60172">
        <ele>624.51</ele>
        <time>2016-03-20T10:05:21Z</time>
      </trkpt>
      <trkpt lat="45.30329" lon="4.6019">
        <ele>624.03</ele>
        <time>2016-03-20T10:05:32Z</time>
      </trkpt>
      <trkpt lat="45.30321" lon="4.60223">
        <ele>621.63</ele>
        <time>2016-03-20T10:05:50Z</time>
      </trkpt>
      <trkpt lat="45.30329" lon="4.60238">
        <ele>620.67</ele>
        <time>2016-03-20T10:06:01Z</time>
      </trkpt>
      <trkpt lat="45.30341" lon="4.60257">
        <ele>622.11</ele>
        <time>2016-03-20T10:06:15Z</time>
      </trkpt>
      <trkpt lat="45.30344" lon="4.60262">
        <ele>622.59</ele>
        <time>2016-03-20T10:06:19Z</time>
      </trkpt>
      <trkpt lat="45.30349" lon="4.60269">
        <ele>624.03</ele>
        <time>2016-03-20T10:06:25Z</time>
      </trkpt>
      <trkpt lat="45.30352" lon="4.60275">
        <ele>624.51</ele>
        <time>2016-03-20T10:06:29Z</time>
      </trkpt>
      <trkpt lat="45.30366" lon="4.60293">
        <ele>627.4</ele>
        <time>2016-03-20T10:06:45Z</time>
      </trkpt>
      <trkpt lat="45.30379" lon="4.60312">
        <ele>628.36</ele>
        <time>2016-03-20T10:07:00Z</time>
      </trkpt>
      <trkpt lat="45.30391" lon="4.60329">
        <ele>627.88</ele>
        <time>2016-03-20T10:07:13Z</time>
      </trkpt>
      <trkpt lat="45.30407" lon="4.60348">
        <ele>628.84</ele>
        <time>2016-03-20T10:07:29Z</time>
      </trkpt>
      <trkpt lat="45.30422" lon="4.6036">
        <ele>630.28</ele>
        <time>2016-03-20T10:07:43Z</time>
      </trkpt>
      <trkpt lat="45.30438" lon="4.6037">
        <ele>632.2</ele>
        <time>2016-03-20T10:07:59Z</time>
      </trkpt>
      <trkpt lat="45.30454" lon="4.60382">
        <ele>636.05</ele>
        <time>2016-03-20T10:08:15Z</time>
      </trkpt>
      <trkpt lat="45.30466" lon="4.60397">
        <ele>640.86</ele>
        <time>2016-03-20T10:08:28Z</time>
      </trkpt>
      <trkpt lat="45.30476" lon="4.60406">
        <ele>643.74</ele>
        <time>2016-03-20T10:08:42Z</time>
      </trkpt>
      <trkpt lat="45.30483" lon="4.60419">
        <ele>644.22</ele>
        <time>2016-03-20T10:08:57Z</time>
      </trkpt>
      <trkpt lat="45.30495" lon="4.60439">
        <ele>645.66</ele>
        <time>2016-03-20T10:09:15Z</time>
      </trkpt>
      <trkpt lat="45.30506" lon="4.60458">
        <ele>649.03</ele>
        <time>2016-03-20T10:09:31Z</time>
      </trkpt>
      <trkpt lat="45.30517" lon="4.60474">
        <ele>652.39</ele>
        <time>2016-03-20T10:09:46Z</time>
      </trkpt>
      <trkpt lat="45.30528" lon="4.60488">
        <ele>658.64</ele>
        <time>2016-03-20T10:10:01Z</time>
      </trkpt>
      <trkpt lat="45.30538" lon="4.60503">
        <ele>663.45</ele>
        <time>2016-03-20T10:10:15Z</time>
      </trkpt>
      <trkpt lat="45.30547" lon="4.60518">
        <ele>665.85</ele>
        <time>2016-03-20T10:10:29Z</time>
      </trkpt>
      <trkpt lat="45.30556" lon="4.60535">
        <ele>667.77</ele>
        <time>2016-03-20T10:10:42Z</time>
      </trkpt>
      <trkpt lat="45.30569" lon="4.60556">
        <ele>670.18</ele>
        <time>2016-03-20T10:10:59Z</time>
      </trkpt>
      <trkpt lat="45.3058" lon="4.60576">
        <ele>673.54</ele>
        <time>2016-03-20T10:11:13Z</time>
      </trkpt>
      <trkpt lat="45.30588" lon="4.60604">
        <ele>675.46</ele>
        <time>2016-03-20T10:11:29Z</time>
      </trkpt>
      <trkpt lat="45.30596" lon="4.60631">
        <ele>674.02</ele>
        <time>2016-03-20T10:11:45Z</time>
      </trkpt>
      <trkpt lat="45.30596" lon="4.60632">
        <ele>674.5</ele>
        <time>2016-03-20T10:11:46Z</time>
      </trkpt>
      <trkpt lat="45.30598" lon="4.60642">
        <ele>674.02</ele>
        <time>2016-03-20T10:11:51Z</time>
      </trkpt>
      <trkpt lat="45.30602" lon="4.60671">
        <ele>674.98</ele>
        <time>2016-03-20T10:12:07Z</time>
      </trkpt>
      <trkpt lat="45.30607" lon="4.60702">
        <ele>678.83</ele>
        <time>2016-03-20T10:12:25Z</time>
      </trkpt>
      <trkpt lat="45.3061" lon="4.60733">
        <ele>681.71</ele>
        <time>2016-03-20T10:12:41Z</time>
      </trkpt>
      <trkpt lat="45.30611" lon="4.6076">
        <ele>683.15</ele>
        <time>2016-03-20T10:12:57Z</time>
      </trkpt>
      <trkpt lat="45.30612" lon="4.60765">
        <ele>685.56</ele>
        <time>2016-03-20T10:13:12Z</time>
      </trkpt>
      <trkpt lat="45.30612" lon="4.60765">
        <ele>686.04</ele>
        <time>2016-03-20T10:13:21Z</time>
      </trkpt>
      <trkpt lat="45.30613" lon="4.60764">
        <ele>688.44</ele>
        <time>2016-03-20T10:13:35Z</time>
      </trkpt>
      <trkpt lat="45.30613" lon="4.60764">
        <ele>688.92</ele>
        <time>2016-03-20T10:13:53Z</time>
      </trkpt>
      <trkpt lat="45.30614" lon="4.60766">
        <ele>690.36</ele>
        <time>2016-03-20T10:14:08Z</time>
      </trkpt>
      <trkpt lat="45.30614" lon="4.60766">
        <ele>690.36</ele>
        <time>2016-03-20T10:14:31Z</time>
      </trkpt>
      <trkpt lat="45.30614" lon="4.60766">
        <ele>690.84</ele>
        <time>2016-03-20T10:15:05Z</time>
      </trkpt>
      <trkpt lat="45.30615" lon="4.60764">
        <ele>691.33</ele>
        <time>2016-03-20T10:15:19Z</time>
      </trkpt>
      <trkpt lat="45.30616" lon="4.60762">
        <ele>692.29</ele>
        <time>2016-03-20T10:15:33Z</time>
      </trkpt>
      <trkpt lat="45.30615" lon="4.60762">
        <ele>692.77</ele>
        <time>2016-03-20T10:16:01Z</time>
      </trkpt>
      <trkpt lat="45.30615" lon="4.60762">
        <ele>692.29</ele>
        <time>2016-03-20T10:16:26Z</time>
      </trkpt>
      <trkpt lat="45.30615" lon="4.60763">
        <ele>692.29</ele>
        <time>2016-03-20T10:16:46Z</time>
      </trkpt>
      <trkpt lat="45.30616" lon="4.60763">
        <ele>692.77</ele>
        <time>2016-03-20T10:17:07Z</time>
      </trkpt>
      <trkpt lat="45.30616" lon="4.60763">
        <ele>692.77</ele>
        <time>2016-03-20T10:17:28Z</time>
      </trkpt>
      <trkpt lat="45.30617" lon="4.60763">
        <ele>693.25</ele>
        <time>2016-03-20T10:17:46Z</time>
      </trkpt>
      <trkpt lat="45.30624" lon="4.60753">
        <ele>694.21</ele>
        <time>2016-03-20T10:17:56Z</time>
      </trkpt>
      <trkpt lat="45.3063" lon="4.60747">
        <ele>694.21</ele>
        <time>2016-03-20T10:18:03Z</time>
      </trkpt>
      <trkpt lat="45.30634" lon="4.60742">
        <ele>695.17</ele>
        <time>2016-03-20T10:18:08Z</time>
      </trkpt>
      <trkpt lat="45.30637" lon="4.60737">
        <ele>696.13</ele>
        <time>2016-03-20T10:18:12Z</time>
      </trkpt>
      <trkpt lat="45.30647" lon="4.60726">
        <ele>698.53</ele>
        <time>2016-03-20T10:18:26Z</time>
      </trkpt>
      <trkpt lat="45.3065" lon="4.60725">
        <ele>699.02</ele>
        <time>2016-03-20T10:18:29Z</time>
      </trkpt>
      <trkpt lat="45.30662" lon="4.60708">
        <ele>700.94</ele>
        <time>2016-03-20T10:18:43Z</time>
      </trkpt>
      <trkpt lat="45.30675" lon="4.60693">
        <ele>703.82</ele>
        <time>2016-03-20T10:18:56Z</time>
      </trkpt>
      <trkpt lat="45.30682" lon="4.60683">
        <ele>706.71</ele>
        <time>2016-03-20T10:19:04Z</time>
      </trkpt>
      <trkpt lat="45.30683" lon="4.60679">
        <ele>707.19</ele>
        <time>2016-03-20T10:19:07Z</time>
      </trkpt>
      <trkpt lat="45.30693" lon="4.60665">
        <ele>710.07</ele>
        <time>2016-03-20T10:19:18Z</time>
      </trkpt>
      <trkpt lat="45.30694" lon="4.60659">
        <ele>710.55</ele>
        <time>2016-03-20T10:19:21Z</time>
      </trkpt>
      <trkpt lat="45.30698" lon="4.60638">
        <ele>710.55</ele>
        <time>2016-03-20T10:19:33Z</time>
      </trkpt>
      <trkpt lat="45.30704" lon="4.60615">
        <ele>711.99</ele>
        <time>2016-03-20T10:19:45Z</time>
      </trkpt>
      <trkpt lat="45.30704" lon="4.60613">
        <ele>711.99</ele>
        <time>2016-03-20T10:19:46Z</time>
      </trkpt>
      <trkpt lat="45.30712" lon="4.60592">
        <ele>713.44</ele>
        <time>2016-03-20T10:19:58Z</time>
      </trkpt>
      <trkpt lat="45.30721" lon="4.60566">
        <ele>715.84</ele>
        <time>2016-03-20T10:20:12Z</time>
      </trkpt>
      <trkpt lat="45.30724" lon="4.60555">
        <ele>717.76</ele>
        <time>2016-03-20T10:20:18Z</time>
      </trkpt>
      <trkpt lat="45.30726" lon="4.60548">
        <ele>718.24</ele>
        <time>2016-03-20T10:20:22Z</time>
      </trkpt>
      <trkpt lat="45.3073" lon="4.60537">
        <ele>719.2</ele>
        <time>2016-03-20T10:20:28Z</time>
      </trkpt>
      <trkpt lat="45.30732" lon="4.60536">
        <ele>719.68</ele>
        <time>2016-03-20T10:20:30Z</time>
      </trkpt>
      <trkpt lat="45.30736" lon="4.60522">
        <ele>721.13</ele>
        <time>2016-03-20T10:20:37Z</time>
      </trkpt>
      <trkpt lat="45.30736" lon="4.60485">
        <ele>718.72</ele>
        <time>2016-03-20T10:20:54Z</time>
      </trkpt>
      <trkpt lat="45.30734" lon="4.60451">
        <ele>718.72</ele>
        <time>2016-03-20T10:21:08Z</time>
      </trkpt>
      <trkpt lat="45.30736" lon="4.60427">
        <ele>719.2</ele>
        <time>2016-03-20T10:21:20Z</time>
      </trkpt>
      <trkpt lat="45.30737" lon="4.60421">
        <ele>719.68</ele>
        <time>2016-03-20T10:21:23Z</time>
      </trkpt>
      <trkpt lat="45.30739" lon="4.60413">
        <ele>720.16</ele>
        <time>2016-03-20T10:21:27Z</time>
      </trkpt>
      <trkpt lat="45.30739" lon="4.60401">
        <ele>720.65</ele>
        <time>2016-03-20T10:21:33Z</time>
      </trkpt>
      <trkpt lat="45.30739" lon="4.60393">
        <ele>722.09</ele>
        <time>2016-03-20T10:21:37Z</time>
      </trkpt>
      <trkpt lat="45.30736" lon="4.60378">
        <ele>724.49</ele>
        <time>2016-03-20T10:21:44Z</time>
      </trkpt>
      <trkpt lat="45.30739" lon="4.60361">
        <ele>727.37</ele>
        <time>2016-03-20T10:21:53Z</time>
      </trkpt>
      <trkpt lat="45.30741" lon="4.60357">
        <ele>727.86</ele>
        <time>2016-03-20T10:21:56Z</time>
      </trkpt>
      <trkpt lat="45.30753" lon="4.60333">
        <ele>729.78</ele>
        <time>2016-03-20T10:22:11Z</time>
      </trkpt>
      <trkpt lat="45.30766" lon="4.60317">
        <ele>732.18</ele>
        <time>2016-03-20T10:22:23Z</time>
      </trkpt>
      <trkpt lat="45.30772" lon="4.60307">
        <ele>733.14</ele>
        <time>2016-03-20T10:22:37Z</time>
      </trkpt>
      <trkpt lat="45.30772" lon="4.60307">
        <ele>733.14</ele>
        <time>2016-03-20T10:22:52Z</time>
      </trkpt>
      <trkpt lat="45.30772" lon="4.60306">
        <ele>733.14</ele>
        <time>2016-03-20T10:23:12Z</time>
      </trkpt>
      <trkpt lat="45.30772" lon="4.60306">
        <ele>732.66</ele>
        <time>2016-03-20T10:23:30Z</time>
      </trkpt>
      <trkpt lat="45.30772" lon="4.60306">
        <ele>732.66</ele>
        <time>2016-03-20T10:23:51Z</time>
      </trkpt>
      <trkpt lat="45.30772" lon="4.60306">
        <ele>732.66</ele>
        <time>2016-03-20T10:24:12Z</time>
      </trkpt>
      <trkpt lat="45.30772" lon="4.60306">
        <ele>732.66</ele>
        <time>2016-03-20T10:24:36Z</time>
      </trkpt>
      <trkpt lat="45.30772" lon="4.60305">
        <ele>732.66</ele>
        <time>2016-03-20T10:24:58Z</time>
      </trkpt>
      <trkpt lat="45.30772" lon="4.60305">
        <ele>732.66</ele>
        <time>2016-03-20T10:25:20Z</time>
      </trkpt>
      <trkpt lat="45.30773" lon="4.60303">
        <ele>732.18</ele>
        <time>2016-03-20T10:25:24Z</time>
      </trkpt>
      <trkpt lat="45.30785" lon="4.60283">
        <ele>729.78</ele>
        <time>2016-03-20T10:25:38Z</time>
      </trkpt>
      <trkpt lat="45.30796" lon="4.60268">
        <ele>725.45</ele>
        <time>2016-03-20T10:25:49Z</time>
      </trkpt>
      <trkpt lat="45.30801" lon="4.60257">
        <ele>723.05</ele>
        <time>2016-03-20T10:25:56Z</time>
      </trkpt>
      <trkpt lat="45.3082" lon="4.60237">
        <ele>719.2</ele>
        <time>2016-03-20T10:26:14Z</time>
      </trkpt>
      <trkpt lat="45.30837" lon="4.60215">
        <ele>716.8</ele>
        <time>2016-03-20T10:26:31Z</time>
      </trkpt>
      <trkpt lat="45.30859" lon="4.60196">
        <ele>713.44</ele>
        <time>2016-03-20T10:26:47Z</time>
      </trkpt>
      <trkpt lat="45.30862" lon="4.60191">
        <ele>712.47</ele>
        <time>2016-03-20T10:26:52Z</time>
      </trkpt>
      <trkpt lat="45.30875" lon="4.60176">
        <ele>710.07</ele>
        <time>2016-03-20T10:27:04Z</time>
      </trkpt>
      <trkpt lat="45.30877" lon="4.60172">
        <ele>709.11</ele>
        <time>2016-03-20T10:27:07Z</time>
      </trkpt>
      <trkpt lat="45.30881" lon="4.60165">
        <ele>708.15</ele>
        <time>2016-03-20T10:27:16Z</time>
      </trkpt>
      <trkpt lat="45.30891" lon="4.60149">
        <ele>708.63</ele>
        <time>2016-03-20T10:27:26Z</time>
      </trkpt>
      <trkpt lat="45.30897" lon="4.60138">
        <ele>707.67</ele>
        <time>2016-03-20T10:27:33Z</time>
      </trkpt>
      <trkpt lat="45.309" lon="4.60133">
        <ele>707.19</ele>
        <time>2016-03-20T10:27:36Z</time>
      </trkpt>
      <trkpt lat="45.30906" lon="4.60114">
        <ele>701.9</ele>
        <time>2016-03-20T10:27:50Z</time>
      </trkpt>
      <trkpt lat="45.30909" lon="4.60092">
        <ele>698.53</ele>
        <time>2016-03-20T10:28:00Z</time>
      </trkpt>
      <trkpt lat="45.3091" lon="4.60088">
        <ele>698.53</ele>
        <time>2016-03-20T10:28:02Z</time>
      </trkpt>
      <trkpt lat="45.3092" lon="4.60078">
        <ele>700.46</ele>
        <time>2016-03-20T10:28:14Z</time>
      </trkpt>
      <trkpt lat="45.30924" lon="4.60066">
        <ele>697.57</ele>
        <time>2016-03-20T10:28:27Z</time>
      </trkpt>
      <trkpt lat="45.30924" lon="4.60065">
        <ele>697.09</ele>
        <time>2016-03-20T10:28:48Z</time>
      </trkpt>
      <trkpt lat="45.30925" lon="4.6006">
        <ele>696.13</ele>
        <time>2016-03-20T10:28:53Z</time>
      </trkpt>
      <trkpt lat="45.30919" lon="4.60092">
        <ele>695.65</ele>
        <time>2016-03-20T10:29:10Z</time>
      </trkpt>
      <trkpt lat="45.30919" lon="4.60094">
        <ele>695.65</ele>
        <time>2016-03-20T10:29:11Z</time>
      </trkpt>
      <trkpt lat="45.30917" lon="4.601">
        <ele>695.17</ele>
        <time>2016-03-20T10:29:15Z</time>
      </trkpt>
      <trkpt lat="45.30917" lon="4.60126">
        <ele>695.65</ele>
        <time>2016-03-20T10:29:31Z</time>
      </trkpt>
      <trkpt lat="45.30917" lon="4.60131">
        <ele>695.17</ele>
        <time>2016-03-20T10:29:34Z</time>
      </trkpt>
      <trkpt lat="45.30917" lon="4.60139">
        <ele>695.17</ele>
        <time>2016-03-20T10:29:39Z</time>
      </trkpt>
      <trkpt lat="45.30915" lon="4.60167">
        <ele>696.13</ele>
        <time>2016-03-20T10:29:54Z</time>
      </trkpt>
      <trkpt lat="45.30914" lon="4.60197">
        <ele>697.57</ele>
        <time>2016-03-20T10:30:11Z</time>
      </trkpt>
      <trkpt lat="45.30908" lon="4.60231">
        <ele>701.42</ele>
        <time>2016-03-20T10:30:29Z</time>
      </trkpt>
      <trkpt lat="45.30908" lon="4.60233">
        <ele>701.9</ele>
        <time>2016-03-20T10:30:30Z</time>
      </trkpt>
      <trkpt lat="45.30903" lon="4.60259">
        <ele>703.34</ele>
        <time>2016-03-20T10:30:44Z</time>
      </trkpt>
      <trkpt lat="45.30905" lon="4.60291">
        <ele>704.78</ele>
        <time>2016-03-20T10:31:00Z</time>
      </trkpt>
      <trkpt lat="45.30911" lon="4.6032">
        <ele>705.26</ele>
        <time>2016-03-20T10:31:16Z</time>
      </trkpt>
      <trkpt lat="45.3092" lon="4.60352">
        <ele>706.23</ele>
        <time>2016-03-20T10:31:32Z</time>
      </trkpt>
      <trkpt lat="45.30929" lon="4.60383">
        <ele>705.75</ele>
        <time>2016-03-20T10:31:48Z</time>
      </trkpt>
      <trkpt lat="45.30938" lon="4.60406">
        <ele>710.07</ele>
        <time>2016-03-20T10:32:02Z</time>
      </trkpt>
      <trkpt lat="45.30947" lon="4.60438">
        <ele>712.95</ele>
        <time>2016-03-20T10:32:21Z</time>
      </trkpt>
      <trkpt lat="45.30957" lon="4.60466">
        <ele>712.95</ele>
        <time>2016-03-20T10:32:36Z</time>
      </trkpt>
      <trkpt lat="45.30963" lon="4.60495">
        <ele>711.99</ele>
        <time>2016-03-20T10:32:50Z</time>
      </trkpt>
      <trkpt lat="45.30969" lon="4.60512">
        <ele>713.44</ele>
        <time>2016-03-20T10:33:02Z</time>
      </trkpt>
      <trkpt lat="45.3098" lon="4.60539">
        <ele>713.92</ele>
        <time>2016-03-20T10:33:18Z</time>
      </trkpt>
      <trkpt lat="45.3098" lon="4.60541">
        <ele>713.92</ele>
        <time>2016-03-20T10:33:19Z</time>
      </trkpt>
      <trkpt lat="45.30988" lon="4.60577">
        <ele>712.95</ele>
        <time>2016-03-20T10:33:36Z</time>
      </trkpt>
      <trkpt lat="45.30988" lon="4.60586">
        <ele>711.51</ele>
        <time>2016-03-20T10:33:42Z</time>
      </trkpt>
      <trkpt lat="45.30986" lon="4.6062">
        <ele>705.26</ele>
        <time>2016-03-20T10:33:59Z</time>
      </trkpt>
      <trkpt lat="45.30982" lon="4.60655">
        <ele>706.71</ele>
        <time>2016-03-20T10:34:16Z</time>
      </trkpt>
      <trkpt lat="45.30979" lon="4.60683">
        <ele>705.75</ele>
        <time>2016-03-20T10:34:30Z</time>
      </trkpt>
      <trkpt lat="45.30978" lon="4.60697">
        <ele>705.26</ele>
        <time>2016-03-20T10:34:39Z</time>
      </trkpt>
      <trkpt lat="45.30982" lon="4.60708">
        <ele>705.75</ele>
        <time>2016-03-20T10:34:48Z</time>
      </trkpt>
      <trkpt lat="45.30985" lon="4.60727">
        <ele>711.51</ele>
        <time>2016-03-20T10:35:02Z</time>
      </trkpt>
      <trkpt lat="45.30985" lon="4.60728">
        <ele>711.99</ele>
        <time>2016-03-20T10:35:03Z</time>
      </trkpt>
      <trkpt lat="45.30984" lon="4.60737">
        <ele>714.88</ele>
        <time>2016-03-20T10:35:08Z</time>
      </trkpt>
      <trkpt lat="45.30978" lon="4.60745">
        <ele>715.84</ele>
        <time>2016-03-20T10:35:16Z</time>
      </trkpt>
      <trkpt lat="45.30991" lon="4.60759">
        <ele>718.24</ele>
        <time>2016-03-20T10:35:30Z</time>
      </trkpt>
      <trkpt lat="45.30998" lon="4.60771">
        <ele>718.24</ele>
        <time>2016-03-20T10:35:38Z</time>
      </trkpt>
      <trkpt lat="45.31006" lon="4.60792">
        <ele>713.44</ele>
        <time>2016-03-20T10:35:54Z</time>
      </trkpt>
      <trkpt lat="45.31006" lon="4.60793">
        <ele>713.44</ele>
        <time>2016-03-20T10:35:55Z</time>
      </trkpt>
      <trkpt lat="45.31014" lon="4.60812">
        <ele>710.55</ele>
        <time>2016-03-20T10:36:10Z</time>
      </trkpt>
      <trkpt lat="45.3102" lon="4.60831">
        <ele>707.67</ele>
        <time>2016-03-20T10:36:22Z</time>
      </trkpt>
      <trkpt lat="45.31022" lon="4.60839">
        <ele>706.23</ele>
        <time>2016-03-20T10:36:27Z</time>
      </trkpt>
      <trkpt lat="45.31027" lon="4.60867">
        <ele>704.78</ele>
        <time>2016-03-20T10:36:39Z</time>
      </trkpt>
      <trkpt lat="45.31043" lon="4.6092">
        <ele>704.78</ele>
        <time>2016-03-20T10:36:57Z</time>
      </trkpt>
      <trkpt lat="45.31054" lon="4.6095">
        <ele>701.9</ele>
        <time>2016-03-20T10:37:12Z</time>
      </trkpt>
      <trkpt lat="45.31064" lon="4.60971">
        <ele>697.57</ele>
        <time>2016-03-20T10:37:26Z</time>
      </trkpt>
      <trkpt lat="45.31069" lon="4.60992">
        <ele>695.65</ele>
        <time>2016-03-20T10:37:39Z</time>
      </trkpt>
      <trkpt lat="45.31071" lon="4.61024">
        <ele>698.53</ele>
        <time>2016-03-20T10:37:52Z</time>
      </trkpt>
      <trkpt lat="45.31072" lon="4.61034">
        <ele>699.02</ele>
        <time>2016-03-20T10:37:57Z</time>
      </trkpt>
      <trkpt lat="45.31082" lon="4.61062">
        <ele>693.25</ele>
        <time>2016-03-20T10:38:14Z</time>
      </trkpt>
      <trkpt lat="45.31091" lon="4.61086">
        <ele>687.48</ele>
        <time>2016-03-20T10:38:28Z</time>
      </trkpt>
      <trkpt lat="45.31099" lon="4.6112">
        <ele>679.79</ele>
        <time>2016-03-20T10:38:45Z</time>
      </trkpt>
      <trkpt lat="45.31096" lon="4.61137">
        <ele>674.5</ele>
        <time>2016-03-20T10:38:58Z</time>
      </trkpt>
      <trkpt lat="45.31095" lon="4.61143">
        <ele>675.46</ele>
        <time>2016-03-20T10:39:14Z</time>
      </trkpt>
      <trkpt lat="45.31096" lon="4.61143">
        <ele>675.46</ele>
        <time>2016-03-20T10:39:33Z</time>
      </trkpt>
      <trkpt lat="45.31096" lon="4.61143">
        <ele>675.94</ele>
        <time>2016-03-20T10:39:56Z</time>
      </trkpt>
      <trkpt lat="45.31097" lon="4.61143">
        <ele>676.91</ele>
        <time>2016-03-20T10:40:21Z</time>
      </trkpt>
      <trkpt lat="45.31096" lon="4.61143">
        <ele>677.87</ele>
        <time>2016-03-20T10:40:44Z</time>
      </trkpt>
      <trkpt lat="45.31096" lon="4.61142">
        <ele>677.87</ele>
        <time>2016-03-20T10:41:03Z</time>
      </trkpt>
      <trkpt lat="45.31097" lon="4.61143">
        <ele>678.35</ele>
        <time>2016-03-20T10:41:25Z</time>
      </trkpt>
      <trkpt lat="45.31097" lon="4.61143">
        <ele>678.35</ele>
        <time>2016-03-20T10:41:28Z</time>
      </trkpt>
      <trkpt lat="45.31102" lon="4.61145">
        <ele>678.83</ele>
        <time>2016-03-20T10:41:33Z</time>
      </trkpt>
      <trkpt lat="45.31108" lon="4.61152">
        <ele>680.75</ele>
        <time>2016-03-20T10:41:39Z</time>
      </trkpt>
      <trkpt lat="45.31111" lon="4.61177">
        <ele>683.15</ele>
        <time>2016-03-20T10:41:54Z</time>
      </trkpt>
      <trkpt lat="45.31112" lon="4.61205">
        <ele>685.56</ele>
        <time>2016-03-20T10:42:08Z</time>
      </trkpt>
      <trkpt lat="45.31116" lon="4.61227">
        <ele>687</ele>
        <time>2016-03-20T10:42:22Z</time>
      </trkpt>
      <trkpt lat="45.31119" lon="4.61252">
        <ele>690.84</ele>
        <time>2016-03-20T10:42:36Z</time>
      </trkpt>
      <trkpt lat="45.31121" lon="4.61275">
        <ele>694.69</ele>
        <time>2016-03-20T10:42:51Z</time>
      </trkpt>
      <trkpt lat="45.31122" lon="4.61281">
        <ele>695.65</ele>
        <time>2016-03-20T10:42:55Z</time>
      </trkpt>
      <trkpt lat="45.31123" lon="4.61289">
        <ele>696.13</ele>
        <time>2016-03-20T10:43:00Z</time>
      </trkpt>
      <trkpt lat="45.31124" lon="4.61314">
        <ele>703.82</ele>
        <time>2016-03-20T10:43:16Z</time>
      </trkpt>
      <trkpt lat="45.31129" lon="4.61338">
        <ele>709.59</ele>
        <time>2016-03-20T10:43:32Z</time>
      </trkpt>
      <trkpt lat="45.31134" lon="4.61363">
        <ele>711.51</ele>
        <time>2016-03-20T10:43:46Z</time>
      </trkpt>
      <trkpt lat="45.3114" lon="4.61384">
        <ele>711.99</ele>
        <time>2016-03-20T10:44:00Z</time>
      </trkpt>
      <trkpt lat="45.31144" lon="4.61394">
        <ele>712.95</ele>
        <time>2016-03-20T10:44:08Z</time>
      </trkpt>
      <trkpt lat="45.31154" lon="4.61424">
        <ele>714.88</ele>
        <time>2016-03-20T10:44:24Z</time>
      </trkpt>
      <trkpt lat="45.31163" lon="4.61449">
        <ele>715.84</ele>
        <time>2016-03-20T10:44:39Z</time>
      </trkpt>
      <trkpt lat="45.31169" lon="4.61474">
        <ele>718.72</ele>
        <time>2016-03-20T10:44:52Z</time>
      </trkpt>
      <trkpt lat="45.31172" lon="4.61483">
        <ele>720.16</ele>
        <time>2016-03-20T10:44:57Z</time>
      </trkpt>
      <trkpt lat="45.31178" lon="4.61505">
        <ele>721.13</ele>
        <time>2016-03-20T10:45:11Z</time>
      </trkpt>
      <trkpt lat="45.31183" lon="4.6152">
        <ele>724.01</ele>
        <time>2016-03-20T10:45:19Z</time>
      </trkpt>
      <trkpt lat="45.31195" lon="4.61547">
        <ele>725.45</ele>
        <time>2016-03-20T10:45:36Z</time>
      </trkpt>
      <trkpt lat="45.31206" lon="4.61574">
        <ele>727.86</ele>
        <time>2016-03-20T10:45:51Z</time>
      </trkpt>
      <trkpt lat="45.31212" lon="4.61592">
        <ele>729.78</ele>
        <time>2016-03-20T10:46:01Z</time>
      </trkpt>
      <trkpt lat="45.31211" lon="4.61604">
        <ele>732.18</ele>
        <time>2016-03-20T10:46:10Z</time>
      </trkpt>
      <trkpt lat="45.31212" lon="4.61614">
        <ele>732.66</ele>
        <time>2016-03-20T10:46:20Z</time>
      </trkpt>
      <trkpt lat="45.31208" lon="4.61631">
        <ele>733.62</ele>
        <time>2016-03-20T10:46:30Z</time>
      </trkpt>
      <trkpt lat="45.31207" lon="4.61639">
        <ele>734.58</ele>
        <time>2016-03-20T10:46:34Z</time>
      </trkpt>
      <trkpt lat="45.31207" lon="4.61646">
        <ele>734.1</ele>
        <time>2016-03-20T10:46:38Z</time>
      </trkpt>
      <trkpt lat="45.31207" lon="4.61657">
        <ele>733.62</ele>
        <time>2016-03-20T10:46:44Z</time>
      </trkpt>
      <trkpt lat="45.31206" lon="4.61682">
        <ele>733.62</ele>
        <time>2016-03-20T10:46:59Z</time>
      </trkpt>
      <trkpt lat="45.31205" lon="4.61685">
        <ele>733.14</ele>
        <time>2016-03-20T10:47:01Z</time>
      </trkpt>
      <trkpt lat="45.312" lon="4.61703">
        <ele>736.03</ele>
        <time>2016-03-20T10:47:13Z</time>
      </trkpt>
      <trkpt lat="45.31198" lon="4.61706">
        <ele>738.43</ele>
        <time>2016-03-20T10:47:28Z</time>
      </trkpt>
      <trkpt lat="45.31198" lon="4.61707">
        <ele>741.79</ele>
        <time>2016-03-20T10:47:51Z</time>
      </trkpt>
      <trkpt lat="45.31197" lon="4.61709">
        <ele>746.6</ele>
        <time>2016-03-20T10:48:14Z</time>
      </trkpt>
      <trkpt lat="45.31197" lon="4.61709">
        <ele>748.52</ele>
        <time>2016-03-20T10:48:29Z</time>
      </trkpt>
      <trkpt lat="45.31197" lon="4.61709">
        <ele>749.49</ele>
        <time>2016-03-20T10:48:47Z</time>
      </trkpt>
      <trkpt lat="45.31197" lon="4.61709">
        <ele>750.93</ele>
        <time>2016-03-20T10:49:06Z</time>
      </trkpt>
      <trkpt lat="45.31197" lon="4.61708">
        <ele>751.89</ele>
        <time>2016-03-20T10:49:33Z</time>
      </trkpt>
      <trkpt lat="45.31197" lon="4.61708">
        <ele>752.37</ele>
        <time>2016-03-20T10:49:56Z</time>
      </trkpt>
      <trkpt lat="45.31197" lon="4.61708">
        <ele>752.85</ele>
        <time>2016-03-20T10:50:22Z</time>
      </trkpt>
      <trkpt lat="45.31197" lon="4.61708">
        <ele>752.85</ele>
        <time>2016-03-20T10:50:43Z</time>
      </trkpt>
      <trkpt lat="45.31197" lon="4.61708">
        <ele>753.33</ele>
        <time>2016-03-20T10:51:10Z</time>
      </trkpt>
      <trkpt lat="45.31197" lon="4.61708">
        <ele>753.81</ele>
        <time>2016-03-20T10:51:26Z</time>
      </trkpt>
      <trkpt lat="45.31197" lon="4.61708">
        <ele>753.81</ele>
        <time>2016-03-20T10:51:47Z</time>
      </trkpt>
      <trkpt lat="45.31197" lon="4.61709">
        <ele>753.81</ele>
        <time>2016-03-20T10:52:03Z</time>
      </trkpt>
      <trkpt lat="45.31197" lon="4.61709">
        <ele>753.81</ele>
        <time>2016-03-20T10:52:23Z</time>
      </trkpt>
      <trkpt lat="45.31195" lon="4.6171">
        <ele>754.29</ele>
        <time>2016-03-20T10:52:35Z</time>
      </trkpt>
      <trkpt lat="45.31191" lon="4.61713">
        <ele>753.33</ele>
        <time>2016-03-20T10:52:39Z</time>
      </trkpt>
      <trkpt lat="45.31172" lon="4.61736">
        <ele>751.89</ele>
        <time>2016-03-20T10:52:57Z</time>
      </trkpt>
      <trkpt lat="45.31153" lon="4.61749">
        <ele>750.93</ele>
        <time>2016-03-20T10:53:12Z</time>
      </trkpt>
      <trkpt lat="45.31138" lon="4.61765">
        <ele>750.93</ele>
        <time>2016-03-20T10:53:25Z</time>
      </trkpt>
      <trkpt lat="45.31135" lon="4.61767">
        <ele>750.93</ele>
        <time>2016-03-20T10:53:27Z</time>
      </trkpt>
      <trkpt lat="45.31117" lon="4.61771">
        <ele>750.93</ele>
        <time>2016-03-20T10:53:40Z</time>
      </trkpt>
      <trkpt lat="45.31097" lon="4.6179">
        <ele>746.6</ele>
        <time>2016-03-20T10:53:57Z</time>
      </trkpt>
      <trkpt lat="45.31093" lon="4.61801">
        <ele>745.64</ele>
        <time>2016-03-20T10:54:02Z</time>
      </trkpt>
      <trkpt lat="45.31087" lon="4.61808">
        <ele>744.2</ele>
        <time>2016-03-20T10:54:07Z</time>
      </trkpt>
      <trkpt lat="45.31083" lon="4.61814">
        <ele>743.72</ele>
        <time>2016-03-20T10:54:11Z</time>
      </trkpt>
      <trkpt lat="45.31064" lon="4.61839">
        <ele>737.47</ele>
        <time>2016-03-20T10:54:28Z</time>
      </trkpt>
      <trkpt lat="45.31057" lon="4.61851">
        <ele>733.62</ele>
        <time>2016-03-20T10:54:37Z</time>
      </trkpt>
      <trkpt lat="45.3106" lon="4.61862">
        <ele>730.74</ele>
        <time>2016-03-20T10:54:43Z</time>
      </trkpt>
      <trkpt lat="45.31062" lon="4.61864">
        <ele>729.78</ele>
        <time>2016-03-20T10:54:45Z</time>
      </trkpt>
      <trkpt lat="45.31083" lon="4.61874">
        <ele>727.86</ele>
        <time>2016-03-20T10:55:01Z</time>
      </trkpt>
      <trkpt lat="45.31105" lon="4.61885">
        <ele>726.89</ele>
        <time>2016-03-20T10:55:17Z</time>
      </trkpt>
      <trkpt lat="45.31129" lon="4.619">
        <ele>726.41</ele>
        <time>2016-03-20T10:55:35Z</time>
      </trkpt>
      <trkpt lat="45.31146" lon="4.61919">
        <ele>723.53</ele>
        <time>2016-03-20T10:55:52Z</time>
      </trkpt>
      <trkpt lat="45.31136" lon="4.61937">
        <ele>717.76</ele>
        <time>2016-03-20T10:56:05Z</time>
      </trkpt>
      <trkpt lat="45.31131" lon="4.61952">
        <ele>713.92</ele>
        <time>2016-03-20T10:56:15Z</time>
      </trkpt>
      <trkpt lat="45.31128" lon="4.61977">
        <ele>711.03</ele>
        <time>2016-03-20T10:56:27Z</time>
      </trkpt>
      <trkpt lat="45.31122" lon="4.62005">
        <ele>710.55</ele>
        <time>2016-03-20T10:56:41Z</time>
      </trkpt>
      <trkpt lat="45.3111" lon="4.62032">
        <ele>707.19</ele>
        <time>2016-03-20T10:56:57Z</time>
      </trkpt>
      <trkpt lat="45.31101" lon="4.62062">
        <ele>705.26</ele>
        <time>2016-03-20T10:57:12Z</time>
      </trkpt>
      <trkpt lat="45.31095" lon="4.62094">
        <ele>702.38</ele>
        <time>2016-03-20T10:57:28Z</time>
      </trkpt>
      <trkpt lat="45.31087" lon="4.62123">
        <ele>697.57</ele>
        <time>2016-03-20T10:57:43Z</time>
      </trkpt>
      <trkpt lat="45.31078" lon="4.62146">
        <ele>698.05</ele>
        <time>2016-03-20T10:57:59Z</time>
      </trkpt>
      <trkpt lat="45.31073" lon="4.6215">
        <ele>697.57</ele>
        <time>2016-03-20T10:58:03Z</time>
      </trkpt>
      <trkpt lat="45.31063" lon="4.62155">
        <ele>696.61</ele>
        <time>2016-03-20T10:58:10Z</time>
      </trkpt>
      <trkpt lat="45.31042" lon="4.62166">
        <ele>698.05</ele>
        <time>2016-03-20T10:58:27Z</time>
      </trkpt>
      <trkpt lat="45.31041" lon="4.62167">
        <ele>698.05</ele>
        <time>2016-03-20T10:58:28Z</time>
      </trkpt>
      <trkpt lat="45.31034" lon="4.62186">
        <ele>697.57</ele>
        <time>2016-03-20T10:58:40Z</time>
      </trkpt>
      <trkpt lat="45.31032" lon="4.62194">
        <ele>697.57</ele>
        <time>2016-03-20T10:58:44Z</time>
      </trkpt>
      <trkpt lat="45.3103" lon="4.62229">
        <ele>693.25</ele>
        <time>2016-03-20T10:59:02Z</time>
      </trkpt>
      <trkpt lat="45.31032" lon="4.62248">
        <ele>688.44</ele>
        <time>2016-03-20T10:59:13Z</time>
      </trkpt>
      <trkpt lat="45.31033" lon="4.62268">
        <ele>684.6</ele>
        <time>2016-03-20T10:59:26Z</time>
      </trkpt>
      <trkpt lat="45.31034" lon="4.62272">
        <ele>684.12</ele>
        <time>2016-03-20T10:59:28Z</time>
      </trkpt>
      <trkpt lat="45.31039" lon="4.62292">
        <ele>682.67</ele>
        <time>2016-03-20T10:59:38Z</time>
      </trkpt>
      <trkpt lat="45.31043" lon="4.62301">
        <ele>684.12</ele>
        <time>2016-03-20T10:59:43Z</time>
      </trkpt>
      <trkpt lat="45.3105" lon="4.62327">
        <ele>684.12</ele>
        <time>2016-03-20T10:59:57Z</time>
      </trkpt>
      <trkpt lat="45.3106" lon="4.62353">
        <ele>684.6</ele>
        <time>2016-03-20T11:00:12Z</time>
      </trkpt>
      <trkpt lat="45.31062" lon="4.62382">
        <ele>685.08</ele>
        <time>2016-03-20T11:00:26Z</time>
      </trkpt>
      <trkpt lat="45.31062" lon="4.62393">
        <ele>686.52</ele>
        <time>2016-03-20T11:00:31Z</time>
      </trkpt>
      <trkpt lat="45.31067" lon="4.62404">
        <ele>688.92</ele>
        <time>2016-03-20T11:00:38Z</time>
      </trkpt>
      <trkpt lat="45.31076" lon="4.62414">
        <ele>691.33</ele>
        <time>2016-03-20T11:00:46Z</time>
      </trkpt>
      <trkpt lat="45.31085" lon="4.62437">
        <ele>694.21</ele>
        <time>2016-03-20T11:01:01Z</time>
      </trkpt>
      <trkpt lat="45.31083" lon="4.62449">
        <ele>697.57</ele>
        <time>2016-03-20T11:01:14Z</time>
      </trkpt>
      <trkpt lat="45.31084" lon="4.62449">
        <ele>700.46</ele>
        <time>2016-03-20T11:01:33Z</time>
      </trkpt>
      <trkpt lat="45.31084" lon="4.62449">
        <ele>700.94</ele>
        <time>2016-03-20T11:01:49Z</time>
      </trkpt>
      <trkpt lat="45.31084" lon="4.62449">
        <ele>700.94</ele>
        <time>2016-03-20T11:02:11Z</time>
      </trkpt>
      <trkpt lat="45.31084" lon="4.62449">
        <ele>701.42</ele>
        <time>2016-03-20T11:02:36Z</time>
      </trkpt>
      <trkpt lat="45.31083" lon="4.62449">
        <ele>701.9</ele>
        <time>2016-03-20T11:02:59Z</time>
      </trkpt>
      <trkpt lat="45.31078" lon="4.62453">
        <ele>700.94</ele>
        <time>2016-03-20T11:03:10Z</time>
      </trkpt>
      <trkpt lat="45.31073" lon="4.62469">
        <ele>697.09</ele>
        <time>2016-03-20T11:03:21Z</time>
      </trkpt>
      <trkpt lat="45.3106" lon="4.62496">
        <ele>692.77</ele>
        <time>2016-03-20T11:03:39Z</time>
      </trkpt>
      <trkpt lat="45.31051" lon="4.62521">
        <ele>690.84</ele>
        <time>2016-03-20T11:03:53Z</time>
      </trkpt>
      <trkpt lat="45.31044" lon="4.62553">
        <ele>686.04</ele>
        <time>2016-03-20T11:04:10Z</time>
      </trkpt>
      <trkpt lat="45.31033" lon="4.6258">
        <ele>679.79</ele>
        <time>2016-03-20T11:04:25Z</time>
      </trkpt>
      <trkpt lat="45.31033" lon="4.62582">
        <ele>679.31</ele>
        <time>2016-03-20T11:04:26Z</time>
      </trkpt>
      <trkpt lat="45.31023" lon="4.6261">
        <ele>672.1</ele>
        <time>2016-03-20T11:04:42Z</time>
      </trkpt>
      <trkpt lat="45.31013" lon="4.62639">
        <ele>671.14</ele>
        <time>2016-03-20T11:04:56Z</time>
      </trkpt>
      <trkpt lat="45.31009" lon="4.62649">
        <ele>671.14</ele>
        <time>2016-03-20T11:05:02Z</time>
      </trkpt>
      <trkpt lat="45.30993" lon="4.62672">
        <ele>667.29</ele>
        <time>2016-03-20T11:05:17Z</time>
      </trkpt>
      <trkpt lat="45.30989" lon="4.62676">
        <ele>665.37</ele>
        <time>2016-03-20T11:05:21Z</time>
      </trkpt>
      <trkpt lat="45.30973" lon="4.62688">
        <ele>662.01</ele>
        <time>2016-03-20T11:05:35Z</time>
      </trkpt>
      <trkpt lat="45.30961" lon="4.62699">
        <ele>660.56</ele>
        <time>2016-03-20T11:05:48Z</time>
      </trkpt>
      <trkpt lat="45.30942" lon="4.62724">
        <ele>659.6</ele>
        <time>2016-03-20T11:06:05Z</time>
      </trkpt>
      <trkpt lat="45.3092" lon="4.62745">
        <ele>654.8</ele>
        <time>2016-03-20T11:06:20Z</time>
      </trkpt>
      <trkpt lat="45.309" lon="4.62761">
        <ele>649.51</ele>
        <time>2016-03-20T11:06:34Z</time>
      </trkpt>
      <trkpt lat="45.30884" lon="4.62776">
        <ele>640.38</ele>
        <time>2016-03-20T11:06:49Z</time>
      </trkpt>
      <trkpt lat="45.3087" lon="4.62785">
        <ele>637.01</ele>
        <time>2016-03-20T11:07:02Z</time>
      </trkpt>
      <trkpt lat="45.30868" lon="4.62789">
        <ele>638.45</ele>
        <time>2016-03-20T11:07:16Z</time>
      </trkpt>
      <trkpt lat="45.30867" lon="4.62791">
        <ele>639.89</ele>
        <time>2016-03-20T11:07:25Z</time>
      </trkpt>
      <trkpt lat="45.30869" lon="4.62796">
        <ele>639.89</ele>
        <time>2016-03-20T11:07:30Z</time>
      </trkpt>
      <trkpt lat="45.30867" lon="4.62821">
        <ele>636.53</ele>
        <time>2016-03-20T11:07:45Z</time>
      </trkpt>
      <trkpt lat="45.30865" lon="4.62834">
        <ele>634.61</ele>
        <time>2016-03-20T11:07:53Z</time>
      </trkpt>
      <trkpt lat="45.30861" lon="4.62863">
        <ele>630.28</ele>
        <time>2016-03-20T11:08:08Z</time>
      </trkpt>
      <trkpt lat="45.30856" lon="4.62898">
        <ele>625.47</ele>
        <time>2016-03-20T11:08:22Z</time>
      </trkpt>
      <trkpt lat="45.30856" lon="4.62901">
        <ele>625.47</ele>
        <time>2016-03-20T11:08:23Z</time>
      </trkpt>
      <trkpt lat="45.30847" lon="4.62938">
        <ele>624.03</ele>
        <time>2016-03-20T11:08:39Z</time>
      </trkpt>
      <trkpt lat="45.30838" lon="4.62969">
        <ele>623.55</ele>
        <time>2016-03-20T11:08:54Z</time>
      </trkpt>
      <trkpt lat="45.30836" lon="4.62976">
        <ele>623.07</ele>
        <time>2016-03-20T11:08:59Z</time>
      </trkpt>
      <trkpt lat="45.30827" lon="4.63005">
        <ele>618.26</ele>
        <time>2016-03-20T11:09:16Z</time>
      </trkpt>
      <trkpt lat="45.30824" lon="4.63019">
        <ele>615.86</ele>
        <time>2016-03-20T11:09:24Z</time>
      </trkpt>
      <trkpt lat="45.30824" lon="4.63023">
        <ele>615.38</ele>
        <time>2016-03-20T11:09:26Z</time>
      </trkpt>
      <trkpt lat="45.30823" lon="4.63032">
        <ele>614.9</ele>
        <time>2016-03-20T11:09:31Z</time>
      </trkpt>
      <trkpt lat="45.30818" lon="4.6306">
        <ele>612.98</ele>
        <time>2016-03-20T11:09:44Z</time>
      </trkpt>
      <trkpt lat="45.30813" lon="4.6309">
        <ele>615.38</ele>
        <time>2016-03-20T11:09:58Z</time>
      </trkpt>
      <trkpt lat="45.30805" lon="4.63127">
        <ele>620.19</ele>
        <time>2016-03-20T11:10:13Z</time>
      </trkpt>
      <trkpt lat="45.30798" lon="4.63155">
        <ele>617.3</ele>
        <time>2016-03-20T11:10:26Z</time>
      </trkpt>
      <trkpt lat="45.30789" lon="4.63187">
        <ele>613.46</ele>
        <time>2016-03-20T11:10:42Z</time>
      </trkpt>
      <trkpt lat="45.30785" lon="4.63197">
        <ele>612.5</ele>
        <time>2016-03-20T11:10:47Z</time>
      </trkpt>
      <trkpt lat="45.30783" lon="4.63208">
        <ele>612.5</ele>
        <time>2016-03-20T11:10:52Z</time>
      </trkpt>
      <trkpt lat="45.30778" lon="4.63231">
        <ele>612.02</ele>
        <time>2016-03-20T11:11:03Z</time>
      </trkpt>
      <trkpt lat="45.30777" lon="4.63234">
        <ele>612.02</ele>
        <time>2016-03-20T11:11:05Z</time>
      </trkpt>
      <trkpt lat="45.30766" lon="4.63258">
        <ele>610.09</ele>
        <time>2016-03-20T11:11:19Z</time>
      </trkpt>
      <trkpt lat="45.30755" lon="4.63288">
        <ele>605.77</ele>
        <time>2016-03-20T11:11:35Z</time>
      </trkpt>
      <trkpt lat="45.30745" lon="4.63314">
        <ele>602.4</ele>
        <time>2016-03-20T11:11:51Z</time>
      </trkpt>
      <trkpt lat="45.30731" lon="4.63338">
        <ele>597.12</ele>
        <time>2016-03-20T11:12:06Z</time>
      </trkpt>
      <trkpt lat="45.30715" lon="4.63354">
        <ele>593.75</ele>
        <time>2016-03-20T11:12:19Z</time>
      </trkpt>
      <trkpt lat="45.30705" lon="4.63369">
        <ele>588.46</ele>
        <time>2016-03-20T11:12:32Z</time>
      </trkpt>
      <trkpt lat="45.30704" lon="4.63371">
        <ele>588.95</ele>
        <time>2016-03-20T11:12:35Z</time>
      </trkpt>
      <trkpt lat="45.30695" lon="4.63387">
        <ele>586.54</ele>
        <time>2016-03-20T11:12:44Z</time>
      </trkpt>
      <trkpt lat="45.30688" lon="4.63415">
        <ele>583.66</ele>
        <time>2016-03-20T11:12:59Z</time>
      </trkpt>
      <trkpt lat="45.30679" lon="4.63441">
        <ele>580.77</ele>
        <time>2016-03-20T11:13:12Z</time>
      </trkpt>
      <trkpt lat="45.30679" lon="4.63444">
        <ele>580.77</ele>
        <time>2016-03-20T11:13:14Z</time>
      </trkpt>
      <trkpt lat="45.30671" lon="4.63469">
        <ele>578.85</ele>
        <time>2016-03-20T11:13:28Z</time>
      </trkpt>
      <trkpt lat="45.30669" lon="4.63485">
        <ele>576.93</ele>
        <time>2016-03-20T11:13:37Z</time>
      </trkpt>
      <trkpt lat="45.30674" lon="4.63502">
        <ele>575.97</ele>
        <time>2016-03-20T11:13:47Z</time>
      </trkpt>
      <trkpt lat="45.30672" lon="4.63532">
        <ele>570.68</ele>
        <time>2016-03-20T11:14:04Z</time>
      </trkpt>
      <trkpt lat="45.30666" lon="4.63557">
        <ele>567.8</ele>
        <time>2016-03-20T11:14:18Z</time>
      </trkpt>
      <trkpt lat="45.30662" lon="4.63563">
        <ele>568.28</ele>
        <time>2016-03-20T11:14:23Z</time>
      </trkpt>
      <trkpt lat="45.30655" lon="4.63573">
        <ele>566.83</ele>
        <time>2016-03-20T11:14:38Z</time>
      </trkpt>
      <trkpt lat="45.30655" lon="4.63574">
        <ele>567.32</ele>
        <time>2016-03-20T11:14:54Z</time>
      </trkpt>
      <trkpt lat="45.30654" lon="4.63574">
        <ele>567.8</ele>
        <time>2016-03-20T11:15:12Z</time>
      </trkpt>
      <trkpt lat="45.30655" lon="4.63572">
        <ele>565.87</ele>
        <time>2016-03-20T11:15:36Z</time>
      </trkpt>
      <trkpt lat="45.30655" lon="4.63572">
        <ele>565.87</ele>
        <time>2016-03-20T11:15:57Z</time>
      </trkpt>
      <trkpt lat="45.30655" lon="4.63571">
        <ele>566.35</ele>
        <time>2016-03-20T11:16:20Z</time>
      </trkpt>
      <trkpt lat="45.30653" lon="4.6357">
        <ele>566.35</ele>
        <time>2016-03-20T11:16:36Z</time>
      </trkpt>
      <trkpt lat="45.30653" lon="4.6357">
        <ele>566.35</ele>
        <time>2016-03-20T11:17:00Z</time>
      </trkpt>
      <trkpt lat="45.30653" lon="4.6357">
        <ele>566.83</ele>
        <time>2016-03-20T11:17:21Z</time>
      </trkpt>
      <trkpt lat="45.30653" lon="4.63571">
        <ele>566.83</ele>
        <time>2016-03-20T11:17:42Z</time>
      </trkpt>
      <trkpt lat="45.30653" lon="4.63571">
        <ele>566.83</ele>
        <time>2016-03-20T11:18:04Z</time>
      </trkpt>
      <trkpt lat="45.30671" lon="4.63571">
        <ele>566.83</ele>
        <time>2016-03-20T11:18:21Z</time>
      </trkpt>
      <trkpt lat="45.30693" lon="4.63565">
        <ele>564.91</ele>
        <time>2016-03-20T11:18:38Z</time>
      </trkpt>
      <trkpt lat="45.30712" lon="4.63548">
        <ele>562.03</ele>
        <time>2016-03-20T11:18:55Z</time>
      </trkpt>
      <trkpt lat="45.30727" lon="4.63522">
        <ele>558.18</ele>
        <time>2016-03-20T11:19:13Z</time>
      </trkpt>
      <trkpt lat="45.30737" lon="4.63515">
        <ele>556.26</ele>
        <time>2016-03-20T11:19:28Z</time>
      </trkpt>
      <trkpt lat="45.30758" lon="4.63508">
        <ele>554.82</ele>
        <time>2016-03-20T11:19:46Z</time>
      </trkpt>
      <trkpt lat="45.30769" lon="4.63516">
        <ele>550.49</ele>
        <time>2016-03-20T11:20:07Z</time>
      </trkpt>
      <trkpt lat="45.30787" lon="4.63527">
        <ele>546.17</ele>
        <time>2016-03-20T11:20:25Z</time>
      </trkpt>
      <trkpt lat="45.30794" lon="4.63528">
        <ele>545.69</ele>
        <time>2016-03-20T11:20:39Z</time>
      </trkpt>
      <trkpt lat="45.30797" lon="4.63526">
        <ele>545.69</ele>
        <time>2016-03-20T11:20:59Z</time>
      </trkpt>
      <trkpt lat="45.30803" lon="4.63533">
        <ele>543.28</ele>
        <time>2016-03-20T11:21:14Z</time>
      </trkpt>
      <trkpt lat="45.30809" lon="4.63539">
        <ele>542.32</ele>
        <time>2016-03-20T11:21:22Z</time>
      </trkpt>
      <trkpt lat="45.30814" lon="4.63544">
        <ele>541.36</ele>
        <time>2016-03-20T11:21:26Z</time>
      </trkpt>
      <trkpt lat="45.30831" lon="4.63549">
        <ele>537.03</ele>
        <time>2016-03-20T11:21:40Z</time>
      </trkpt>
      <trkpt lat="45.30847" lon="4.63561">
        <ele>533.67</ele>
        <time>2016-03-20T11:21:56Z</time>
      </trkpt>
      <trkpt lat="45.3085" lon="4.63565">
        <ele>532.23</ele>
        <time>2016-03-20T11:22:01Z</time>
      </trkpt>
      <trkpt lat="45.3086" lon="4.63587">
        <ele>528.38</ele>
        <time>2016-03-20T11:22:17Z</time>
      </trkpt>
      <trkpt lat="45.30869" lon="4.63598">
        <ele>525.98</ele>
        <time>2016-03-20T11:22:32Z</time>
      </trkpt>
      <trkpt lat="45.30874" lon="4.63605">
        <ele>525.5</ele>
        <time>2016-03-20T11:22:38Z</time>
      </trkpt>
      <trkpt lat="45.30873" lon="4.63621">
        <ele>523.58</ele>
        <time>2016-03-20T11:22:47Z</time>
      </trkpt>
      <trkpt lat="45.30876" lon="4.63648">
        <ele>516.85</ele>
        <time>2016-03-20T11:23:00Z</time>
      </trkpt>
      <trkpt lat="45.30886" lon="4.63656">
        <ele>513</ele>
        <time>2016-03-20T11:23:13Z</time>
      </trkpt>
      <trkpt lat="45.30888" lon="4.63656">
        <ele>512.52</ele>
        <time>2016-03-20T11:23:15Z</time>
      </trkpt>
      <trkpt lat="45.30908" lon="4.63652">
        <ele>510.12</ele>
        <time>2016-03-20T11:23:30Z</time>
      </trkpt>
      <trkpt lat="45.30924" lon="4.63645">
        <ele>509.16</ele>
        <time>2016-03-20T11:23:42Z</time>
      </trkpt>
      <trkpt lat="45.30945" lon="4.63638">
        <ele>509.64</ele>
        <time>2016-03-20T11:23:59Z</time>
      </trkpt>
      <trkpt lat="45.30961" lon="4.6364">
        <ele>509.16</ele>
        <time>2016-03-20T11:24:13Z</time>
      </trkpt>
      <trkpt lat="45.30971" lon="4.63651">
        <ele>507.71</ele>
        <time>2016-03-20T11:24:25Z</time>
      </trkpt>
      <trkpt lat="45.30981" lon="4.63674">
        <ele>506.27</ele>
        <time>2016-03-20T11:24:41Z</time>
      </trkpt>
      <trkpt lat="45.30975" lon="4.63683">
        <ele>505.79</ele>
        <time>2016-03-20T11:24:45Z</time>
      </trkpt>
      <trkpt lat="45.30952" lon="4.63702">
        <ele>505.31</ele>
        <time>2016-03-20T11:25:03Z</time>
      </trkpt>
      <trkpt lat="45.30941" lon="4.63705">
        <ele>503.39</ele>
        <time>2016-03-20T11:25:14Z</time>
      </trkpt>
      <trkpt lat="45.30927" lon="4.63711">
        <ele>504.83</ele>
        <time>2016-03-20T11:25:27Z</time>
      </trkpt>
      <trkpt lat="45.30912" lon="4.63724">
        <ele>504.83</ele>
        <time>2016-03-20T11:25:41Z</time>
      </trkpt>
      <trkpt lat="45.30906" lon="4.63731">
        <ele>504.83</ele>
        <time>2016-03-20T11:25:46Z</time>
      </trkpt>
      <trkpt lat="45.30893" lon="4.63763">
        <ele>500.98</ele>
        <time>2016-03-20T11:26:01Z</time>
      </trkpt>
      <trkpt lat="45.30884" lon="4.63784">
        <ele>501.95</ele>
        <time>2016-03-20T11:26:15Z</time>
      </trkpt>
      <trkpt lat="45.30884" lon="4.63786">
        <ele>502.43</ele>
        <time>2016-03-20T11:26:16Z</time>
      </trkpt>
      <trkpt lat="45.30875" lon="4.63813">
        <ele>503.39</ele>
        <time>2016-03-20T11:26:32Z</time>
      </trkpt>
      <trkpt lat="45.30866" lon="4.63831">
        <ele>506.27</ele>
        <time>2016-03-20T11:26:45Z</time>
      </trkpt>
      <trkpt lat="45.30852" lon="4.63847">
        <ele>511.08</ele>
        <time>2016-03-20T11:27:00Z</time>
      </trkpt>
      <trkpt lat="45.30835" lon="4.63863">
        <ele>514.44</ele>
        <time>2016-03-20T11:27:15Z</time>
      </trkpt>
      <trkpt lat="45.30824" lon="4.63873">
        <ele>514.92</ele>
        <time>2016-03-20T11:27:25Z</time>
      </trkpt>
      <trkpt lat="45.30807" lon="4.63882">
        <ele>514.44</ele>
        <time>2016-03-20T11:27:41Z</time>
      </trkpt>
      <trkpt lat="45.30806" lon="4.63883">
        <ele>513.96</ele>
        <time>2016-03-20T11:27:55Z</time>
      </trkpt>
      <trkpt lat="45.30806" lon="4.63887">
        <ele>513.48</ele>
        <time>2016-03-20T11:28:19Z</time>
      </trkpt>
      <trkpt lat="45.30806" lon="4.63888">
        <ele>513.48</ele>
        <time>2016-03-20T11:28:47Z</time>
      </trkpt>
      <trkpt lat="45.30806" lon="4.63888">
        <ele>514.44</ele>
        <time>2016-03-20T11:29:15Z</time>
      </trkpt>
      <trkpt lat="45.30806" lon="4.63887">
        <ele>513.96</ele>
        <time>2016-03-20T11:29:40Z</time>
      </trkpt>
      <trkpt lat="45.30806" lon="4.63887">
        <ele>513.48</ele>
        <time>2016-03-20T11:30:06Z</time>
      </trkpt>
      <trkpt lat="45.30805" lon="4.63887">
        <ele>513</ele>
        <time>2016-03-20T11:30:25Z</time>
      </trkpt>
      <trkpt lat="45.30805" lon="4.63887">
        <ele>513.48</ele>
        <time>2016-03-20T11:30:51Z</time>
      </trkpt>
      <trkpt lat="45.30805" lon="4.63888">
        <ele>513</ele>
        <time>2016-03-20T11:31:15Z</time>
      </trkpt>
      <trkpt lat="45.30804" lon="4.63887">
        <ele>512.52</ele>
        <time>2016-03-20T11:31:41Z</time>
      </trkpt>
      <trkpt lat="45.30804" lon="4.63886">
        <ele>511.56</ele>
        <time>2016-03-20T11:31:51Z</time>
      </trkpt>
      <trkpt lat="45.30803" lon="4.63886">
        <ele>511.56</ele>
        <time>2016-03-20T11:32:09Z</time>
      </trkpt>
      <trkpt lat="45.30803" lon="4.63888">
        <ele>512.04</ele>
        <time>2016-03-20T11:32:23Z</time>
      </trkpt>
      <trkpt lat="45.30801" lon="4.63888">
        <ele>511.08</ele>
        <time>2016-03-20T11:32:42Z</time>
      </trkpt>
      <trkpt lat="45.30799" lon="4.63891">
        <ele>510.12</ele>
        <time>2016-03-20T11:32:56Z</time>
      </trkpt>
      <trkpt lat="45.308" lon="4.63887">
        <ele>510.6</ele>
        <time>2016-03-20T11:33:05Z</time>
      </trkpt>
      <trkpt lat="45.30807" lon="4.6388">
        <ele>511.08</ele>
        <time>2016-03-20T11:33:17Z</time>
      </trkpt>
      <trkpt lat="45.30809" lon="4.6388">
        <ele>510.12</ele>
        <time>2016-03-20T11:33:30Z</time>
      </trkpt>
      <trkpt lat="45.30806" lon="4.63879">
        <ele>509.64</ele>
        <time>2016-03-20T11:33:49Z</time>
      </trkpt>
      <trkpt lat="45.30807" lon="4.63881">
        <ele>508.67</ele>
        <time>2016-03-20T11:34:03Z</time>
      </trkpt>
      <trkpt lat="45.30807" lon="4.63881">
        <ele>508.67</ele>
        <time>2016-03-20T11:34:09Z</time>
      </trkpt>
      <trkpt lat="45.30803" lon="4.63885">
        <ele>507.71</ele>
        <time>2016-03-20T11:34:21Z</time>
      </trkpt>
      <trkpt lat="45.30802" lon="4.63884">
        <ele>507.71</ele>
        <time>2016-03-20T11:34:43Z</time>
      </trkpt>
      <trkpt lat="45.30803" lon="4.63885">
        <ele>507.71</ele>
        <time>2016-03-20T11:35:03Z</time>
      </trkpt>
      <trkpt lat="45.30803" lon="4.63884">
        <ele>508.19</ele>
        <time>2016-03-20T11:35:29Z</time>
      </trkpt>
      <trkpt lat="45.30802" lon="4.63885">
        <ele>508.67</ele>
        <time>2016-03-20T11:35:47Z</time>
      </trkpt>
      <trkpt lat="45.30803" lon="4.63885">
        <ele>509.64</ele>
        <time>2016-03-20T11:36:12Z</time>
      </trkpt>
      <trkpt lat="45.30802" lon="4.63885">
        <ele>509.64</ele>
        <time>2016-03-20T11:36:36Z</time>
      </trkpt>
      <trkpt lat="45.30802" lon="4.63885">
        <ele>510.12</ele>
        <time>2016-03-20T11:37:05Z</time>
      </trkpt>
      <trkpt lat="45.30802" lon="4.63885">
        <ele>509.64</ele>
        <time>2016-03-20T11:37:30Z</time>
      </trkpt>
      <trkpt lat="45.30803" lon="4.63885">
        <ele>509.16</ele>
        <time>2016-03-20T11:38:00Z</time>
      </trkpt>
      <trkpt lat="45.30803" lon="4.63884">
        <ele>509.16</ele>
        <time>2016-03-20T11:38:25Z</time>
      </trkpt>
      <trkpt lat="45.30802" lon="4.63884">
        <ele>508.67</ele>
        <time>2016-03-20T11:38:49Z</time>
      </trkpt>
      <trkpt lat="45.30802" lon="4.63883">
        <ele>508.19</ele>
        <time>2016-03-20T11:39:15Z</time>
      </trkpt>
      <trkpt lat="45.30803" lon="4.6388">
        <ele>506.75</ele>
        <time>2016-03-20T11:39:38Z</time>
      </trkpt>
      <trkpt lat="45.30802" lon="4.6388">
        <ele>505.31</ele>
        <time>2016-03-20T11:40:05Z</time>
      </trkpt>
      <trkpt lat="45.30801" lon="4.63882">
        <ele>503.87</ele>
        <time>2016-03-20T11:40:33Z</time>
      </trkpt>
      <trkpt lat="45.30803" lon="4.63884">
        <ele>504.35</ele>
        <time>2016-03-20T11:40:56Z</time>
      </trkpt>
      <trkpt lat="45.30803" lon="4.63883">
        <ele>504.35</ele>
        <time>2016-03-20T11:41:25Z</time>
      </trkpt>
      <trkpt lat="45.30803" lon="4.63883">
        <ele>504.83</ele>
        <time>2016-03-20T11:41:51Z</time>
      </trkpt>
      <trkpt lat="45.30802" lon="4.63882">
        <ele>504.83</ele>
        <time>2016-03-20T11:42:18Z</time>
      </trkpt>
      <trkpt lat="45.30803" lon="4.63881">
        <ele>504.83</ele>
        <time>2016-03-20T11:42:44Z</time>
      </trkpt>
      <trkpt lat="45.30803" lon="4.63882">
        <ele>504.83</ele>
        <time>2016-03-20T11:43:03Z</time>
      </trkpt>
      <trkpt lat="45.30803" lon="4.63883">
        <ele>504.83</ele>
        <time>2016-03-20T11:43:25Z</time>
      </trkpt>
      <trkpt lat="45.30804" lon="4.63885">
        <ele>504.35</ele>
        <time>2016-03-20T11:43:46Z</time>
      </trkpt>
      <trkpt lat="45.30804" lon="4.63885">
        <ele>504.83</ele>
        <time>2016-03-20T11:44:11Z</time>
      </trkpt>
      <trkpt lat="45.30803" lon="4.63885">
        <ele>504.83</ele>
        <time>2016-03-20T11:44:36Z</time>
      </trkpt>
      <trkpt lat="45.30803" lon="4.63885">
        <ele>505.31</ele>
        <time>2016-03-20T11:45:02Z</time>
      </trkpt>
      <trkpt lat="45.30803" lon="4.63885">
        <ele>505.31</ele>
        <time>2016-03-20T11:45:29Z</time>
      </trkpt>
      <trkpt lat="45.30803" lon="4.63884">
        <ele>505.31</ele>
        <time>2016-03-20T11:45:59Z</time>
      </trkpt>
      <trkpt lat="45.30803" lon="4.63884">
        <ele>505.79</ele>
        <time>2016-03-20T11:46:23Z</time>
      </trkpt>
      <trkpt lat="45.30803" lon="4.63884">
        <ele>506.27</ele>
        <time>2016-03-20T11:46:47Z</time>
      </trkpt>
      <trkpt lat="45.30803" lon="4.63884">
        <ele>506.75</ele>
        <time>2016-03-20T11:47:06Z</time>
      </trkpt>
      <trkpt lat="45.30803" lon="4.63884">
        <ele>506.75</ele>
        <time>2016-03-20T11:47:26Z</time>
      </trkpt>
      <trkpt lat="45.30803" lon="4.63884">
        <ele>507.23</ele>
        <time>2016-03-20T11:47:56Z</time>
      </trkpt>
      <trkpt lat="45.30803" lon="4.63885">
        <ele>508.19</ele>
        <time>2016-03-20T11:48:26Z</time>
      </trkpt>
      <trkpt lat="45.30804" lon="4.63885">
        <ele>508.19</ele>
        <time>2016-03-20T11:48:48Z</time>
      </trkpt>
      <trkpt lat="45.30804" lon="4.63884">
        <ele>509.16</ele>
        <time>2016-03-20T11:49:06Z</time>
      </trkpt>
      <trkpt lat="45.30805" lon="4.63885">
        <ele>509.16</ele>
        <time>2016-03-20T11:49:25Z</time>
      </trkpt>
      <trkpt lat="45.30805" lon="4.63885">
        <ele>509.16</ele>
        <time>2016-03-20T11:49:53Z</time>
      </trkpt>
      <trkpt lat="45.30805" lon="4.63885">
        <ele>509.16</ele>
        <time>2016-03-20T11:49:55Z</time>
      </trkpt>
      <trkpt lat="45.30803" lon="4.63883">
        <ele>509.16</ele>
        <time>2016-03-20T11:50:07Z</time>
      </trkpt>
      <trkpt lat="45.30801" lon="4.63887">
        <ele>509.16</ele>
        <time>2016-03-20T11:50:30Z</time>
      </trkpt>
      <trkpt lat="45.308" lon="4.63888">
        <ele>508.67</ele>
        <time>2016-03-20T11:50:47Z</time>
      </trkpt>
      <trkpt lat="45.30799" lon="4.63887">
        <ele>508.19</ele>
        <time>2016-03-20T11:51:07Z</time>
      </trkpt>
      <trkpt lat="45.30805" lon="4.6388">
        <ele>507.23</ele>
        <time>2016-03-20T11:51:21Z</time>
      </trkpt>
      <trkpt lat="45.30804" lon="4.63882">
        <ele>507.23</ele>
        <time>2016-03-20T11:51:42Z</time>
      </trkpt>
      <trkpt lat="45.30804" lon="4.63882">
        <ele>508.19</ele>
        <time>2016-03-20T11:52:06Z</time>
      </trkpt>
      <trkpt lat="45.30804" lon="4.63882">
        <ele>507.71</ele>
        <time>2016-03-20T11:52:33Z</time>
      </trkpt>
      <trkpt lat="45.30804" lon="4.63882">
        <ele>507.23</ele>
        <time>2016-03-20T11:53:03Z</time>
      </trkpt>
      <trkpt lat="45.30804" lon="4.63882">
        <ele>507.23</ele>
        <time>2016-03-20T11:53:33Z</time>
      </trkpt>
      <trkpt lat="45.30804" lon="4.63882">
        <ele>507.23</ele>
        <time>2016-03-20T11:53:56Z</time>
      </trkpt>
      <trkpt lat="45.30803" lon="4.63883">
        <ele>507.23</ele>
        <time>2016-03-20T11:54:17Z</time>
      </trkpt>
      <trkpt lat="45.30803" lon="4.63883">
        <ele>507.23</ele>
        <time>2016-03-20T11:54:37Z</time>
      </trkpt>
      <trkpt lat="45.30804" lon="4.63884">
        <ele>507.71</ele>
        <time>2016-03-20T11:55:01Z</time>
      </trkpt>
      <trkpt lat="45.30804" lon="4.63883">
        <ele>508.19</ele>
        <time>2016-03-20T11:55:25Z</time>
      </trkpt>
      <trkpt lat="45.30804" lon="4.63884">
        <ele>508.67</ele>
        <time>2016-03-20T11:55:47Z</time>
      </trkpt>
      <trkpt lat="45.30804" lon="4.63884">
        <ele>509.16</ele>
        <time>2016-03-20T11:56:09Z</time>
      </trkpt>
      <trkpt lat="45.30805" lon="4.63884">
        <ele>508.67</ele>
        <time>2016-03-20T11:56:30Z</time>
      </trkpt>
      <trkpt lat="45.30805" lon="4.63884">
        <ele>508.67</ele>
        <time>2016-03-20T11:56:58Z</time>
      </trkpt>
      <trkpt lat="45.30805" lon="4.63884">
        <ele>508.19</ele>
        <time>2016-03-20T11:57:27Z</time>
      </trkpt>
      <trkpt lat="45.30804" lon="4.63884">
        <ele>508.19</ele>
        <time>2016-03-20T11:57:52Z</time>
      </trkpt>
      <trkpt lat="45.30804" lon="4.63884">
        <ele>508.19</ele>
        <time>2016-03-20T11:58:21Z</time>
      </trkpt>
      <trkpt lat="45.30805" lon="4.63905">
        <ele>508.19</ele>
        <time>2016-03-20T11:58:39Z</time>
      </trkpt>
      <trkpt lat="45.30798" lon="4.63888">
        <ele>512.04</ele>
        <time>2016-03-20T11:58:55Z</time>
      </trkpt>
      <trkpt lat="45.30801" lon="4.63892">
        <ele>510.12</ele>
        <time>2016-03-20T11:59:10Z</time>
      </trkpt>
      <trkpt lat="45.30802" lon="4.63892">
        <ele>509.16</ele>
        <time>2016-03-20T11:59:26Z</time>
      </trkpt>
      <trkpt lat="45.30803" lon="4.63892">
        <ele>508.67</ele>
        <time>2016-03-20T11:59:45Z</time>
      </trkpt>
      <trkpt lat="45.30802" lon="4.63891">
        <ele>509.16</ele>
        <time>2016-03-20T12:00:09Z</time>
      </trkpt>
      <trkpt lat="45.30804" lon="4.63891">
        <ele>510.6</ele>
        <time>2016-03-20T12:00:34Z</time>
      </trkpt>
      <trkpt lat="45.30804" lon="4.6389">
        <ele>511.08</ele>
        <time>2016-03-20T12:01:03Z</time>
      </trkpt>
      <trkpt lat="45.30803" lon="4.63889">
        <ele>512.52</ele>
        <time>2016-03-20T12:01:29Z</time>
      </trkpt>
      <trkpt lat="45.30802" lon="4.63888">
        <ele>512.04</ele>
        <time>2016-03-20T12:01:50Z</time>
      </trkpt>
      <trkpt lat="45.30802" lon="4.63884">
        <ele>512.52</ele>
        <time>2016-03-20T12:02:05Z</time>
      </trkpt>
      <trkpt lat="45.30803" lon="4.63884">
        <ele>512.52</ele>
        <time>2016-03-20T12:02:25Z</time>
      </trkpt>
      <trkpt lat="45.30804" lon="4.63885">
        <ele>512.04</ele>
        <time>2016-03-20T12:02:43Z</time>
      </trkpt>
      <trkpt lat="45.30804" lon="4.63885">
        <ele>512.04</ele>
        <time>2016-03-20T12:03:01Z</time>
      </trkpt>
      <trkpt lat="45.30804" lon="4.63886">
        <ele>511.56</ele>
        <time>2016-03-20T12:03:21Z</time>
      </trkpt>
      <trkpt lat="45.30806" lon="4.63888">
        <ele>511.08</ele>
        <time>2016-03-20T12:03:41Z</time>
      </trkpt>
      <trkpt lat="45.30805" lon="4.63886">
        <ele>511.08</ele>
        <time>2016-03-20T12:03:58Z</time>
      </trkpt>
      <trkpt lat="45.30806" lon="4.63886">
        <ele>510.6</ele>
        <time>2016-03-20T12:04:13Z</time>
      </trkpt>
      <trkpt lat="45.30805" lon="4.63886">
        <ele>511.08</ele>
        <time>2016-03-20T12:04:34Z</time>
      </trkpt>
      <trkpt lat="45.30805" lon="4.63886">
        <ele>511.56</ele>
        <time>2016-03-20T12:04:54Z</time>
      </trkpt>
      <trkpt lat="45.30805" lon="4.63886">
        <ele>511.56</ele>
        <time>2016-03-20T12:05:14Z</time>
      </trkpt>
      <trkpt lat="45.30805" lon="4.63886">
        <ele>511.08</ele>
        <time>2016-03-20T12:05:35Z</time>
      </trkpt>
      <trkpt lat="45.30804" lon="4.63884">
        <ele>510.12</ele>
        <time>2016-03-20T12:06:03Z</time>
      </trkpt>
      <trkpt lat="45.30804" lon="4.63886">
        <ele>511.08</ele>
        <time>2016-03-20T12:06:27Z</time>
      </trkpt>
      <trkpt lat="45.30803" lon="4.63887">
        <ele>510.12</ele>
        <time>2016-03-20T12:06:49Z</time>
      </trkpt>
      <trkpt lat="45.30803" lon="4.63886">
        <ele>510.6</ele>
        <time>2016-03-20T12:07:11Z</time>
      </trkpt>
      <trkpt lat="45.30804" lon="4.63888">
        <ele>509.16</ele>
        <time>2016-03-20T12:07:32Z</time>
      </trkpt>
      <trkpt lat="45.30804" lon="4.63888">
        <ele>509.16</ele>
        <time>2016-03-20T12:07:53Z</time>
      </trkpt>
      <trkpt lat="45.30805" lon="4.63888">
        <ele>509.64</ele>
        <time>2016-03-20T12:08:16Z</time>
      </trkpt>
      <trkpt lat="45.30805" lon="4.63887">
        <ele>509.16</ele>
        <time>2016-03-20T12:08:33Z</time>
      </trkpt>
      <trkpt lat="45.30813" lon="4.63885">
        <ele>508.19</ele>
        <time>2016-03-20T12:08:41Z</time>
      </trkpt>
      <trkpt lat="45.3083" lon="4.63872">
        <ele>507.23</ele>
        <time>2016-03-20T12:08:56Z</time>
      </trkpt>
      <trkpt lat="45.30844" lon="4.63858">
        <ele>507.23</ele>
        <time>2016-03-20T12:09:11Z</time>
      </trkpt>
      <trkpt lat="45.30847" lon="4.63854">
        <ele>507.23</ele>
        <time>2016-03-20T12:09:14Z</time>
      </trkpt>
      <trkpt lat="45.30859" lon="4.63845">
        <ele>508.67</ele>
        <time>2016-03-20T12:09:28Z</time>
      </trkpt>
      <trkpt lat="45.30874" lon="4.63823">
        <ele>510.12</ele>
        <time>2016-03-20T12:09:44Z</time>
      </trkpt>
      <trkpt lat="45.30887" lon="4.63795">
        <ele>513</ele>
        <time>2016-03-20T12:10:01Z</time>
      </trkpt>
      <trkpt lat="45.30896" lon="4.63771">
        <ele>513.96</ele>
        <time>2016-03-20T12:10:16Z</time>
      </trkpt>
      <trkpt lat="45.30901" lon="4.63749">
        <ele>514.44</ele>
        <time>2016-03-20T12:10:31Z</time>
      </trkpt>
      <trkpt lat="45.30911" lon="4.63722">
        <ele>513.48</ele>
        <time>2016-03-20T12:10:48Z</time>
      </trkpt>
      <trkpt lat="45.30924" lon="4.63716">
        <ele>513</ele>
        <time>2016-03-20T12:11:02Z</time>
      </trkpt>
      <trkpt lat="45.30946" lon="4.63705">
        <ele>512.52</ele>
        <time>2016-03-20T12:11:23Z</time>
      </trkpt>
      <trkpt lat="45.30974" lon="4.6369">
        <ele>513</ele>
        <time>2016-03-20T12:11:43Z</time>
      </trkpt>
      <trkpt lat="45.30981" lon="4.63684">
        <ele>513.48</ele>
        <time>2016-03-20T12:11:47Z</time>
      </trkpt>
      <trkpt lat="45.30981" lon="4.63661">
        <ele>513.96</ele>
        <time>2016-03-20T12:12:04Z</time>
      </trkpt>
      <trkpt lat="45.30979" lon="4.63657">
        <ele>513.48</ele>
        <time>2016-03-20T12:12:07Z</time>
      </trkpt>
      <trkpt lat="45.30962" lon="4.63639">
        <ele>512.52</ele>
        <time>2016-03-20T12:12:21Z</time>
      </trkpt>
      <trkpt lat="45.30939" lon="4.63638">
        <ele>511.56</ele>
        <time>2016-03-20T12:12:37Z</time>
      </trkpt>
      <trkpt lat="45.30913" lon="4.63648">
        <ele>509.16</ele>
        <time>2016-03-20T12:12:59Z</time>
      </trkpt>
      <trkpt lat="45.30889" lon="4.63653">
        <ele>507.23</ele>
        <time>2016-03-20T12:13:18Z</time>
      </trkpt>
      <trkpt lat="45.30866" lon="4.63658">
        <ele>507.23</ele>
        <time>2016-03-20T12:13:34Z</time>
      </trkpt>
      <trkpt lat="45.30848" lon="4.63669">
        <ele>505.79</ele>
        <time>2016-03-20T12:13:52Z</time>
      </trkpt>
      <trkpt lat="45.30829" lon="4.63678">
        <ele>504.83</ele>
        <time>2016-03-20T12:14:07Z</time>
      </trkpt>
      <trkpt lat="45.30799" lon="4.63692">
        <ele>504.83</ele>
        <time>2016-03-20T12:14:29Z</time>
      </trkpt>
      <trkpt lat="45.30768" lon="4.63702">
        <ele>502.43</ele>
        <time>2016-03-20T12:14:51Z</time>
      </trkpt>
      <trkpt lat="45.30743" lon="4.63719">
        <ele>503.39</ele>
        <time>2016-03-20T12:15:11Z</time>
      </trkpt>
      <trkpt lat="45.30722" lon="4.6374">
        <ele>502.91</ele>
        <time>2016-03-20T12:15:29Z</time>
      </trkpt>
      <trkpt lat="45.30713" lon="4.6375">
        <ele>504.83</ele>
        <time>2016-03-20T12:15:38Z</time>
      </trkpt>
      <trkpt lat="45.30696" lon="4.63771">
        <ele>504.83</ele>
        <time>2016-03-20T12:15:55Z</time>
      </trkpt>
      <trkpt lat="45.30676" lon="4.63791">
        <ele>503.39</ele>
        <time>2016-03-20T12:16:10Z</time>
      </trkpt>
      <trkpt lat="45.30659" lon="4.63803">
        <ele>503.87</ele>
        <time>2016-03-20T12:16:26Z</time>
      </trkpt>
      <trkpt lat="45.30657" lon="4.63803">
        <ele>503.39</ele>
        <time>2016-03-20T12:16:27Z</time>
      </trkpt>
      <trkpt lat="45.30631" lon="4.63824">
        <ele>501.95</ele>
        <time>2016-03-20T12:16:47Z</time>
      </trkpt>
      <trkpt lat="45.30607" lon="4.63841">
        <ele>502.91</ele>
        <time>2016-03-20T12:17:07Z</time>
      </trkpt>
      <trkpt lat="45.30587" lon="4.63848">
        <ele>503.87</ele>
        <time>2016-03-20T12:17:26Z</time>
      </trkpt>
      <trkpt lat="45.30564" lon="4.63851">
        <ele>503.39</ele>
        <time>2016-03-20T12:17:41Z</time>
      </trkpt>
      <trkpt lat="45.30533" lon="4.63853">
        <ele>505.79</ele>
        <time>2016-03-20T12:18:02Z</time>
      </trkpt>
      <trkpt lat="45.30512" lon="4.63857">
        <ele>505.79</ele>
        <time>2016-03-20T12:18:18Z</time>
      </trkpt>
      <trkpt lat="45.30504" lon="4.63865">
        <ele>505.31</ele>
        <time>2016-03-20T12:18:26Z</time>
      </trkpt>
      <trkpt lat="45.30473" lon="4.63883">
        <ele>506.27</ele>
        <time>2016-03-20T12:18:46Z</time>
      </trkpt>
      <trkpt lat="45.30455" lon="4.63899">
        <ele>504.83</ele>
        <time>2016-03-20T12:19:01Z</time>
      </trkpt>
      <trkpt lat="45.30437" lon="4.63911">
        <ele>504.83</ele>
        <time>2016-03-20T12:19:17Z</time>
      </trkpt>
      <trkpt lat="45.30418" lon="4.63924">
        <ele>505.79</ele>
        <time>2016-03-20T12:19:31Z</time>
      </trkpt>
      <trkpt lat="45.30398" lon="4.63936">
        <ele>502.91</ele>
        <time>2016-03-20T12:19:48Z</time>
      </trkpt>
      <trkpt lat="45.30382" lon="4.63947">
        <ele>503.39</ele>
        <time>2016-03-20T12:20:02Z</time>
      </trkpt>
      <trkpt lat="45.30361" lon="4.63962">
        <ele>508.19</ele>
        <time>2016-03-20T12:20:20Z</time>
      </trkpt>
      <trkpt lat="45.30341" lon="4.63979">
        <ele>508.19</ele>
        <time>2016-03-20T12:20:36Z</time>
      </trkpt>
      <trkpt lat="45.30332" lon="4.63988">
        <ele>507.71</ele>
        <time>2016-03-20T12:20:46Z</time>
      </trkpt>
      <trkpt lat="45.30311" lon="4.64006">
        <ele>507.23</ele>
        <time>2016-03-20T12:21:05Z</time>
      </trkpt>
      <trkpt lat="45.30295" lon="4.64017">
        <ele>509.16</ele>
        <time>2016-03-20T12:21:20Z</time>
      </trkpt>
      <trkpt lat="45.30277" lon="4.64014">
        <ele>511.08</ele>
        <time>2016-03-20T12:21:35Z</time>
      </trkpt>
      <trkpt lat="45.30269" lon="4.64012">
        <ele>512.04</ele>
        <time>2016-03-20T12:21:42Z</time>
      </trkpt>
      <trkpt lat="45.30253" lon="4.64002">
        <ele>516.37</ele>
        <time>2016-03-20T12:21:58Z</time>
      </trkpt>
      <trkpt lat="45.30238" lon="4.63987">
        <ele>523.58</ele>
        <time>2016-03-20T12:22:15Z</time>
      </trkpt>
      <trkpt lat="45.30222" lon="4.63969">
        <ele>528.38</ele>
        <time>2016-03-20T12:22:31Z</time>
      </trkpt>
      <trkpt lat="45.30208" lon="4.63948">
        <ele>531.27</ele>
        <time>2016-03-20T12:22:46Z</time>
      </trkpt>
      <trkpt lat="45.30202" lon="4.63936">
        <ele>533.67</ele>
        <time>2016-03-20T12:22:58Z</time>
      </trkpt>
      <trkpt lat="45.30201" lon="4.63935">
        <ele>533.67</ele>
        <time>2016-03-20T12:22:59Z</time>
      </trkpt>
      <trkpt lat="45.30188" lon="4.63944">
        <ele>535.59</ele>
        <time>2016-03-20T12:23:13Z</time>
      </trkpt>
      <trkpt lat="45.30169" lon="4.63952">
        <ele>535.11</ele>
        <time>2016-03-20T12:23:29Z</time>
      </trkpt>
      <trkpt lat="45.30149" lon="4.63956">
        <ele>533.19</ele>
        <time>2016-03-20T12:23:46Z</time>
      </trkpt>
      <trkpt lat="45.30126" lon="4.63957">
        <ele>529.34</ele>
        <time>2016-03-20T12:24:03Z</time>
      </trkpt>
      <trkpt lat="45.30108" lon="4.63954">
        <ele>525.98</ele>
        <time>2016-03-20T12:24:17Z</time>
      </trkpt>
      <trkpt lat="45.30089" lon="4.63943">
        <ele>524.06</ele>
        <time>2016-03-20T12:24:31Z</time>
      </trkpt>
      <trkpt lat="45.30068" lon="4.63934">
        <ele>525.02</ele>
        <time>2016-03-20T12:24:48Z</time>
      </trkpt>
      <trkpt lat="45.30045" lon="4.6393">
        <ele>526.94</ele>
        <time>2016-03-20T12:25:04Z</time>
      </trkpt>
      <trkpt lat="45.30024" lon="4.63931">
        <ele>527.42</ele>
        <time>2016-03-20T12:25:19Z</time>
      </trkpt>
      <trkpt lat="45.30004" lon="4.63933">
        <ele>529.34</ele>
        <time>2016-03-20T12:25:35Z</time>
      </trkpt>
      <trkpt lat="45.29982" lon="4.63933">
        <ele>531.75</ele>
        <time>2016-03-20T12:25:52Z</time>
      </trkpt>
      <trkpt lat="45.29967" lon="4.63933">
        <ele>531.75</ele>
        <time>2016-03-20T12:26:04Z</time>
      </trkpt>
      <trkpt lat="45.2995" lon="4.63934">
        <ele>533.19</ele>
        <time>2016-03-20T12:26:18Z</time>
      </trkpt>
      <trkpt lat="45.29932" lon="4.63934">
        <ele>536.07</ele>
        <time>2016-03-20T12:26:32Z</time>
      </trkpt>
      <trkpt lat="45.29921" lon="4.63933">
        <ele>538.96</ele>
        <time>2016-03-20T12:26:46Z</time>
      </trkpt>
      <trkpt lat="45.29917" lon="4.63931">
        <ele>538.48</ele>
        <time>2016-03-20T12:27:00Z</time>
      </trkpt>
      <trkpt lat="45.29905" lon="4.63927">
        <ele>538.48</ele>
        <time>2016-03-20T12:27:17Z</time>
      </trkpt>
      <trkpt lat="45.29903" lon="4.63927">
        <ele>537.99</ele>
        <time>2016-03-20T12:27:30Z</time>
      </trkpt>
      <trkpt lat="45.29902" lon="4.63927">
        <ele>537.51</ele>
        <time>2016-03-20T12:27:48Z</time>
      </trkpt>
      <trkpt lat="45.29901" lon="4.63926">
        <ele>537.51</ele>
        <time>2016-03-20T12:28:05Z</time>
      </trkpt>
      <trkpt lat="45.29901" lon="4.63925">
        <ele>537.99</ele>
        <time>2016-03-20T12:28:27Z</time>
      </trkpt>
      <trkpt lat="45.29898" lon="4.63921">
        <ele>537.99</ele>
        <time>2016-03-20T12:28:32Z</time>
      </trkpt>
      <trkpt lat="45.29875" lon="4.63903">
        <ele>538.48</ele>
        <time>2016-03-20T12:28:49Z</time>
      </trkpt>
      <trkpt lat="45.29853" lon="4.63888">
        <ele>539.44</ele>
        <time>2016-03-20T12:29:04Z</time>
      </trkpt>
      <trkpt lat="45.29836" lon="4.63876">
        <ele>538.96</ele>
        <time>2016-03-20T12:29:18Z</time>
      </trkpt>
      <trkpt lat="45.29814" lon="4.63854">
        <ele>539.44</ele>
        <time>2016-03-20T12:29:38Z</time>
      </trkpt>
      <trkpt lat="45.29794" lon="4.63835">
        <ele>539.92</ele>
        <time>2016-03-20T12:29:56Z</time>
      </trkpt>
      <trkpt lat="45.29778" lon="4.63818">
        <ele>540.4</ele>
        <time>2016-03-20T12:30:10Z</time>
      </trkpt>
      <trkpt lat="45.29775" lon="4.63812">
        <ele>540.4</ele>
        <time>2016-03-20T12:30:15Z</time>
      </trkpt>
      <trkpt lat="45.29769" lon="4.63807">
        <ele>540.4</ele>
        <time>2016-03-20T12:30:20Z</time>
      </trkpt>
      <trkpt lat="45.29746" lon="4.63788">
        <ele>542.32</ele>
        <time>2016-03-20T12:30:38Z</time>
      </trkpt>
      <trkpt lat="45.29728" lon="4.63771">
        <ele>543.76</ele>
        <time>2016-03-20T12:30:54Z</time>
      </trkpt>
      <trkpt lat="45.29714" lon="4.63755">
        <ele>545.2</ele>
        <time>2016-03-20T12:31:09Z</time>
      </trkpt>
      <trkpt lat="45.29708" lon="4.63747">
        <ele>546.17</ele>
        <time>2016-03-20T12:31:15Z</time>
      </trkpt>
      <trkpt lat="45.29695" lon="4.63733">
        <ele>548.09</ele>
        <time>2016-03-20T12:31:31Z</time>
      </trkpt>
      <trkpt lat="45.29694" lon="4.63733">
        <ele>547.61</ele>
        <time>2016-03-20T12:31:50Z</time>
      </trkpt>
      <trkpt lat="45.29692" lon="4.63737">
        <ele>546.65</ele>
        <time>2016-03-20T12:31:56Z</time>
      </trkpt>
      <trkpt lat="45.29673" lon="4.63752">
        <ele>544.72</ele>
        <time>2016-03-20T12:32:15Z</time>
      </trkpt>
      <trkpt lat="45.29657" lon="4.63765">
        <ele>543.76</ele>
        <time>2016-03-20T12:32:29Z</time>
      </trkpt>
      <trkpt lat="45.29636" lon="4.63782">
        <ele>544.24</ele>
        <time>2016-03-20T12:32:46Z</time>
      </trkpt>
      <trkpt lat="45.29619" lon="4.63794">
        <ele>546.65</ele>
        <time>2016-03-20T12:33:01Z</time>
      </trkpt>
      <trkpt lat="45.29598" lon="4.63808">
        <ele>548.57</ele>
        <time>2016-03-20T12:33:18Z</time>
      </trkpt>
      <trkpt lat="45.29578" lon="4.63821">
        <ele>552.9</ele>
        <time>2016-03-20T12:33:34Z</time>
      </trkpt>
      <trkpt lat="45.29559" lon="4.63831">
        <ele>553.86</ele>
        <time>2016-03-20T12:33:49Z</time>
      </trkpt>
      <trkpt lat="45.29556" lon="4.63832">
        <ele>552.9</ele>
        <time>2016-03-20T12:33:51Z</time>
      </trkpt>
      <trkpt lat="45.29535" lon="4.6384">
        <ele>549.53</ele>
        <time>2016-03-20T12:34:08Z</time>
      </trkpt>
      <trkpt lat="45.2953" lon="4.63842">
        <ele>549.05</ele>
        <time>2016-03-20T12:34:11Z</time>
      </trkpt>
      <trkpt lat="45.2951" lon="4.63853">
        <ele>550.01</ele>
        <time>2016-03-20T12:34:30Z</time>
      </trkpt>
      <trkpt lat="45.29492" lon="4.63869">
        <ele>549.05</ele>
        <time>2016-03-20T12:34:45Z</time>
      </trkpt>
      <trkpt lat="45.29477" lon="4.63884">
        <ele>550.49</ele>
        <time>2016-03-20T12:34:56Z</time>
      </trkpt>
      <trkpt lat="45.29456" lon="4.63897">
        <ele>551.45</ele>
        <time>2016-03-20T12:35:10Z</time>
      </trkpt>
      <trkpt lat="45.29439" lon="4.63905">
        <ele>551.45</ele>
        <time>2016-03-20T12:35:22Z</time>
      </trkpt>
      <trkpt lat="45.29425" lon="4.63913">
        <ele>549.05</ele>
        <time>2016-03-20T12:35:34Z</time>
      </trkpt>
      <trkpt lat="45.294" lon="4.63918">
        <ele>548.57</ele>
        <time>2016-03-20T12:35:50Z</time>
      </trkpt>
      <trkpt lat="45.2939" lon="4.63918">
        <ele>549.05</ele>
        <time>2016-03-20T12:35:56Z</time>
      </trkpt>
      <trkpt lat="45.29383" lon="4.63915">
        <ele>549.53</ele>
        <time>2016-03-20T12:36:01Z</time>
      </trkpt>
      <trkpt lat="45.29373" lon="4.63911">
        <ele>551.45</ele>
        <time>2016-03-20T12:36:08Z</time>
      </trkpt>
      <trkpt lat="45.29357" lon="4.63899">
        <ele>548.57</ele>
        <time>2016-03-20T12:36:21Z</time>
      </trkpt>
      <trkpt lat="45.29341" lon="4.63885">
        <ele>547.13</ele>
        <time>2016-03-20T12:36:34Z</time>
      </trkpt>
      <trkpt lat="45.29322" lon="4.63869">
        <ele>543.76</ele>
        <time>2016-03-20T12:36:49Z</time>
      </trkpt>
      <trkpt lat="45.29312" lon="4.63858">
        <ele>541.36</ele>
        <time>2016-03-20T12:36:57Z</time>
      </trkpt>
      <trkpt lat="45.29295" lon="4.63838">
        <ele>536.55</ele>
        <time>2016-03-20T12:37:13Z</time>
      </trkpt>
      <trkpt lat="45.29279" lon="4.63819">
        <ele>533.67</ele>
        <time>2016-03-20T12:37:28Z</time>
      </trkpt>
      <trkpt lat="45.29276" lon="4.63815">
        <ele>532.23</ele>
        <time>2016-03-20T12:37:31Z</time>
      </trkpt>
      <trkpt lat="45.29271" lon="4.6381">
        <ele>531.75</ele>
        <time>2016-03-20T12:37:35Z</time>
      </trkpt>
      <trkpt lat="45.29267" lon="4.63806">
        <ele>530.79</ele>
        <time>2016-03-20T12:37:38Z</time>
      </trkpt>
      <trkpt lat="45.29251" lon="4.63794">
        <ele>527.9</ele>
        <time>2016-03-20T12:37:49Z</time>
      </trkpt>
      <trkpt lat="45.29232" lon="4.63783">
        <ele>525.98</ele>
        <time>2016-03-20T12:38:02Z</time>
      </trkpt>
      <trkpt lat="45.29214" lon="4.63772">
        <ele>523.09</ele>
        <time>2016-03-20T12:38:15Z</time>
      </trkpt>
      <trkpt lat="45.29197" lon="4.63755">
        <ele>517.33</ele>
        <time>2016-03-20T12:38:29Z</time>
      </trkpt>
      <trkpt lat="45.29192" lon="4.63752">
        <ele>516.37</ele>
        <time>2016-03-20T12:38:33Z</time>
      </trkpt>
      <trkpt lat="45.29171" lon="4.63735">
        <ele>513.48</ele>
        <time>2016-03-20T12:38:48Z</time>
      </trkpt>
      <trkpt lat="45.29166" lon="4.63732">
        <ele>513</ele>
        <time>2016-03-20T12:38:51Z</time>
      </trkpt>
      <trkpt lat="45.29149" lon="4.63723">
        <ele>509.16</ele>
        <time>2016-03-20T12:39:04Z</time>
      </trkpt>
      <trkpt lat="45.29133" lon="4.63714">
        <ele>506.27</ele>
        <time>2016-03-20T12:39:16Z</time>
      </trkpt>
      <trkpt lat="45.29114" lon="4.63697">
        <ele>504.83</ele>
        <time>2016-03-20T12:39:29Z</time>
      </trkpt>
      <trkpt lat="45.29109" lon="4.63693">
        <ele>504.35</ele>
        <time>2016-03-20T12:39:33Z</time>
      </trkpt>
      <trkpt lat="45.29104" lon="4.63686">
        <ele>503.87</ele>
        <time>2016-03-20T12:39:38Z</time>
      </trkpt>
      <trkpt lat="45.29085" lon="4.63666">
        <ele>503.39</ele>
        <time>2016-03-20T12:39:53Z</time>
      </trkpt>
      <trkpt lat="45.29079" lon="4.63659">
        <ele>502.91</ele>
        <time>2016-03-20T12:39:57Z</time>
      </trkpt>
      <trkpt lat="45.29081" lon="4.63651">
        <ele>502.43</ele>
        <time>2016-03-20T12:40:01Z</time>
      </trkpt>
      <trkpt lat="45.29085" lon="4.63645">
        <ele>501.95</ele>
        <time>2016-03-20T12:40:18Z</time>
      </trkpt>
      <trkpt lat="45.29086" lon="4.63644">
        <ele>502.43</ele>
        <time>2016-03-20T12:40:44Z</time>
      </trkpt>
      <trkpt lat="45.29086" lon="4.63643">
        <ele>502.43</ele>
        <time>2016-03-20T12:41:03Z</time>
      </trkpt>
      <trkpt lat="45.29083" lon="4.63649">
        <ele>502.43</ele>
        <time>2016-03-20T12:41:08Z</time>
      </trkpt>
      <trkpt lat="45.29076" lon="4.63656">
        <ele>500.98</ele>
        <time>2016-03-20T12:41:14Z</time>
      </trkpt>
      <trkpt lat="45.29055" lon="4.63648">
        <ele>498.1</ele>
        <time>2016-03-20T12:41:28Z</time>
      </trkpt>
      <trkpt lat="45.29038" lon="4.63638">
        <ele>496.66</ele>
        <time>2016-03-20T12:41:42Z</time>
      </trkpt>
      <trkpt lat="45.29021" lon="4.63626">
        <ele>493.77</ele>
        <time>2016-03-20T12:41:56Z</time>
      </trkpt>
      <trkpt lat="45.29003" lon="4.63615">
        <ele>492.33</ele>
        <time>2016-03-20T12:42:11Z</time>
      </trkpt>
      <trkpt lat="45.28981" lon="4.63603">
        <ele>488.49</ele>
        <time>2016-03-20T12:42:26Z</time>
      </trkpt>
      <trkpt lat="45.28964" lon="4.63598">
        <ele>485.6</ele>
        <time>2016-03-20T12:42:38Z</time>
      </trkpt>
      <trkpt lat="45.28944" lon="4.63592">
        <ele>480.8</ele>
        <time>2016-03-20T12:42:53Z</time>
      </trkpt>
      <trkpt lat="45.28918" lon="4.63592">
        <ele>479.84</ele>
        <time>2016-03-20T12:43:11Z</time>
      </trkpt>
      <trkpt lat="45.28913" lon="4.63592">
        <ele>478.87</ele>
        <time>2016-03-20T12:43:14Z</time>
      </trkpt>
      <trkpt lat="45.28894" lon="4.63588">
        <ele>478.39</ele>
        <time>2016-03-20T12:43:28Z</time>
      </trkpt>
      <trkpt lat="45.28871" lon="4.63581">
        <ele>476.95</ele>
        <time>2016-03-20T12:43:44Z</time>
      </trkpt>
      <trkpt lat="45.28847" lon="4.63576">
        <ele>477.43</ele>
        <time>2016-03-20T12:44:01Z</time>
      </trkpt>
      <trkpt lat="45.28822" lon="4.63569">
        <ele>478.87</ele>
        <time>2016-03-20T12:44:18Z</time>
      </trkpt>
      <trkpt lat="45.28796" lon="4.63559">
        <ele>478.87</ele>
        <time>2016-03-20T12:44:37Z</time>
      </trkpt>
      <trkpt lat="45.28771" lon="4.63554">
        <ele>476.95</ele>
        <time>2016-03-20T12:44:56Z</time>
      </trkpt>
      <trkpt lat="45.28751" lon="4.6355">
        <ele>475.51</ele>
        <time>2016-03-20T12:45:12Z</time>
      </trkpt>
      <trkpt lat="45.28731" lon="4.63545">
        <ele>474.07</ele>
        <time>2016-03-20T12:45:28Z</time>
      </trkpt>
      <trkpt lat="45.2873" lon="4.63546">
        <ele>473.59</ele>
        <time>2016-03-20T12:45:45Z</time>
      </trkpt>
      <trkpt lat="45.28728" lon="4.63547">
        <ele>473.11</ele>
        <time>2016-03-20T12:46:01Z</time>
      </trkpt>
      <trkpt lat="45.28726" lon="4.63546">
        <ele>473.11</ele>
        <time>2016-03-20T12:46:18Z</time>
      </trkpt>
      <trkpt lat="45.28726" lon="4.63548">
        <ele>473.59</ele>
        <time>2016-03-20T12:46:37Z</time>
      </trkpt>
      <trkpt lat="45.28726" lon="4.63548">
        <ele>473.59</ele>
        <time>2016-03-20T12:47:03Z</time>
      </trkpt>
      <trkpt lat="45.28726" lon="4.63547">
        <ele>473.11</ele>
        <time>2016-03-20T12:47:23Z</time>
      </trkpt>
      <trkpt lat="45.28725" lon="4.63547">
        <ele>473.59</ele>
        <time>2016-03-20T12:47:35Z</time>
      </trkpt>
      <trkpt lat="45.28725" lon="4.63547">
        <ele>473.59</ele>
        <time>2016-03-20T12:47:52Z</time>
      </trkpt>
      <trkpt lat="45.28725" lon="4.63548">
        <ele>473.59</ele>
        <time>2016-03-20T12:48:07Z</time>
      </trkpt>
      <trkpt lat="45.28725" lon="4.63548">
        <ele>473.59</ele>
        <time>2016-03-20T12:48:27Z</time>
      </trkpt>
      <trkpt lat="45.28725" lon="4.63547">
        <ele>474.55</ele>
        <time>2016-03-20T12:48:45Z</time>
      </trkpt>
      <trkpt lat="45.2872" lon="4.63545">
        <ele>472.63</ele>
        <time>2016-03-20T12:48:55Z</time>
      </trkpt>
      <trkpt lat="45.28703" lon="4.63541">
        <ele>470.22</ele>
        <time>2016-03-20T12:49:10Z</time>
      </trkpt>
      <trkpt lat="45.28684" lon="4.63534">
        <ele>467.82</ele>
        <time>2016-03-20T12:49:25Z</time>
      </trkpt>
      <trkpt lat="45.28668" lon="4.63528">
        <ele>467.82</ele>
        <time>2016-03-20T12:49:38Z</time>
      </trkpt>
      <trkpt lat="45.28644" lon="4.63521">
        <ele>465.9</ele>
        <time>2016-03-20T12:49:58Z</time>
      </trkpt>
      <trkpt lat="45.28625" lon="4.63516">
        <ele>464.93</ele>
        <time>2016-03-20T12:50:12Z</time>
      </trkpt>
      <trkpt lat="45.28601" lon="4.63512">
        <ele>462.53</ele>
        <time>2016-03-20T12:50:30Z</time>
      </trkpt>
      <trkpt lat="45.28576" lon="4.63503">
        <ele>462.05</ele>
        <time>2016-03-20T12:50:49Z</time>
      </trkpt>
      <trkpt lat="45.28556" lon="4.63495">
        <ele>462.05</ele>
        <time>2016-03-20T12:51:05Z</time>
      </trkpt>
      <trkpt lat="45.28535" lon="4.63486">
        <ele>460.61</ele>
        <time>2016-03-20T12:51:23Z</time>
      </trkpt>
      <trkpt lat="45.28512" lon="4.63474">
        <ele>458.21</ele>
        <time>2016-03-20T12:51:40Z</time>
      </trkpt>
      <trkpt lat="45.28487" lon="4.63464">
        <ele>454.36</ele>
        <time>2016-03-20T12:51:57Z</time>
      </trkpt>
      <trkpt lat="45.28467" lon="4.63454">
        <ele>450.03</ele>
        <time>2016-03-20T12:52:13Z</time>
      </trkpt>
      <trkpt lat="45.28446" lon="4.63446">
        <ele>449.55</ele>
        <time>2016-03-20T12:52:28Z</time>
      </trkpt>
      <trkpt lat="45.28424" lon="4.63436">
        <ele>447.63</ele>
        <time>2016-03-20T12:52:45Z</time>
      </trkpt>
      <trkpt lat="45.28403" lon="4.63428">
        <ele>445.23</ele>
        <time>2016-03-20T12:53:01Z</time>
      </trkpt>
      <trkpt lat="45.28388" lon="4.63422">
        <ele>443.79</ele>
        <time>2016-03-20T12:53:16Z</time>
      </trkpt>
      <trkpt lat="45.28388" lon="4.63419">
        <ele>443.79</ele>
        <time>2016-03-20T12:53:18Z</time>
      </trkpt>
      <trkpt lat="45.28395" lon="4.63396">
        <ele>441.38</ele>
        <time>2016-03-20T12:53:32Z</time>
      </trkpt>
      <trkpt lat="45.28411" lon="4.63374">
        <ele>441.38</ele>
        <time>2016-03-20T12:53:50Z</time>
      </trkpt>
      <trkpt lat="45.28418" lon="4.63364">
        <ele>442.82</ele>
        <time>2016-03-20T12:53:59Z</time>
      </trkpt>
      <trkpt lat="45.28399" lon="4.63352">
        <ele>442.34</ele>
        <time>2016-03-20T12:54:15Z</time>
      </trkpt>
      <trkpt lat="45.28391" lon="4.63339">
        <ele>442.34</ele>
        <time>2016-03-20T12:54:26Z</time>
      </trkpt>
      <trkpt lat="45.28384" lon="4.63324">
        <ele>443.31</ele>
        <time>2016-03-20T12:54:37Z</time>
      </trkpt>
      <trkpt lat="45.28385" lon="4.63322">
        <ele>443.31</ele>
        <time>2016-03-20T12:54:39Z</time>
      </trkpt>
      <trkpt lat="45.28386" lon="4.63319">
        <ele>443.31</ele>
        <time>2016-03-20T12:54:41Z</time>
      </trkpt>
      <trkpt lat="45.28397" lon="4.633">
        <ele>444.27</ele>
        <time>2016-03-20T12:54:56Z</time>
      </trkpt>
      <trkpt lat="45.28397" lon="4.63297">
        <ele>444.75</ele>
        <time>2016-03-20T12:54:59Z</time>
      </trkpt>
      <trkpt lat="45.28399" lon="4.63268">
        <ele>443.31</ele>
        <time>2016-03-20T12:55:14Z</time>
      </trkpt>
      <trkpt lat="45.28412" lon="4.63249">
        <ele>440.9</ele>
        <time>2016-03-20T12:55:28Z</time>
      </trkpt>
      <trkpt lat="45.28425" lon="4.63232">
        <ele>441.86</ele>
        <time>2016-03-20T12:55:43Z</time>
      </trkpt>
      <trkpt lat="45.28427" lon="4.63224">
        <ele>441.38</ele>
        <time>2016-03-20T12:55:48Z</time>
      </trkpt>
      <trkpt lat="45.28433" lon="4.6321">
        <ele>440.42</ele>
        <time>2016-03-20T12:55:58Z</time>
      </trkpt>
      <trkpt lat="45.28427" lon="4.63206">
        <ele>439.46</ele>
        <time>2016-03-20T12:56:04Z</time>
      </trkpt>
      <trkpt lat="45.28425" lon="4.63201">
        <ele>438.5</ele>
        <time>2016-03-20T12:56:09Z</time>
      </trkpt>
      <trkpt lat="45.2843" lon="4.63193">
        <ele>436.58</ele>
        <time>2016-03-20T12:56:14Z</time>
      </trkpt>
      <trkpt lat="45.28446" lon="4.63177">
        <ele>434.17</ele>
        <time>2016-03-20T12:56:29Z</time>
      </trkpt>
      <trkpt lat="45.28447" lon="4.63161">
        <ele>433.69</ele>
        <time>2016-03-20T12:56:39Z</time>
      </trkpt>
      <trkpt lat="45.28455" lon="4.63143">
        <ele>433.69</ele>
        <time>2016-03-20T12:56:50Z</time>
      </trkpt>
      <trkpt lat="45.28463" lon="4.63139">
        <ele>433.21</ele>
        <time>2016-03-20T12:56:59Z</time>
      </trkpt>
      <trkpt lat="45.28477" lon="4.63136">
        <ele>431.29</ele>
        <time>2016-03-20T12:57:14Z</time>
      </trkpt>
      <trkpt lat="45.28479" lon="4.63137">
        <ele>429.37</ele>
        <time>2016-03-20T12:57:36Z</time>
      </trkpt>
      <trkpt lat="45.28478" lon="4.63137">
        <ele>429.85</ele>
        <time>2016-03-20T12:57:53Z</time>
      </trkpt>
      <trkpt lat="45.28482" lon="4.63128">
        <ele>428.89</ele>
        <time>2016-03-20T12:58:07Z</time>
      </trkpt>
      <trkpt lat="45.28494" lon="4.63119">
        <ele>427.44</ele>
        <time>2016-03-20T12:58:21Z</time>
      </trkpt>
      <trkpt lat="45.28503" lon="4.63116">
        <ele>428.89</ele>
        <time>2016-03-20T12:58:38Z</time>
      </trkpt>
      <trkpt lat="45.28504" lon="4.63116">
        <ele>430.33</ele>
        <time>2016-03-20T12:58:50Z</time>
      </trkpt>
      <trkpt lat="45.28505" lon="4.63116">
        <ele>429.85</ele>
        <time>2016-03-20T12:58:53Z</time>
      </trkpt>
      <trkpt lat="45.28515" lon="4.63098">
        <ele>429.37</ele>
        <time>2016-03-20T12:59:07Z</time>
      </trkpt>
      <trkpt lat="45.28519" lon="4.63097">
        <ele>429.85</ele>
        <time>2016-03-20T12:59:26Z</time>
      </trkpt>
      <trkpt lat="45.28517" lon="4.63091">
        <ele>429.37</ele>
        <time>2016-03-20T12:59:39Z</time>
      </trkpt>
      <trkpt lat="45.28517" lon="4.63086">
        <ele>429.85</ele>
        <time>2016-03-20T12:59:56Z</time>
      </trkpt>
      <trkpt lat="45.28516" lon="4.63071">
        <ele>431.29</ele>
        <time>2016-03-20T13:00:08Z</time>
      </trkpt>
      <trkpt lat="45.28515" lon="4.63063">
        <ele>431.77</ele>
        <time>2016-03-20T13:00:13Z</time>
      </trkpt>
      <trkpt lat="45.28511" lon="4.63039">
        <ele>432.25</ele>
        <time>2016-03-20T13:00:28Z</time>
      </trkpt>
      <trkpt lat="45.28511" lon="4.63035">
        <ele>432.25</ele>
        <time>2016-03-20T13:00:30Z</time>
      </trkpt>
      <trkpt lat="45.28508" lon="4.63008">
        <ele>430.81</ele>
        <time>2016-03-20T13:00:45Z</time>
      </trkpt>
      <trkpt lat="45.28508" lon="4.62982">
        <ele>427.92</ele>
        <time>2016-03-20T13:01:00Z</time>
      </trkpt>
      <trkpt lat="45.28508" lon="4.62974">
        <ele>427.44</ele>
        <time>2016-03-20T13:01:05Z</time>
      </trkpt>
      <trkpt lat="45.28508" lon="4.62957">
        <ele>427.44</ele>
        <time>2016-03-20T13:01:14Z</time>
      </trkpt>
      <trkpt lat="45.2851" lon="4.62926">
        <ele>426.96</ele>
        <time>2016-03-20T13:01:30Z</time>
      </trkpt>
      <trkpt lat="45.2851" lon="4.62897">
        <ele>428.4</ele>
        <time>2016-03-20T13:01:45Z</time>
      </trkpt>
      <trkpt lat="45.2851" lon="4.62889">
        <ele>428.4</ele>
        <time>2016-03-20T13:01:50Z</time>
      </trkpt>
      <trkpt lat="45.28511" lon="4.62856">
        <ele>431.77</ele>
        <time>2016-03-20T13:02:07Z</time>
      </trkpt>
      <trkpt lat="45.28512" lon="4.62825">
        <ele>434.17</ele>
        <time>2016-03-20T13:02:22Z</time>
      </trkpt>
      <trkpt lat="45.28513" lon="4.62802">
        <ele>435.61</ele>
        <time>2016-03-20T13:02:34Z</time>
      </trkpt>
      <trkpt lat="45.28514" lon="4.62792">
        <ele>436.58</ele>
        <time>2016-03-20T13:02:39Z</time>
      </trkpt>
      <trkpt lat="45.28512" lon="4.62781">
        <ele>438.02</ele>
        <time>2016-03-20T13:02:45Z</time>
      </trkpt>
      <trkpt lat="45.28515" lon="4.62775">
        <ele>438.98</ele>
        <time>2016-03-20T13:02:49Z</time>
      </trkpt>
      <trkpt lat="45.28517" lon="4.62768">
        <ele>438.98</ele>
        <time>2016-03-20T13:02:52Z</time>
      </trkpt>
      <trkpt lat="45.28517" lon="4.62765">
        <ele>438.98</ele>
        <time>2016-03-20T13:02:54Z</time>
      </trkpt>
      <trkpt lat="45.28522" lon="4.62752">
        <ele>438.5</ele>
        <time>2016-03-20T13:03:02Z</time>
      </trkpt>
      <trkpt lat="45.28527" lon="4.62749">
        <ele>438.02</ele>
        <time>2016-03-20T13:03:06Z</time>
      </trkpt>
      <trkpt lat="45.28533" lon="4.62736">
        <ele>438.02</ele>
        <time>2016-03-20T13:03:15Z</time>
      </trkpt>
      <trkpt lat="45.28536" lon="4.62733">
        <ele>438.5</ele>
        <time>2016-03-20T13:03:18Z</time>
      </trkpt>
      <trkpt lat="45.28539" lon="4.6273">
        <ele>438.98</ele>
        <time>2016-03-20T13:03:21Z</time>
      </trkpt>
      <trkpt lat="45.28543" lon="4.62726">
        <ele>438.98</ele>
        <time>2016-03-20T13:03:25Z</time>
      </trkpt>
      <trkpt lat="45.28551" lon="4.62693">
        <ele>444.27</ele>
        <time>2016-03-20T13:03:42Z</time>
      </trkpt>
      <trkpt lat="45.28551" lon="4.62691">
        <ele>444.27</ele>
        <time>2016-03-20T13:03:44Z</time>
      </trkpt>
      <trkpt lat="45.28551" lon="4.62684">
        <ele>445.23</ele>
        <time>2016-03-20T13:03:48Z</time>
      </trkpt>
      <trkpt lat="45.28553" lon="4.62669">
        <ele>444.75</ele>
        <time>2016-03-20T13:04:10Z</time>
      </trkpt>
      <trkpt lat="45.28565" lon="4.62661">
        <ele>443.79</ele>
        <time>2016-03-20T13:04:33Z</time>
      </trkpt>
      <trkpt lat="45.28571" lon="4.62657">
        <ele>444.75</ele>
        <time>2016-03-20T13:04:56Z</time>
      </trkpt>
      <trkpt lat="45.2858" lon="4.62655">
        <ele>446.67</ele>
        <time>2016-03-20T13:05:22Z</time>
      </trkpt>
      <trkpt lat="45.28586" lon="4.62649">
        <ele>449.07</ele>
        <time>2016-03-20T13:05:41Z</time>
      </trkpt>
      <trkpt lat="45.28589" lon="4.62629">
        <ele>451</ele>
        <time>2016-03-20T13:06:01Z</time>
      </trkpt>
      <trkpt lat="45.28592" lon="4.62614">
        <ele>455.32</ele>
        <time>2016-03-20T13:06:25Z</time>
      </trkpt>
      <trkpt lat="45.28596" lon="4.626">
        <ele>455.8</ele>
        <time>2016-03-20T13:06:46Z</time>
      </trkpt>
      <trkpt lat="45.286" lon="4.62592">
        <ele>453.88</ele>
        <time>2016-03-20T13:07:06Z</time>
      </trkpt>
      <trkpt lat="45.28603" lon="4.62569">
        <ele>454.36</ele>
        <time>2016-03-20T13:07:28Z</time>
      </trkpt>
      <trkpt lat="45.28609" lon="4.62547">
        <ele>457.72</ele>
        <time>2016-03-20T13:07:49Z</time>
      </trkpt>
      <trkpt lat="45.28614" lon="4.62527">
        <ele>463.49</ele>
        <time>2016-03-20T13:08:10Z</time>
      </trkpt>
      <trkpt lat="45.28625" lon="4.62516">
        <ele>467.34</ele>
        <time>2016-03-20T13:08:29Z</time>
      </trkpt>
      <trkpt lat="45.28627" lon="4.6251">
        <ele>469.74</ele>
        <time>2016-03-20T13:08:51Z</time>
      </trkpt>
      <trkpt lat="45.28625" lon="4.62497">
        <ele>468.3</ele>
        <time>2016-03-20T13:09:08Z</time>
      </trkpt>
      <trkpt lat="45.28619" lon="4.62494">
        <ele>469.26</ele>
        <time>2016-03-20T13:09:32Z</time>
      </trkpt>
      <trkpt lat="45.28621" lon="4.62492">
        <ele>474.55</ele>
        <time>2016-03-20T13:10:08Z</time>
      </trkpt>
      <trkpt lat="45.2862" lon="4.62492">
        <ele>477.43</ele>
        <time>2016-03-20T13:10:45Z</time>
      </trkpt>
      <trkpt lat="45.28621" lon="4.62492">
        <ele>478.87</ele>
        <time>2016-03-20T13:11:11Z</time>
      </trkpt>
      <trkpt lat="45.28622" lon="4.62483">
        <ele>479.35</ele>
        <time>2016-03-20T13:11:32Z</time>
      </trkpt>
      <trkpt lat="45.28628" lon="4.62475">
        <ele>480.8</ele>
        <time>2016-03-20T13:11:46Z</time>
      </trkpt>
      <trkpt lat="45.28642" lon="4.62471">
        <ele>483.2</ele>
        <time>2016-03-20T13:11:59Z</time>
      </trkpt>
      <trkpt lat="45.28665" lon="4.62454">
        <ele>486.08</ele>
        <time>2016-03-20T13:12:20Z</time>
      </trkpt>
      <trkpt lat="45.28692" lon="4.62431">
        <ele>488.97</ele>
        <time>2016-03-20T13:12:45Z</time>
      </trkpt>
      <trkpt lat="45.28717" lon="4.62421">
        <ele>491.37</ele>
        <time>2016-03-20T13:13:07Z</time>
      </trkpt>
      <trkpt lat="45.28749" lon="4.6242">
        <ele>495.7</ele>
        <time>2016-03-20T13:13:31Z</time>
      </trkpt>
      <trkpt lat="45.28767" lon="4.62424">
        <ele>498.58</ele>
        <time>2016-03-20T13:13:46Z</time>
      </trkpt>
      <trkpt lat="45.28798" lon="4.62421">
        <ele>500.5</ele>
        <time>2016-03-20T13:14:09Z</time>
      </trkpt>
      <trkpt lat="45.28829" lon="4.6241">
        <ele>500.02</ele>
        <time>2016-03-20T13:14:32Z</time>
      </trkpt>
      <trkpt lat="45.28851" lon="4.62393">
        <ele>505.31</ele>
        <time>2016-03-20T13:14:54Z</time>
      </trkpt>
      <trkpt lat="45.28853" lon="4.62386">
        <ele>506.27</ele>
        <time>2016-03-20T13:14:59Z</time>
      </trkpt>
      <trkpt lat="45.28874" lon="4.62337">
        <ele>510.6</ele>
        <time>2016-03-20T13:15:28Z</time>
      </trkpt>
      <trkpt lat="45.28903" lon="4.62291">
        <ele>513.96</ele>
        <time>2016-03-20T13:15:55Z</time>
      </trkpt>
      <trkpt lat="45.28916" lon="4.6224">
        <ele>517.33</ele>
        <time>2016-03-20T13:16:22Z</time>
      </trkpt>
      <trkpt lat="45.28909" lon="4.62193">
        <ele>521.65</ele>
        <time>2016-03-20T13:16:45Z</time>
      </trkpt>
      <trkpt lat="45.2891" lon="4.62154">
        <ele>527.42</ele>
        <time>2016-03-20T13:17:07Z</time>
      </trkpt>
      <trkpt lat="45.28897" lon="4.62118">
        <ele>531.75</ele>
        <time>2016-03-20T13:17:32Z</time>
      </trkpt>
      <trkpt lat="45.28878" lon="4.62074">
        <ele>532.23</ele>
        <time>2016-03-20T13:17:57Z</time>
      </trkpt>
      <trkpt lat="45.28885" lon="4.62035">
        <ele>535.11</ele>
        <time>2016-03-20T13:18:18Z</time>
      </trkpt>
      <trkpt lat="45.28885" lon="4.6203">
        <ele>535.59</ele>
        <time>2016-03-20T13:18:21Z</time>
      </trkpt>
      <trkpt lat="45.28882" lon="4.62009">
        <ele>535.11</ele>
        <time>2016-03-20T13:18:39Z</time>
      </trkpt>
      <trkpt lat="45.28868" lon="4.61978">
        <ele>538.96</ele>
        <time>2016-03-20T13:19:00Z</time>
      </trkpt>
      <trkpt lat="45.28849" lon="4.61967">
        <ele>538.96</ele>
        <time>2016-03-20T13:19:23Z</time>
      </trkpt>
      <trkpt lat="45.28849" lon="4.61923">
        <ele>540.4</ele>
        <time>2016-03-20T13:19:42Z</time>
      </trkpt>
      <trkpt lat="45.28878" lon="4.61902">
        <ele>543.28</ele>
        <time>2016-03-20T13:20:05Z</time>
      </trkpt>
      <trkpt lat="45.28882" lon="4.61899">
        <ele>543.76</ele>
        <time>2016-03-20T13:20:09Z</time>
      </trkpt>
      <trkpt lat="45.28889" lon="4.61885">
        <ele>546.17</ele>
        <time>2016-03-20T13:20:21Z</time>
      </trkpt>
      <trkpt lat="45.28888" lon="4.61873">
        <ele>549.53</ele>
        <time>2016-03-20T13:20:38Z</time>
      </trkpt>
      <trkpt lat="45.28889" lon="4.61875">
        <ele>550.01</ele>
        <time>2016-03-20T13:21:07Z</time>
      </trkpt>
      <trkpt lat="45.28889" lon="4.61876">
        <ele>549.53</ele>
        <time>2016-03-20T13:21:34Z</time>
      </trkpt>
      <trkpt lat="45.28878" lon="4.61876">
        <ele>552.9</ele>
        <time>2016-03-20T13:21:50Z</time>
      </trkpt>
      <trkpt lat="45.28849" lon="4.61872">
        <ele>556.26</ele>
        <time>2016-03-20T13:22:16Z</time>
      </trkpt>
      <trkpt lat="45.28814" lon="4.61855">
        <ele>562.99</ele>
        <time>2016-03-20T13:22:41Z</time>
      </trkpt>
      <trkpt lat="45.28801" lon="4.61842">
        <ele>567.32</ele>
        <time>2016-03-20T13:23:01Z</time>
      </trkpt>
      <trkpt lat="45.28809" lon="4.61812">
        <ele>570.2</ele>
        <time>2016-03-20T13:23:25Z</time>
      </trkpt>
      <trkpt lat="45.28801" lon="4.61806">
        <ele>573.56</ele>
        <time>2016-03-20T13:23:47Z</time>
      </trkpt>
      <trkpt lat="45.288" lon="4.61806">
        <ele>573.56</ele>
        <time>2016-03-20T13:23:53Z</time>
      </trkpt>
      <trkpt lat="45.28782" lon="4.61838">
        <ele>576.93</ele>
        <time>2016-03-20T13:24:17Z</time>
      </trkpt>
      <trkpt lat="45.28767" lon="4.61867">
        <ele>580.29</ele>
        <time>2016-03-20T13:24:38Z</time>
      </trkpt>
      <trkpt lat="45.28753" lon="4.61893">
        <ele>585.58</ele>
        <time>2016-03-20T13:24:55Z</time>
      </trkpt>
      <trkpt lat="45.28742" lon="4.61897">
        <ele>587.02</ele>
        <time>2016-03-20T13:25:00Z</time>
      </trkpt>
      <trkpt lat="45.28704" lon="4.61917">
        <ele>589.43</ele>
        <time>2016-03-20T13:25:25Z</time>
      </trkpt>
      <trkpt lat="45.28694" lon="4.6192">
        <ele>590.87</ele>
        <time>2016-03-20T13:25:44Z</time>
      </trkpt>
      <trkpt lat="45.28698" lon="4.61919">
        <ele>592.31</ele>
        <time>2016-03-20T13:26:10Z</time>
      </trkpt>
      <trkpt lat="45.28698" lon="4.6192">
        <ele>591.83</ele>
        <time>2016-03-20T13:26:39Z</time>
      </trkpt>
      <trkpt lat="45.28698" lon="4.61919">
        <ele>592.31</ele>
        <time>2016-03-20T13:27:03Z</time>
      </trkpt>
      <trkpt lat="45.28689" lon="4.61905">
        <ele>593.75</ele>
        <time>2016-03-20T13:27:17Z</time>
      </trkpt>
      <trkpt lat="45.28676" lon="4.61872">
        <ele>599.52</ele>
        <time>2016-03-20T13:27:45Z</time>
      </trkpt>
      <trkpt lat="45.28677" lon="4.61838">
        <ele>605.29</ele>
        <time>2016-03-20T13:28:09Z</time>
      </trkpt>
      <trkpt lat="45.28681" lon="4.61807">
        <ele>608.65</ele>
        <time>2016-03-20T13:28:28Z</time>
      </trkpt>
      <trkpt lat="45.28677" lon="4.6179">
        <ele>612.02</ele>
        <time>2016-03-20T13:28:41Z</time>
      </trkpt>
      <trkpt lat="45.28673" lon="4.61746">
        <ele>618.75</ele>
        <time>2016-03-20T13:29:10Z</time>
      </trkpt>
      <trkpt lat="45.28676" lon="4.61702">
        <ele>626.92</ele>
        <time>2016-03-20T13:29:35Z</time>
      </trkpt>
      <trkpt lat="45.28675" lon="4.61684">
        <ele>629.8</ele>
        <time>2016-03-20T13:29:51Z</time>
      </trkpt>
      <trkpt lat="45.28665" lon="4.61634">
        <ele>632.2</ele>
        <time>2016-03-20T13:30:16Z</time>
      </trkpt>
      <trkpt lat="45.28662" lon="4.6158">
        <ele>635.09</ele>
        <time>2016-03-20T13:30:42Z</time>
      </trkpt>
      <trkpt lat="45.28657" lon="4.61536">
        <ele>638.45</ele>
        <time>2016-03-20T13:31:07Z</time>
      </trkpt>
      <trkpt lat="45.28653" lon="4.61495">
        <ele>641.34</ele>
        <time>2016-03-20T13:31:28Z</time>
      </trkpt>
      <trkpt lat="45.28651" lon="4.61458">
        <ele>642.3</ele>
        <time>2016-03-20T13:31:49Z</time>
      </trkpt>
      <trkpt lat="45.28653" lon="4.61448">
        <ele>637.97</ele>
        <time>2016-03-20T13:31:51Z</time>
      </trkpt>
      <trkpt lat="45.28654" lon="4.61444">
        <ele>637.01</ele>
        <time>2016-03-20T13:31:54Z</time>
      </trkpt>
      <trkpt lat="45.28657" lon="4.614">
        <ele>636.53</ele>
        <time>2016-03-20T13:32:17Z</time>
      </trkpt>
      <trkpt lat="45.28655" lon="4.61355">
        <ele>635.09</ele>
        <time>2016-03-20T13:32:42Z</time>
      </trkpt>
      <trkpt lat="45.28649" lon="4.61308">
        <ele>633.65</ele>
        <time>2016-03-20T13:33:07Z</time>
      </trkpt>
      <trkpt lat="45.28639" lon="4.61255">
        <ele>630.28</ele>
        <time>2016-03-20T13:33:34Z</time>
      </trkpt>
      <trkpt lat="45.28628" lon="4.61211">
        <ele>628.36</ele>
        <time>2016-03-20T13:33:58Z</time>
      </trkpt>
      <trkpt lat="45.28608" lon="4.61177">
        <ele>625.96</ele>
        <time>2016-03-20T13:34:23Z</time>
      </trkpt>
      <trkpt lat="45.28584" lon="4.61137">
        <ele>628.36</ele>
        <time>2016-03-20T13:34:49Z</time>
      </trkpt>
      <trkpt lat="45.28566" lon="4.61113">
        <ele>633.65</ele>
        <time>2016-03-20T13:35:11Z</time>
      </trkpt>
      <trkpt lat="45.28551" lon="4.61084">
        <ele>641.34</ele>
        <time>2016-03-20T13:35:32Z</time>
      </trkpt>
      <trkpt lat="45.28536" lon="4.61057">
        <ele>647.59</ele>
        <time>2016-03-20T13:35:54Z</time>
      </trkpt>
      <trkpt lat="45.28522" lon="4.61029">
        <ele>654.8</ele>
        <time>2016-03-20T13:36:18Z</time>
      </trkpt>
      <trkpt lat="45.28506" lon="4.61001">
        <ele>662.97</ele>
        <time>2016-03-20T13:36:41Z</time>
      </trkpt>
      <trkpt lat="45.28503" lon="4.60991">
        <ele>666.33</ele>
        <time>2016-03-20T13:36:49Z</time>
      </trkpt>
      <trkpt lat="45.28486" lon="4.6097">
        <ele>674.02</ele>
        <time>2016-03-20T13:37:13Z</time>
      </trkpt>
      <trkpt lat="45.28477" lon="4.60956">
        <ele>677.39</ele>
        <time>2016-03-20T13:37:25Z</time>
      </trkpt>
      <trkpt lat="45.28463" lon="4.60936">
        <ele>684.12</ele>
        <time>2016-03-20T13:37:45Z</time>
      </trkpt>
      <trkpt lat="45.28444" lon="4.60913">
        <ele>690.84</ele>
        <time>2016-03-20T13:38:11Z</time>
      </trkpt>
      <trkpt lat="45.28418" lon="4.60891">
        <ele>696.13</ele>
        <time>2016-03-20T13:38:38Z</time>
      </trkpt>
      <trkpt lat="45.28407" lon="4.60876">
        <ele>711.51</ele>
        <time>2016-03-20T13:38:46Z</time>
      </trkpt>
      <trkpt lat="45.28387" lon="4.60862">
        <ele>713.44</ele>
        <time>2016-03-20T13:39:07Z</time>
      </trkpt>
      <trkpt lat="45.28368" lon="4.60844">
        <ele>714.4</ele>
        <time>2016-03-20T13:39:28Z</time>
      </trkpt>
      <trkpt lat="45.28366" lon="4.60857">
        <ele>714.4</ele>
        <time>2016-03-20T13:39:47Z</time>
      </trkpt>
      <trkpt lat="45.28364" lon="4.60857">
        <ele>714.88</ele>
        <time>2016-03-20T13:40:10Z</time>
      </trkpt>
      <trkpt lat="45.28363" lon="4.60857">
        <ele>715.84</ele>
        <time>2016-03-20T13:40:37Z</time>
      </trkpt>
      <trkpt lat="45.28364" lon="4.60847">
        <ele>719.2</ele>
        <time>2016-03-20T13:41:01Z</time>
      </trkpt>
      <trkpt lat="45.28366" lon="4.60847">
        <ele>720.16</ele>
        <time>2016-03-20T13:41:23Z</time>
      </trkpt>
      <trkpt lat="45.28367" lon="4.60849">
        <ele>720.16</ele>
        <time>2016-03-20T13:41:50Z</time>
      </trkpt>
      <trkpt lat="45.28367" lon="4.60849">
        <ele>721.13</ele>
        <time>2016-03-20T13:42:20Z</time>
      </trkpt>
      <trkpt lat="45.28368" lon="4.60849">
        <ele>721.13</ele>
        <time>2016-03-20T13:42:52Z</time>
      </trkpt>
      <trkpt lat="45.28369" lon="4.60848">
        <ele>721.13</ele>
        <time>2016-03-20T13:43:13Z</time>
      </trkpt>
      <trkpt lat="45.28367" lon="4.60869">
        <ele>729.3</ele>
        <time>2016-03-20T13:43:42Z</time>
      </trkpt>
      <trkpt lat="45.28364" lon="4.60868">
        <ele>733.62</ele>
        <time>2016-03-20T13:44:10Z</time>
      </trkpt>
      <trkpt lat="45.28363" lon="4.60866">
        <ele>736.03</ele>
        <time>2016-03-20T13:44:32Z</time>
      </trkpt>
      <trkpt lat="45.28364" lon="4.60871">
        <ele>737.47</ele>
        <time>2016-03-20T13:44:58Z</time>
      </trkpt>
      <trkpt lat="45.28366" lon="4.60865">
        <ele>739.39</ele>
        <time>2016-03-20T13:45:26Z</time>
      </trkpt>
      <trkpt lat="45.2837" lon="4.60862">
        <ele>736.99</ele>
        <time>2016-03-20T13:45:50Z</time>
      </trkpt>
      <trkpt lat="45.28368" lon="4.60853">
        <ele>731.7</ele>
        <time>2016-03-20T13:46:15Z</time>
      </trkpt>
      <trkpt lat="45.28367" lon="4.60849">
        <ele>727.37</ele>
        <time>2016-03-20T13:46:23Z</time>
      </trkpt>
      <trkpt lat="45.28367" lon="4.60849">
        <ele>719.2</ele>
        <time>2016-03-20T13:46:39Z</time>
      </trkpt>
      <trkpt lat="45.28367" lon="4.60839">
        <ele>715.84</ele>
        <time>2016-03-20T13:47:01Z</time>
      </trkpt>
      <trkpt lat="45.2837" lon="4.60846">
        <ele>715.84</ele>
        <time>2016-03-20T13:47:27Z</time>
      </trkpt>
      <trkpt lat="45.2837" lon="4.60847">
        <ele>715.36</ele>
        <time>2016-03-20T13:47:58Z</time>
      </trkpt>
      <trkpt lat="45.28368" lon="4.6085">
        <ele>714.88</ele>
        <time>2016-03-20T13:48:23Z</time>
      </trkpt>
      <trkpt lat="45.28369" lon="4.60848">
        <ele>714.88</ele>
        <time>2016-03-20T13:48:47Z</time>
      </trkpt>
      <trkpt lat="45.2837" lon="4.60847">
        <ele>714.4</ele>
        <time>2016-03-20T13:49:12Z</time>
      </trkpt>
      <trkpt lat="45.28362" lon="4.60824">
        <ele>714.88</ele>
        <time>2016-03-20T13:49:34Z</time>
      </trkpt>
      <trkpt lat="45.2836" lon="4.60815">
        <ele>713.92</ele>
        <time>2016-03-20T13:49:40Z</time>
      </trkpt>
      <trkpt lat="45.28342" lon="4.60783">
        <ele>713.92</ele>
        <time>2016-03-20T13:50:03Z</time>
      </trkpt>
      <trkpt lat="45.28325" lon="4.6075">
        <ele>709.11</ele>
        <time>2016-03-20T13:50:28Z</time>
      </trkpt>
      <trkpt lat="45.28311" lon="4.60727">
        <ele>702.38</ele>
        <time>2016-03-20T13:50:51Z</time>
      </trkpt>
      <trkpt lat="45.28286" lon="4.60694">
        <ele>692.29</ele>
        <time>2016-03-20T13:51:17Z</time>
      </trkpt>
      <trkpt lat="45.28265" lon="4.60667">
        <ele>684.6</ele>
        <time>2016-03-20T13:51:38Z</time>
      </trkpt>
      <trkpt lat="45.28255" lon="4.60617">
        <ele>681.71</ele>
        <time>2016-03-20T13:52:04Z</time>
      </trkpt>
      <trkpt lat="45.28236" lon="4.6056">
        <ele>678.35</ele>
        <time>2016-03-20T13:52:31Z</time>
      </trkpt>
      <trkpt lat="45.28213" lon="4.60515">
        <ele>677.39</ele>
        <time>2016-03-20T13:52:56Z</time>
      </trkpt>
      <trkpt lat="45.28203" lon="4.6047">
        <ele>676.42</ele>
        <time>2016-03-20T13:53:19Z</time>
      </trkpt>
      <trkpt lat="45.28193" lon="4.6042">
        <ele>674.02</ele>
        <time>2016-03-20T13:53:45Z</time>
      </trkpt>
      <trkpt lat="45.28182" lon="4.60376">
        <ele>673.06</ele>
        <time>2016-03-20T13:54:09Z</time>
      </trkpt>
      <trkpt lat="45.28173" lon="4.60342">
        <ele>672.1</ele>
        <time>2016-03-20T13:54:31Z</time>
      </trkpt>
      <trkpt lat="45.28161" lon="4.60301">
        <ele>669.22</ele>
        <time>2016-03-20T13:54:54Z</time>
      </trkpt>
      <trkpt lat="45.28151" lon="4.60264">
        <ele>664.41</ele>
        <time>2016-03-20T13:55:16Z</time>
      </trkpt>
      <trkpt lat="45.28148" lon="4.60252">
        <ele>662.97</ele>
        <time>2016-03-20T13:55:23Z</time>
      </trkpt>
      <trkpt lat="45.28138" lon="4.60203">
        <ele>658.64</ele>
        <time>2016-03-20T13:55:47Z</time>
      </trkpt>
      <trkpt lat="45.28132" lon="4.60165">
        <ele>651.91</ele>
        <time>2016-03-20T13:56:12Z</time>
      </trkpt>
      <trkpt lat="45.28119" lon="4.60126">
        <ele>646.62</ele>
        <time>2016-03-20T13:56:36Z</time>
      </trkpt>
      <trkpt lat="45.28107" lon="4.60086">
        <ele>638.93</ele>
        <time>2016-03-20T13:56:59Z</time>
      </trkpt>
      <trkpt lat="45.28091" lon="4.60038">
        <ele>632.2</ele>
        <time>2016-03-20T13:57:24Z</time>
      </trkpt>
      <trkpt lat="45.2808" lon="4.59997">
        <ele>628.84</ele>
        <time>2016-03-20T13:57:45Z</time>
      </trkpt>
      <trkpt lat="45.28078" lon="4.59974">
        <ele>626.92</ele>
        <time>2016-03-20T13:58:00Z</time>
      </trkpt>
      <trkpt lat="45.28076" lon="4.5996">
        <ele>625.47</ele>
        <time>2016-03-20T13:58:07Z</time>
      </trkpt>
      <trkpt lat="45.28055" lon="4.59928">
        <ele>622.59</ele>
        <time>2016-03-20T13:58:28Z</time>
      </trkpt>
      <trkpt lat="45.28048" lon="4.59913">
        <ele>621.15</ele>
        <time>2016-03-20T13:58:47Z</time>
      </trkpt>
      <trkpt lat="45.28048" lon="4.59912">
        <ele>620.19</ele>
        <time>2016-03-20T13:59:10Z</time>
      </trkpt>
      <trkpt lat="45.28044" lon="4.59909">
        <ele>620.19</ele>
        <time>2016-03-20T13:59:31Z</time>
      </trkpt>
      <trkpt lat="45.28045" lon="4.59908">
        <ele>620.19</ele>
        <time>2016-03-20T13:59:54Z</time>
      </trkpt>
      <trkpt lat="45.28046" lon="4.59907">
        <ele>620.19</ele>
        <time>2016-03-20T14:00:23Z</time>
      </trkpt>
      <trkpt lat="45.28045" lon="4.59907">
        <ele>619.23</ele>
        <time>2016-03-20T14:00:52Z</time>
      </trkpt>
      <trkpt lat="45.28037" lon="4.59892">
        <ele>617.78</ele>
        <time>2016-03-20T14:01:18Z</time>
      </trkpt>
      <trkpt lat="45.28033" lon="4.59877">
        <ele>618.26</ele>
        <time>2016-03-20T14:01:26Z</time>
      </trkpt>
      <trkpt lat="45.28029" lon="4.59868">
        <ele>619.71</ele>
        <time>2016-03-20T14:01:46Z</time>
      </trkpt>
      <trkpt lat="45.28037" lon="4.59867">
        <ele>619.23</ele>
        <time>2016-03-20T14:01:53Z</time>
      </trkpt>
      <trkpt lat="45.28073" lon="4.59859">
        <ele>619.23</ele>
        <time>2016-03-20T14:02:19Z</time>
      </trkpt>
      <trkpt lat="45.28104" lon="4.59858">
        <ele>615.38</ele>
        <time>2016-03-20T14:02:43Z</time>
      </trkpt>
      <trkpt lat="45.28139" lon="4.59857">
        <ele>611.54</ele>
        <time>2016-03-20T14:03:08Z</time>
      </trkpt>
      <trkpt lat="45.28159" lon="4.59859">
        <ele>605.77</ele>
        <time>2016-03-20T14:03:26Z</time>
      </trkpt>
      <trkpt lat="45.28165" lon="4.59852">
        <ele>604.33</ele>
        <time>2016-03-20T14:03:32Z</time>
      </trkpt>
      <trkpt lat="45.28193" lon="4.59822">
        <ele>596.64</ele>
        <time>2016-03-20T14:03:58Z</time>
      </trkpt>
      <trkpt lat="45.28213" lon="4.59793">
        <ele>583.18</ele>
        <time>2016-03-20T14:04:21Z</time>
      </trkpt>
      <trkpt lat="45.28244" lon="4.59782">
        <ele>576.93</ele>
        <time>2016-03-20T14:04:43Z</time>
      </trkpt>
      <trkpt lat="45.28276" lon="4.59787">
        <ele>572.6</ele>
        <time>2016-03-20T14:05:07Z</time>
      </trkpt>
      <trkpt lat="45.28282" lon="4.59766">
        <ele>566.35</ele>
        <time>2016-03-20T14:05:18Z</time>
      </trkpt>
      <trkpt lat="45.28265" lon="4.59718">
        <ele>556.74</ele>
        <time>2016-03-20T14:05:44Z</time>
      </trkpt>
      <trkpt lat="45.28259" lon="4.59686">
        <ele>551.93</ele>
        <time>2016-03-20T14:06:04Z</time>
      </trkpt>
      <trkpt lat="45.28277" lon="4.59663">
        <ele>549.53</ele>
        <time>2016-03-20T14:06:29Z</time>
      </trkpt>
      <trkpt lat="45.28309" lon="4.59645">
        <ele>547.61</ele>
        <time>2016-03-20T14:06:48Z</time>
      </trkpt>
      <trkpt lat="45.28344" lon="4.59645">
        <ele>547.61</ele>
        <time>2016-03-20T14:07:14Z</time>
      </trkpt>
      <trkpt lat="45.28356" lon="4.59638">
        <ele>547.61</ele>
        <time>2016-03-20T14:07:34Z</time>
      </trkpt>
      <trkpt lat="45.28355" lon="4.59637">
        <ele>547.61</ele>
        <time>2016-03-20T14:08:01Z</time>
      </trkpt>
      <trkpt lat="45.28356" lon="4.59637">
        <ele>548.57</ele>
        <time>2016-03-20T14:08:28Z</time>
      </trkpt>
      <trkpt lat="45.28356" lon="4.59638">
        <ele>549.53</ele>
        <time>2016-03-20T14:08:56Z</time>
      </trkpt>
      <trkpt lat="45.28356" lon="4.59638">
        <ele>555.78</ele>
        <time>2016-03-20T14:09:19Z</time>
      </trkpt>
      <trkpt lat="45.28356" lon="4.59638">
        <ele>555.78</ele>
        <time>2016-03-20T14:09:46Z</time>
      </trkpt>
      <trkpt lat="45.28356" lon="4.59638">
        <ele>555.78</ele>
        <time>2016-03-20T14:10:14Z</time>
      </trkpt>
      <trkpt lat="45.28356" lon="4.59638">
        <ele>555.78</ele>
        <time>2016-03-20T14:10:40Z</time>
      </trkpt>
      <trkpt lat="45.28356" lon="4.59637">
        <ele>554.34</ele>
        <time>2016-03-20T14:11:06Z</time>
      </trkpt>
      <trkpt lat="45.28356" lon="4.59637">
        <ele>554.34</ele>
        <time>2016-03-20T14:11:36Z</time>
      </trkpt>
      <trkpt lat="45.28356" lon="4.59631">
        <ele>553.86</ele>
        <time>2016-03-20T14:11:42Z</time>
      </trkpt>
      <trkpt lat="45.28354" lon="4.59623">
        <ele>553.38</ele>
        <time>2016-03-20T14:11:46Z</time>
      </trkpt>
      <trkpt lat="45.28332" lon="4.59601">
        <ele>554.82</ele>
        <time>2016-03-20T14:12:07Z</time>
      </trkpt>
      <trkpt lat="45.28327" lon="4.59596">
        <ele>554.82</ele>
        <time>2016-03-20T14:12:13Z</time>
      </trkpt>
      <trkpt lat="45.28305" lon="4.59583">
        <ele>559.14</ele>
        <time>2016-03-20T14:12:34Z</time>
      </trkpt>
      <trkpt lat="45.283" lon="4.59579">
        <ele>560.11</ele>
        <time>2016-03-20T14:12:41Z</time>
      </trkpt>
      <trkpt lat="45.28276" lon="4.59557">
        <ele>569.24</ele>
        <time>2016-03-20T14:13:04Z</time>
      </trkpt>
      <trkpt lat="45.28252" lon="4.59537">
        <ele>575.49</ele>
        <time>2016-03-20T14:13:30Z</time>
      </trkpt>
      <trkpt lat="45.28228" lon="4.59517">
        <ele>583.18</ele>
        <time>2016-03-20T14:13:56Z</time>
      </trkpt>
      <trkpt lat="45.28204" lon="4.59496">
        <ele>590.87</ele>
        <time>2016-03-20T14:14:21Z</time>
      </trkpt>
      <trkpt lat="45.28178" lon="4.59483">
        <ele>594.71</ele>
        <time>2016-03-20T14:14:46Z</time>
      </trkpt>
      <trkpt lat="45.28146" lon="4.59475">
        <ele>601.44</ele>
        <time>2016-03-20T14:15:12Z</time>
      </trkpt>
      <trkpt lat="45.2812" lon="4.59456">
        <ele>607.69</ele>
        <time>2016-03-20T14:15:33Z</time>
      </trkpt>
      <trkpt lat="45.28096" lon="4.59442">
        <ele>613.46</ele>
        <time>2016-03-20T14:15:54Z</time>
      </trkpt>
      <trkpt lat="45.28071" lon="4.59434">
        <ele>618.75</ele>
        <time>2016-03-20T14:16:18Z</time>
      </trkpt>
      <trkpt lat="45.28056" lon="4.59423">
        <ele>619.23</ele>
        <time>2016-03-20T14:16:34Z</time>
      </trkpt>
      <trkpt lat="45.28025" lon="4.59397">
        <ele>619.71</ele>
        <time>2016-03-20T14:17:00Z</time>
      </trkpt>
      <trkpt lat="45.28022" lon="4.5938">
        <ele>620.19</ele>
        <time>2016-03-20T14:17:14Z</time>
      </trkpt>
      <trkpt lat="45.28027" lon="4.59359">
        <ele>619.71</ele>
        <time>2016-03-20T14:17:27Z</time>
      </trkpt>
      <trkpt lat="45.28025" lon="4.59315">
        <ele>621.15</ele>
        <time>2016-03-20T14:17:51Z</time>
      </trkpt>
      <trkpt lat="45.28017" lon="4.59304">
        <ele>623.07</ele>
        <time>2016-03-20T14:17:58Z</time>
      </trkpt>
      <trkpt lat="45.27993" lon="4.59273">
        <ele>626.44</ele>
        <time>2016-03-20T14:18:25Z</time>
      </trkpt>
      <trkpt lat="45.27986" lon="4.59265">
        <ele>629.32</ele>
        <time>2016-03-20T14:18:44Z</time>
      </trkpt>
      <trkpt lat="45.27961" lon="4.59242">
        <ele>627.88</ele>
        <time>2016-03-20T14:19:09Z</time>
      </trkpt>
      <trkpt lat="45.27937" lon="4.59219">
        <ele>625.96</ele>
        <time>2016-03-20T14:19:32Z</time>
      </trkpt>
      <trkpt lat="45.27907" lon="4.59199">
        <ele>627.4</ele>
        <time>2016-03-20T14:19:55Z</time>
      </trkpt>
      <trkpt lat="45.2789" lon="4.59174">
        <ele>626.92</ele>
        <time>2016-03-20T14:20:15Z</time>
      </trkpt>
      <trkpt lat="45.27884" lon="4.59164">
        <ele>627.4</ele>
        <time>2016-03-20T14:20:22Z</time>
      </trkpt>
      <trkpt lat="45.27881" lon="4.59135">
        <ele>625.96</ele>
        <time>2016-03-20T14:20:43Z</time>
      </trkpt>
      <trkpt lat="45.27885" lon="4.59127">
        <ele>626.44</ele>
        <time>2016-03-20T14:20:48Z</time>
      </trkpt>
      <trkpt lat="45.27898" lon="4.59082">
        <ele>626.44</ele>
        <time>2016-03-20T14:21:11Z</time>
      </trkpt>
      <trkpt lat="45.27879" lon="4.59042">
        <ele>627.4</ele>
        <time>2016-03-20T14:21:33Z</time>
      </trkpt>
      <trkpt lat="45.27853" lon="4.59019">
        <ele>627.88</ele>
        <time>2016-03-20T14:21:58Z</time>
      </trkpt>
      <trkpt lat="45.27838" lon="4.5901">
        <ele>626.92</ele>
        <time>2016-03-20T14:22:10Z</time>
      </trkpt>
      <trkpt lat="45.27815" lon="4.58987">
        <ele>624.99</ele>
        <time>2016-03-20T14:22:31Z</time>
      </trkpt>
      <trkpt lat="45.27825" lon="4.58944">
        <ele>624.03</ele>
        <time>2016-03-20T14:22:55Z</time>
      </trkpt>
      <trkpt lat="45.27824" lon="4.58895">
        <ele>625.96</ele>
        <time>2016-03-20T14:23:22Z</time>
      </trkpt>
      <trkpt lat="45.27816" lon="4.58868">
        <ele>624.03</ele>
        <time>2016-03-20T14:23:43Z</time>
      </trkpt>
      <trkpt lat="45.27813" lon="4.58871">
        <ele>624.51</ele>
        <time>2016-03-20T14:24:03Z</time>
      </trkpt>
      <trkpt lat="45.27814" lon="4.58866">
        <ele>624.99</ele>
        <time>2016-03-20T14:24:27Z</time>
      </trkpt>
      <trkpt lat="45.27814" lon="4.58869">
        <ele>632.2</ele>
        <time>2016-03-20T14:24:49Z</time>
      </trkpt>
      <trkpt lat="45.27814" lon="4.58871">
        <ele>631.24</ele>
        <time>2016-03-20T14:25:10Z</time>
      </trkpt>
      <trkpt lat="45.27814" lon="4.5887">
        <ele>631.24</ele>
        <time>2016-03-20T14:25:36Z</time>
      </trkpt>
      <trkpt lat="45.27814" lon="4.58873">
        <ele>630.76</ele>
        <time>2016-03-20T14:26:05Z</time>
      </trkpt>
      <trkpt lat="45.2781" lon="4.58867">
        <ele>630.28</ele>
        <time>2016-03-20T14:26:14Z</time>
      </trkpt>
      <trkpt lat="45.27779" lon="4.58839">
        <ele>627.88</ele>
        <time>2016-03-20T14:26:39Z</time>
      </trkpt>
      <trkpt lat="45.27746" lon="4.58828">
        <ele>625.96</ele>
        <time>2016-03-20T14:27:05Z</time>
      </trkpt>
      <trkpt lat="45.27716" lon="4.58807">
        <ele>627.4</ele>
        <time>2016-03-20T14:27:31Z</time>
      </trkpt>
      <trkpt lat="45.2768" lon="4.58782">
        <ele>633.17</ele>
        <time>2016-03-20T14:27:57Z</time>
      </trkpt>
      <trkpt lat="45.27641" lon="4.58772">
        <ele>640.86</ele>
        <time>2016-03-20T14:28:25Z</time>
      </trkpt>
      <trkpt lat="45.27611" lon="4.58769">
        <ele>642.3</ele>
        <time>2016-03-20T14:28:51Z</time>
      </trkpt>
      <trkpt lat="45.27571" lon="4.58753">
        <ele>642.3</ele>
        <time>2016-03-20T14:29:18Z</time>
      </trkpt>
      <trkpt lat="45.27535" lon="4.58739">
        <ele>641.34</ele>
        <time>2016-03-20T14:29:43Z</time>
      </trkpt>
      <trkpt lat="45.2751" lon="4.58729">
        <ele>639.41</ele>
        <time>2016-03-20T14:30:04Z</time>
      </trkpt>
      <trkpt lat="45.27509" lon="4.58726">
        <ele>638.93</ele>
        <time>2016-03-20T14:30:06Z</time>
      </trkpt>
      <trkpt lat="45.27511" lon="4.58685">
        <ele>634.61</ele>
        <time>2016-03-20T14:30:30Z</time>
      </trkpt>
      <trkpt lat="45.27504" lon="4.58667">
        <ele>633.65</ele>
        <time>2016-03-20T14:30:39Z</time>
      </trkpt>
      <trkpt lat="45.27486" lon="4.58648">
        <ele>648.55</ele>
        <time>2016-03-20T14:30:54Z</time>
      </trkpt>
      <trkpt lat="45.27467" lon="4.58628">
        <ele>650.95</ele>
        <time>2016-03-20T14:31:13Z</time>
      </trkpt>
      <trkpt lat="45.27463" lon="4.58619">
        <ele>650.47</ele>
        <time>2016-03-20T14:31:18Z</time>
      </trkpt>
      <trkpt lat="45.27465" lon="4.58612">
        <ele>650.47</ele>
        <time>2016-03-20T14:31:22Z</time>
      </trkpt>
      <trkpt lat="45.27481" lon="4.58607">
        <ele>649.03</ele>
        <time>2016-03-20T14:31:36Z</time>
      </trkpt>
      <trkpt lat="45.27514" lon="4.586">
        <ele>646.62</ele>
        <time>2016-03-20T14:32:00Z</time>
      </trkpt>
      <trkpt lat="45.27531" lon="4.58567">
        <ele>642.78</ele>
        <time>2016-03-20T14:32:18Z</time>
      </trkpt>
      <trkpt lat="45.27522" lon="4.58521">
        <ele>637.49</ele>
        <time>2016-03-20T14:32:40Z</time>
      </trkpt>
      <trkpt lat="45.27512" lon="4.58485">
        <ele>636.53</ele>
        <time>2016-03-20T14:33:00Z</time>
      </trkpt>
      <trkpt lat="45.27507" lon="4.5847">
        <ele>636.53</ele>
        <time>2016-03-20T14:33:10Z</time>
      </trkpt>
      <trkpt lat="45.27512" lon="4.58459">
        <ele>636.53</ele>
        <time>2016-03-20T14:33:27Z</time>
      </trkpt>
      <trkpt lat="45.27513" lon="4.5846">
        <ele>636.05</ele>
        <time>2016-03-20T14:33:45Z</time>
      </trkpt>
      <trkpt lat="45.27538" lon="4.58441">
        <ele>633.65</ele>
        <time>2016-03-20T14:34:06Z</time>
      </trkpt>
      <trkpt lat="45.27561" lon="4.58412">
        <ele>635.09</ele>
        <time>2016-03-20T14:34:27Z</time>
      </trkpt>
      <trkpt lat="45.27584" lon="4.5838">
        <ele>637.01</ele>
        <time>2016-03-20T14:34:48Z</time>
      </trkpt>
      <trkpt lat="45.27591" lon="4.58358">
        <ele>637.49</ele>
        <time>2016-03-20T14:35:01Z</time>
      </trkpt>
      <trkpt lat="45.27618" lon="4.58329">
        <ele>640.38</ele>
        <time>2016-03-20T14:35:25Z</time>
      </trkpt>
      <trkpt lat="45.27626" lon="4.58315">
        <ele>641.34</ele>
        <time>2016-03-20T14:35:35Z</time>
      </trkpt>
      <trkpt lat="45.27634" lon="4.58308">
        <ele>643.26</ele>
        <time>2016-03-20T14:35:54Z</time>
      </trkpt>
      <trkpt lat="45.27634" lon="4.58305">
        <ele>643.74</ele>
        <time>2016-03-20T14:35:59Z</time>
      </trkpt>
      <trkpt lat="45.27641" lon="4.58271">
        <ele>646.14</ele>
        <time>2016-03-20T14:36:20Z</time>
      </trkpt>
      <trkpt lat="45.27641" lon="4.58261">
        <ele>649.99</ele>
        <time>2016-03-20T14:36:33Z</time>
      </trkpt>
      <trkpt lat="45.27641" lon="4.58258">
        <ele>650.47</ele>
        <time>2016-03-20T14:36:35Z</time>
      </trkpt>
      <trkpt lat="45.27641" lon="4.5825">
        <ele>651.43</ele>
        <time>2016-03-20T14:36:39Z</time>
      </trkpt>
      <trkpt lat="45.27632" lon="4.58221">
        <ele>656.24</ele>
        <time>2016-03-20T14:36:58Z</time>
      </trkpt>
      <trkpt lat="45.27613" lon="4.58198">
        <ele>658.16</ele>
        <time>2016-03-20T14:37:17Z</time>
      </trkpt>
      <trkpt lat="45.27595" lon="4.58169">
        <ele>658.16</ele>
        <time>2016-03-20T14:37:37Z</time>
      </trkpt>
      <trkpt lat="45.27577" lon="4.58131">
        <ele>659.6</ele>
        <time>2016-03-20T14:37:58Z</time>
      </trkpt>
      <trkpt lat="45.27555" lon="4.58096">
        <ele>659.6</ele>
        <time>2016-03-20T14:38:21Z</time>
      </trkpt>
      <trkpt lat="45.27533" lon="4.58064">
        <ele>659.6</ele>
        <time>2016-03-20T14:38:45Z</time>
      </trkpt>
      <trkpt lat="45.27537" lon="4.58055">
        <ele>661.04</ele>
        <time>2016-03-20T14:38:53Z</time>
      </trkpt>
      <trkpt lat="45.27546" lon="4.5804">
        <ele>662.01</ele>
        <time>2016-03-20T14:39:06Z</time>
      </trkpt>
      <trkpt lat="45.27567" lon="4.58017">
        <ele>664.89</ele>
        <time>2016-03-20T14:39:24Z</time>
      </trkpt>
      <trkpt lat="45.2758" lon="4.58002">
        <ele>669.7</ele>
        <time>2016-03-20T14:39:41Z</time>
      </trkpt>
      <trkpt lat="45.27591" lon="4.57987">
        <ele>673.54</ele>
        <time>2016-03-20T14:39:56Z</time>
      </trkpt>
      <trkpt lat="45.27614" lon="4.57971">
        <ele>676.42</ele>
        <time>2016-03-20T14:40:15Z</time>
      </trkpt>
      <trkpt lat="45.27631" lon="4.57957">
        <ele>678.35</ele>
        <time>2016-03-20T14:40:28Z</time>
      </trkpt>
      <trkpt lat="45.27639" lon="4.57951">
        <ele>679.31</ele>
        <time>2016-03-20T14:40:33Z</time>
      </trkpt>
      <trkpt lat="45.2766" lon="4.57924">
        <ele>683.15</ele>
        <time>2016-03-20T14:40:55Z</time>
      </trkpt>
      <trkpt lat="45.27685" lon="4.57907">
        <ele>687</ele>
        <time>2016-03-20T14:41:18Z</time>
      </trkpt>
      <trkpt lat="45.27711" lon="4.57879">
        <ele>689.88</ele>
        <time>2016-03-20T14:41:41Z</time>
      </trkpt>
      <trkpt lat="45.27729" lon="4.5784">
        <ele>693.73</ele>
        <time>2016-03-20T14:42:01Z</time>
      </trkpt>
      <trkpt lat="45.27739" lon="4.5781">
        <ele>692.77</ele>
        <time>2016-03-20T14:42:20Z</time>
      </trkpt>
      <trkpt lat="45.27739" lon="4.57768">
        <ele>693.25</ele>
        <time>2016-03-20T14:42:44Z</time>
      </trkpt>
      <trkpt lat="45.27742" lon="4.57736">
        <ele>699.5</ele>
        <time>2016-03-20T14:43:03Z</time>
      </trkpt>
      <trkpt lat="45.27742" lon="4.57734">
        <ele>699.5</ele>
        <time>2016-03-20T14:43:04Z</time>
      </trkpt>
      <trkpt lat="45.27734" lon="4.57696">
        <ele>703.34</ele>
        <time>2016-03-20T14:43:26Z</time>
      </trkpt>
      <trkpt lat="45.27738" lon="4.57656">
        <ele>710.07</ele>
        <time>2016-03-20T14:43:48Z</time>
      </trkpt>
      <trkpt lat="45.27737" lon="4.57619">
        <ele>715.84</ele>
        <time>2016-03-20T14:44:09Z</time>
      </trkpt>
      <trkpt lat="45.27733" lon="4.57582">
        <ele>721.61</ele>
        <time>2016-03-20T14:44:31Z</time>
      </trkpt>
      <trkpt lat="45.27732" lon="4.57543">
        <ele>724.97</ele>
        <time>2016-03-20T14:44:52Z</time>
      </trkpt>
      <trkpt lat="45.27724" lon="4.57516">
        <ele>730.26</ele>
        <time>2016-03-20T14:45:12Z</time>
      </trkpt>
      <trkpt lat="45.27726" lon="4.57478">
        <ele>738.43</ele>
        <time>2016-03-20T14:45:33Z</time>
      </trkpt>
      <trkpt lat="45.27727" lon="4.57441">
        <ele>749</ele>
        <time>2016-03-20T14:45:55Z</time>
      </trkpt>
      <trkpt lat="45.27743" lon="4.57407">
        <ele>756.21</ele>
        <time>2016-03-20T14:46:16Z</time>
      </trkpt>
      <trkpt lat="45.27751" lon="4.57381">
        <ele>761.5</ele>
        <time>2016-03-20T14:46:36Z</time>
      </trkpt>
      <trkpt lat="45.27769" lon="4.57353">
        <ele>766.79</ele>
        <time>2016-03-20T14:46:58Z</time>
      </trkpt>
      <trkpt lat="45.27786" lon="4.57325">
        <ele>769.19</ele>
        <time>2016-03-20T14:47:18Z</time>
      </trkpt>
      <trkpt lat="45.27784" lon="4.57335">
        <ele>767.75</ele>
        <time>2016-03-20T14:47:44Z</time>
      </trkpt>
      <trkpt lat="45.27789" lon="4.57326">
        <ele>766.31</ele>
        <time>2016-03-20T14:48:13Z</time>
      </trkpt>
      <trkpt lat="45.27791" lon="4.57326">
        <ele>766.31</ele>
        <time>2016-03-20T14:48:37Z</time>
      </trkpt>
      <trkpt lat="45.27793" lon="4.57328">
        <ele>767.27</ele>
        <time>2016-03-20T14:49:05Z</time>
      </trkpt>
      <trkpt lat="45.27794" lon="4.57325">
        <ele>767.75</ele>
        <time>2016-03-20T14:49:35Z</time>
      </trkpt>
      <trkpt lat="45.27795" lon="4.57324">
        <ele>766.79</ele>
        <time>2016-03-20T14:50:01Z</time>
      </trkpt>
      <trkpt lat="45.27794" lon="4.57324">
        <ele>765.83</ele>
        <time>2016-03-20T14:50:32Z</time>
      </trkpt>
      <trkpt lat="45.27793" lon="4.57326">
        <ele>764.87</ele>
        <time>2016-03-20T14:51:01Z</time>
      </trkpt>
      <trkpt lat="45.27791" lon="4.57317">
        <ele>762.46</ele>
        <time>2016-03-20T14:51:30Z</time>
      </trkpt>
      <trkpt lat="45.27793" lon="4.57316">
        <ele>760.54</ele>
        <time>2016-03-20T14:51:46Z</time>
      </trkpt>
      <trkpt lat="45.27791" lon="4.57316">
        <ele>760.06</ele>
        <time>2016-03-20T14:52:13Z</time>
      </trkpt>
      <trkpt lat="45.27793" lon="4.573">
        <ele>759.58</ele>
        <time>2016-03-20T14:52:34Z</time>
      </trkpt>
      <trkpt lat="45.27792" lon="4.57285">
        <ele>758.62</ele>
        <time>2016-03-20T14:52:56Z</time>
      </trkpt>
      <trkpt lat="45.2778" lon="4.57265">
        <ele>763.42</ele>
        <time>2016-03-20T14:53:17Z</time>
      </trkpt>
      <trkpt lat="45.27774" lon="4.57265">
        <ele>763.9</ele>
        <time>2016-03-20T14:53:21Z</time>
      </trkpt>
      <trkpt lat="45.27737" lon="4.5726">
        <ele>768.23</ele>
        <time>2016-03-20T14:53:45Z</time>
      </trkpt>
      <trkpt lat="45.27712" lon="4.57259">
        <ele>782.65</ele>
        <time>2016-03-20T14:54:09Z</time>
      </trkpt>
      <trkpt lat="45.27712" lon="4.57215">
        <ele>791.78</ele>
        <time>2016-03-20T14:54:31Z</time>
      </trkpt>
      <trkpt lat="45.27701" lon="4.57178">
        <ele>793.71</ele>
        <time>2016-03-20T14:54:52Z</time>
      </trkpt>
      <trkpt lat="45.27687" lon="4.57151">
        <ele>797.55</ele>
        <time>2016-03-20T14:55:13Z</time>
      </trkpt>
      <trkpt lat="45.2768" lon="4.57122">
        <ele>798.03</ele>
        <time>2016-03-20T14:55:32Z</time>
      </trkpt>
      <trkpt lat="45.27658" lon="4.57097">
        <ele>802.84</ele>
        <time>2016-03-20T14:55:56Z</time>
      </trkpt>
      <trkpt lat="45.27655" lon="4.5708">
        <ele>805.24</ele>
        <time>2016-03-20T14:56:06Z</time>
      </trkpt>
      <trkpt lat="45.27656" lon="4.57034">
        <ele>807.16</ele>
        <time>2016-03-20T14:56:29Z</time>
      </trkpt>
      <trkpt lat="45.27644" lon="4.56995">
        <ele>808.61</ele>
        <time>2016-03-20T14:56:56Z</time>
      </trkpt>
      <trkpt lat="45.27623" lon="4.56968">
        <ele>817.26</ele>
        <time>2016-03-20T14:57:21Z</time>
      </trkpt>
      <trkpt lat="45.27622" lon="4.56966">
        <ele>817.74</ele>
        <time>2016-03-20T14:57:22Z</time>
      </trkpt>
      <trkpt lat="45.27606" lon="4.56932">
        <ele>821.58</ele>
        <time>2016-03-20T14:57:45Z</time>
      </trkpt>
      <trkpt lat="45.2759" lon="4.56896">
        <ele>826.39</ele>
        <time>2016-03-20T14:58:12Z</time>
      </trkpt>
      <trkpt lat="45.27581" lon="4.56849">
        <ele>833.12</ele>
        <time>2016-03-20T14:58:37Z</time>
      </trkpt>
      <trkpt lat="45.27578" lon="4.56839">
        <ele>834.08</ele>
        <time>2016-03-20T14:58:43Z</time>
      </trkpt>
      <trkpt lat="45.27559" lon="4.56803">
        <ele>837.45</ele>
        <time>2016-03-20T14:59:05Z</time>
      </trkpt>
      <trkpt lat="45.2754" lon="4.56765">
        <ele>841.29</ele>
        <time>2016-03-20T14:59:28Z</time>
      </trkpt>
      <trkpt lat="45.27519" lon="4.56736">
        <ele>839.37</ele>
        <time>2016-03-20T14:59:51Z</time>
      </trkpt>
      <trkpt lat="45.27483" lon="4.56709">
        <ele>848.02</ele>
        <time>2016-03-20T15:00:16Z</time>
      </trkpt>
      <trkpt lat="45.2746" lon="4.56693">
        <ele>854.27</ele>
        <time>2016-03-20T15:00:35Z</time>
      </trkpt>
      <trkpt lat="45.27455" lon="4.56664">
        <ele>859.08</ele>
        <time>2016-03-20T15:00:53Z</time>
      </trkpt>
      <trkpt lat="45.27455" lon="4.5666">
        <ele>859.08</ele>
        <time>2016-03-20T15:00:55Z</time>
      </trkpt>
      <trkpt lat="45.27463" lon="4.56629">
        <ele>861.48</ele>
        <time>2016-03-20T15:01:12Z</time>
      </trkpt>
      <trkpt lat="45.27458" lon="4.56612">
        <ele>861</ele>
        <time>2016-03-20T15:01:31Z</time>
      </trkpt>
      <trkpt lat="45.27456" lon="4.56609">
        <ele>862.92</ele>
        <time>2016-03-20T15:02:02Z</time>
      </trkpt>
      <trkpt lat="45.27455" lon="4.56615">
        <ele>861.48</ele>
        <time>2016-03-20T15:02:32Z</time>
      </trkpt>
      <trkpt lat="45.2745" lon="4.56629">
        <ele>858.11</ele>
        <time>2016-03-20T15:02:40Z</time>
      </trkpt>
      <trkpt lat="45.27448" lon="4.56637">
        <ele>857.63</ele>
        <time>2016-03-20T15:02:47Z</time>
      </trkpt>
      <trkpt lat="45.27448" lon="4.56649">
        <ele>857.63</ele>
        <time>2016-03-20T15:03:02Z</time>
      </trkpt>
      <trkpt lat="45.27449" lon="4.56648">
        <ele>857.63</ele>
        <time>2016-03-20T15:03:41Z</time>
      </trkpt>
      <trkpt lat="45.27448" lon="4.56648">
        <ele>857.63</ele>
        <time>2016-03-20T15:04:01Z</time>
      </trkpt>
      <trkpt lat="45.27448" lon="4.56651">
        <ele>857.63</ele>
        <time>2016-03-20T15:04:23Z</time>
      </trkpt>
      <trkpt lat="45.2745" lon="4.56652">
        <ele>857.15</ele>
        <time>2016-03-20T15:04:46Z</time>
      </trkpt>
      <trkpt lat="45.2745" lon="4.56654">
        <ele>857.15</ele>
        <time>2016-03-20T15:05:11Z</time>
      </trkpt>
      <trkpt lat="45.27449" lon="4.56652">
        <ele>860.04</ele>
        <time>2016-03-20T15:05:43Z</time>
      </trkpt>
      <trkpt lat="45.2745" lon="4.56652">
        <ele>860.52</ele>
        <time>2016-03-20T15:06:00Z</time>
      </trkpt>
      <trkpt lat="45.2745" lon="4.56652">
        <ele>860.52</ele>
        <time>2016-03-20T15:06:30Z</time>
      </trkpt>
      <trkpt lat="45.27451" lon="4.5665">
        <ele>860.04</ele>
        <time>2016-03-20T15:06:58Z</time>
      </trkpt>
      <trkpt lat="45.27451" lon="4.5665">
        <ele>859.56</ele>
        <time>2016-03-20T15:07:25Z</time>
      </trkpt>
      <trkpt lat="45.2745" lon="4.56651">
        <ele>859.08</ele>
        <time>2016-03-20T15:07:51Z</time>
      </trkpt>
      <trkpt lat="45.27448" lon="4.56654">
        <ele>858.11</ele>
        <time>2016-03-20T15:08:17Z</time>
      </trkpt>
      <trkpt lat="45.27449" lon="4.56654">
        <ele>858.11</ele>
        <time>2016-03-20T15:08:43Z</time>
      </trkpt>
      <trkpt lat="45.27449" lon="4.56654">
        <ele>858.11</ele>
        <time>2016-03-20T15:09:10Z</time>
      </trkpt>
      <trkpt lat="45.27454" lon="4.56653">
        <ele>858.59</ele>
        <time>2016-03-20T15:09:32Z</time>
      </trkpt>
      <trkpt lat="45.27453" lon="4.56653">
        <ele>858.59</ele>
        <time>2016-03-20T15:10:02Z</time>
      </trkpt>
      <trkpt lat="45.27451" lon="4.56651">
        <ele>858.59</ele>
        <time>2016-03-20T15:10:11Z</time>
      </trkpt>
      <trkpt lat="45.27416" lon="4.56618">
        <ele>857.63</ele>
        <time>2016-03-20T15:10:39Z</time>
      </trkpt>
      <trkpt lat="45.27401" lon="4.56584">
        <ele>858.11</ele>
        <time>2016-03-20T15:11:02Z</time>
      </trkpt>
      <trkpt lat="45.27388" lon="4.56535">
        <ele>855.23</ele>
        <time>2016-03-20T15:11:28Z</time>
      </trkpt>
      <trkpt lat="45.27391" lon="4.56517">
        <ele>854.27</ele>
        <time>2016-03-20T15:11:38Z</time>
      </trkpt>
      <trkpt lat="45.27407" lon="4.56502">
        <ele>853.31</ele>
        <time>2016-03-20T15:11:59Z</time>
      </trkpt>
      <trkpt lat="45.2741" lon="4.56503">
        <ele>853.79</ele>
        <time>2016-03-20T15:12:02Z</time>
      </trkpt>
      <trkpt lat="45.27455" lon="4.56502">
        <ele>856.67</ele>
        <time>2016-03-20T15:12:31Z</time>
      </trkpt>
      <trkpt lat="45.27483" lon="4.56482">
        <ele>857.63</ele>
        <time>2016-03-20T15:12:53Z</time>
      </trkpt>
      <trkpt lat="45.27499" lon="4.5648">
        <ele>853.79</ele>
        <time>2016-03-20T15:13:10Z</time>
      </trkpt>
      <trkpt lat="45.27517" lon="4.56501">
        <ele>852.83</ele>
        <time>2016-03-20T15:13:29Z</time>
      </trkpt>
      <trkpt lat="45.2754" lon="4.56527">
        <ele>851.87</ele>
        <time>2016-03-20T15:13:52Z</time>
      </trkpt>
      <trkpt lat="45.27553" lon="4.56566">
        <ele>848.98</ele>
        <time>2016-03-20T15:14:15Z</time>
      </trkpt>
      <trkpt lat="45.27568" lon="4.56606">
        <ele>846.1</ele>
        <time>2016-03-20T15:14:39Z</time>
      </trkpt>
      <trkpt lat="45.27583" lon="4.5664">
        <ele>844.18</ele>
        <time>2016-03-20T15:14:59Z</time>
      </trkpt>
      <trkpt lat="45.27612" lon="4.56679">
        <ele>839.85</ele>
        <time>2016-03-20T15:15:26Z</time>
      </trkpt>
      <trkpt lat="45.27636" lon="4.5671">
        <ele>841.29</ele>
        <time>2016-03-20T15:15:50Z</time>
      </trkpt>
      <trkpt lat="45.2767" lon="4.56715">
        <ele>840.33</ele>
        <time>2016-03-20T15:16:13Z</time>
      </trkpt>
      <trkpt lat="45.27688" lon="4.56703">
        <ele>840.33</ele>
        <time>2016-03-20T15:16:31Z</time>
      </trkpt>
      <trkpt lat="45.27704" lon="4.56697">
        <ele>840.81</ele>
        <time>2016-03-20T15:16:41Z</time>
      </trkpt>
      <trkpt lat="45.27739" lon="4.56678">
        <ele>841.29</ele>
        <time>2016-03-20T15:17:05Z</time>
      </trkpt>
      <trkpt lat="45.27762" lon="4.56657">
        <ele>841.29</ele>
        <time>2016-03-20T15:17:28Z</time>
      </trkpt>
      <trkpt lat="45.27763" lon="4.56656">
        <ele>841.77</ele>
        <time>2016-03-20T15:17:29Z</time>
      </trkpt>
      <trkpt lat="45.27783" lon="4.56621">
        <ele>837.45</ele>
        <time>2016-03-20T15:17:53Z</time>
      </trkpt>
      <trkpt lat="45.27812" lon="4.56582">
        <ele>830.72</ele>
        <time>2016-03-20T15:18:19Z</time>
      </trkpt>
      <trkpt lat="45.27842" lon="4.56554">
        <ele>825.91</ele>
        <time>2016-03-20T15:18:43Z</time>
      </trkpt>
      <trkpt lat="45.2787" lon="4.56567">
        <ele>826.39</ele>
        <time>2016-03-20T15:19:05Z</time>
      </trkpt>
      <trkpt lat="45.27876" lon="4.5657">
        <ele>826.39</ele>
        <time>2016-03-20T15:19:08Z</time>
      </trkpt>
      <trkpt lat="45.27901" lon="4.56584">
        <ele>825.43</ele>
        <time>2016-03-20T15:19:28Z</time>
      </trkpt>
      <trkpt lat="45.27926" lon="4.56566">
        <ele>828.31</ele>
        <time>2016-03-20T15:19:47Z</time>
      </trkpt>
      <trkpt lat="45.27957" lon="4.56572">
        <ele>834.08</ele>
        <time>2016-03-20T15:20:12Z</time>
      </trkpt>
      <trkpt lat="45.27967" lon="4.56576">
        <ele>833.6</ele>
        <time>2016-03-20T15:20:20Z</time>
      </trkpt>
      <trkpt lat="45.28001" lon="4.56584">
        <ele>834.08</ele>
        <time>2016-03-20T15:20:43Z</time>
      </trkpt>
      <trkpt lat="45.28037" lon="4.5657">
        <ele>838.89</ele>
        <time>2016-03-20T15:21:07Z</time>
      </trkpt>
      <trkpt lat="45.28066" lon="4.56547">
        <ele>842.25</ele>
        <time>2016-03-20T15:21:32Z</time>
      </trkpt>
      <trkpt lat="45.28067" lon="4.56546">
        <ele>848.5</ele>
        <time>2016-03-20T15:21:49Z</time>
      </trkpt>
      <trkpt lat="45.28087" lon="4.56545">
        <ele>849.94</ele>
        <time>2016-03-20T15:22:12Z</time>
      </trkpt>
      <trkpt lat="45.28114" lon="4.56543">
        <ele>860.52</ele>
        <time>2016-03-20T15:22:30Z</time>
      </trkpt>
      <trkpt lat="45.28127" lon="4.56543">
        <ele>860.52</ele>
        <time>2016-03-20T15:22:51Z</time>
      </trkpt>
      <trkpt lat="45.2816" lon="4.56529">
        <ele>859.08</ele>
        <time>2016-03-20T15:23:13Z</time>
      </trkpt>
      <trkpt lat="45.28168" lon="4.56525">
        <ele>859.08</ele>
        <time>2016-03-20T15:23:35Z</time>
      </trkpt>
      <trkpt lat="45.28173" lon="4.56518">
        <ele>858.59</ele>
        <time>2016-03-20T15:23:51Z</time>
      </trkpt>
      <trkpt lat="45.28198" lon="4.56489">
        <ele>858.11</ele>
        <time>2016-03-20T15:24:16Z</time>
      </trkpt>
      <trkpt lat="45.28217" lon="4.56477">
        <ele>854.75</ele>
        <time>2016-03-20T15:24:38Z</time>
      </trkpt>
      <trkpt lat="45.28225" lon="4.56466">
        <ele>852.83</ele>
        <time>2016-03-20T15:25:01Z</time>
      </trkpt>
      <trkpt lat="45.28249" lon="4.56461">
        <ele>849.94</ele>
        <time>2016-03-20T15:25:24Z</time>
      </trkpt>
      <trkpt lat="45.28338" lon="4.56418">
        <ele>858.11</ele>
        <time>2016-03-20T15:25:42Z</time>
      </trkpt>
      <trkpt lat="45.28377" lon="4.56395">
        <ele>857.15</ele>
        <time>2016-03-20T15:26:02Z</time>
      </trkpt>
      <trkpt lat="45.28405" lon="4.56377">
        <ele>854.27</ele>
        <time>2016-03-20T15:26:22Z</time>
      </trkpt>
      <trkpt lat="45.28421" lon="4.56357">
        <ele>847.54</ele>
        <time>2016-03-20T15:26:49Z</time>
      </trkpt>
      <trkpt lat="45.28431" lon="4.56371">
        <ele>858.11</ele>
        <time>2016-03-20T15:28:40Z</time>
      </trkpt>
      <trkpt lat="45.28417" lon="4.56376">
        <ele>856.67</ele>
        <time>2016-03-20T15:29:00Z</time>
      </trkpt>
      <trkpt lat="45.28417" lon="4.5638">
        <ele>858.59</ele>
        <time>2016-03-20T15:29:29Z</time>
      </trkpt>
      <trkpt lat="45.28428" lon="4.56371">
        <ele>851.38</ele>
        <time>2016-03-20T15:29:53Z</time>
      </trkpt>
      <trkpt lat="45.2845" lon="4.56362">
        <ele>844.18</ele>
        <time>2016-03-20T15:30:15Z</time>
      </trkpt>
      <trkpt lat="45.28466" lon="4.56354">
        <ele>839.37</ele>
        <time>2016-03-20T15:30:37Z</time>
      </trkpt>
      <trkpt lat="45.28503" lon="4.56347">
        <ele>838.41</ele>
        <time>2016-03-20T15:30:59Z</time>
      </trkpt>
      <trkpt lat="45.28528" lon="4.56348">
        <ele>837.93</ele>
        <time>2016-03-20T15:31:21Z</time>
      </trkpt>
      <trkpt lat="45.28544" lon="4.56342">
        <ele>835.52</ele>
        <time>2016-03-20T15:31:27Z</time>
      </trkpt>
      <trkpt lat="45.28582" lon="4.56331">
        <ele>835.52</ele>
        <time>2016-03-20T15:31:51Z</time>
      </trkpt>
      <trkpt lat="45.28617" lon="4.56329">
        <ele>832.64</ele>
        <time>2016-03-20T15:32:17Z</time>
      </trkpt>
      <trkpt lat="45.28636" lon="4.56305">
        <ele>830.24</ele>
        <time>2016-03-20T15:32:40Z</time>
      </trkpt>
      <trkpt lat="45.28654" lon="4.56276">
        <ele>822.55</ele>
        <time>2016-03-20T15:33:03Z</time>
      </trkpt>
      <trkpt lat="45.28667" lon="4.56256">
        <ele>821.58</ele>
        <time>2016-03-20T15:33:26Z</time>
      </trkpt>
      <trkpt lat="45.28671" lon="4.56255">
        <ele>829.76</ele>
        <time>2016-03-20T15:33:50Z</time>
      </trkpt>
      <trkpt lat="45.28675" lon="4.56248">
        <ele>830.24</ele>
        <time>2016-03-20T15:34:11Z</time>
      </trkpt>
      <trkpt lat="45.28675" lon="4.56243">
        <ele>831.2</ele>
        <time>2016-03-20T15:34:35Z</time>
      </trkpt>
      <trkpt lat="45.28675" lon="4.56239">
        <ele>831.2</ele>
        <time>2016-03-20T15:35:06Z</time>
      </trkpt>
      <trkpt lat="45.28676" lon="4.56242">
        <ele>833.12</ele>
        <time>2016-03-20T15:35:31Z</time>
      </trkpt>
      <trkpt lat="45.28674" lon="4.56247">
        <ele>836.96</ele>
        <time>2016-03-20T15:35:55Z</time>
      </trkpt>
      <trkpt lat="45.28675" lon="4.56246">
        <ele>836.96</ele>
        <time>2016-03-20T15:36:17Z</time>
      </trkpt>
      <trkpt lat="45.28673" lon="4.56254">
        <ele>839.37</ele>
        <time>2016-03-20T15:36:46Z</time>
      </trkpt>
      <trkpt lat="45.28667" lon="4.56254">
        <ele>845.62</ele>
        <time>2016-03-20T15:37:11Z</time>
      </trkpt>
      <trkpt lat="45.28666" lon="4.5626">
        <ele>850.42</ele>
        <time>2016-03-20T15:37:33Z</time>
      </trkpt>
      <trkpt lat="45.28661" lon="4.56264">
        <ele>853.79</ele>
        <time>2016-03-20T15:38:03Z</time>
      </trkpt>
      <trkpt lat="45.28659" lon="4.56264">
        <ele>854.75</ele>
        <time>2016-03-20T15:38:07Z</time>
      </trkpt>
      <trkpt lat="45.28648" lon="4.56243">
        <ele>857.15</ele>
        <time>2016-03-20T15:38:38Z</time>
      </trkpt>
      <trkpt lat="45.28652" lon="4.56241">
        <ele>857.15</ele>
        <time>2016-03-20T15:39:06Z</time>
      </trkpt>
      <trkpt lat="45.28655" lon="4.56241">
        <ele>855.71</ele>
        <time>2016-03-20T15:39:30Z</time>
      </trkpt>
      <trkpt lat="45.28669" lon="4.56248">
        <ele>857.15</ele>
        <time>2016-03-20T15:39:49Z</time>
      </trkpt>
      <trkpt lat="45.28669" lon="4.56248">
        <ele>857.15</ele>
        <time>2016-03-20T15:39:58Z</time>
      </trkpt>
      <trkpt lat="45.28683" lon="4.56261">
        <ele>856.19</ele>
        <time>2016-03-20T15:40:33Z</time>
      </trkpt>
      <trkpt lat="45.28675" lon="4.56251">
        <ele>855.71</ele>
        <time>2016-03-20T15:40:58Z</time>
      </trkpt>
      <trkpt lat="45.28672" lon="4.56245">
        <ele>855.71</ele>
        <time>2016-03-20T15:41:22Z</time>
      </trkpt>
      <trkpt lat="45.28671" lon="4.56244">
        <ele>855.71</ele>
        <time>2016-03-20T15:41:51Z</time>
      </trkpt>
      <trkpt lat="45.28669" lon="4.56239">
        <ele>858.59</ele>
        <time>2016-03-20T15:42:13Z</time>
      </trkpt>
      <trkpt lat="45.28666" lon="4.56243">
        <ele>859.56</ele>
        <time>2016-03-20T15:42:35Z</time>
      </trkpt>
      <trkpt lat="45.28672" lon="4.56247">
        <ele>859.08</ele>
        <time>2016-03-20T15:43:02Z</time>
      </trkpt>
      <trkpt lat="45.2867" lon="4.56245">
        <ele>859.08</ele>
        <time>2016-03-20T15:43:28Z</time>
      </trkpt>
      <trkpt lat="45.28668" lon="4.56241">
        <ele>859.08</ele>
        <time>2016-03-20T15:43:33Z</time>
      </trkpt>
      <trkpt lat="45.28675" lon="4.56215">
        <ele>853.31</ele>
        <time>2016-03-20T15:43:55Z</time>
      </trkpt>
      <trkpt lat="45.28658" lon="4.56196">
        <ele>850.9</ele>
        <time>2016-03-20T15:44:16Z</time>
      </trkpt>
      <trkpt lat="45.28651" lon="4.56189">
        <ele>849.94</ele>
        <time>2016-03-20T15:44:26Z</time>
      </trkpt>
      <trkpt lat="45.28634" lon="4.56162">
        <ele>845.62</ele>
        <time>2016-03-20T15:44:47Z</time>
      </trkpt>
      <trkpt lat="45.2862" lon="4.56131">
        <ele>833.12</ele>
        <time>2016-03-20T15:45:11Z</time>
      </trkpt>
      <trkpt lat="45.28595" lon="4.56083">
        <ele>819.66</ele>
        <time>2016-03-20T15:45:35Z</time>
      </trkpt>
      <trkpt lat="45.28575" lon="4.56061">
        <ele>808.61</ele>
        <time>2016-03-20T15:45:58Z</time>
      </trkpt>
      <trkpt lat="45.28552" lon="4.56031">
        <ele>802.84</ele>
        <time>2016-03-20T15:46:15Z</time>
      </trkpt>
      <trkpt lat="45.28525" lon="4.56">
        <ele>799.47</ele>
        <time>2016-03-20T15:46:37Z</time>
      </trkpt>
      <trkpt lat="45.28503" lon="4.55974">
        <ele>792.26</ele>
        <time>2016-03-20T15:47:00Z</time>
      </trkpt>
      <trkpt lat="45.28491" lon="4.55957">
        <ele>791.78</ele>
        <time>2016-03-20T15:47:07Z</time>
      </trkpt>
      <trkpt lat="45.28463" lon="4.55926">
        <ele>788.9</ele>
        <time>2016-03-20T15:47:30Z</time>
      </trkpt>
      <trkpt lat="45.28435" lon="4.55904">
        <ele>787.94</ele>
        <time>2016-03-20T15:47:51Z</time>
      </trkpt>
      <trkpt lat="45.28423" lon="4.55884">
        <ele>784.57</ele>
        <time>2016-03-20T15:48:12Z</time>
      </trkpt>
      <trkpt lat="45.2842" lon="4.55876">
        <ele>785.05</ele>
        <time>2016-03-20T15:48:33Z</time>
      </trkpt>
      <trkpt lat="45.28393" lon="4.55846">
        <ele>779.29</ele>
        <time>2016-03-20T15:48:50Z</time>
      </trkpt>
      <trkpt lat="45.28377" lon="4.55829">
        <ele>777.36</ele>
        <time>2016-03-20T15:48:55Z</time>
      </trkpt>
      <trkpt lat="45.28356" lon="4.55791">
        <ele>770.63</ele>
        <time>2016-03-20T15:49:16Z</time>
      </trkpt>
      <trkpt lat="45.28346" lon="4.5579">
        <ele>765.83</ele>
        <time>2016-03-20T15:49:35Z</time>
      </trkpt>
      <trkpt lat="45.28346" lon="4.5579">
        <ele>765.83</ele>
        <time>2016-03-20T15:49:50Z</time>
      </trkpt>
      <trkpt lat="45.28339" lon="4.55754">
        <ele>766.79</ele>
        <time>2016-03-20T15:50:10Z</time>
      </trkpt>
      <trkpt lat="45.28324" lon="4.557">
        <ele>768.23</ele>
        <time>2016-03-20T15:50:30Z</time>
      </trkpt>
      <trkpt lat="45.28321" lon="4.55678">
        <ele>768.71</ele>
        <time>2016-03-20T15:50:49Z</time>
      </trkpt>
      <trkpt lat="45.28325" lon="4.55672">
        <ele>768.71</ele>
        <time>2016-03-20T15:50:58Z</time>
      </trkpt>
      <trkpt lat="45.28344" lon="4.55666">
        <ele>768.71</ele>
        <time>2016-03-20T15:51:22Z</time>
      </trkpt>
      <trkpt lat="45.28355" lon="4.5567">
        <ele>768.71</ele>
        <time>2016-03-20T15:51:42Z</time>
      </trkpt>
      <trkpt lat="45.28387" lon="4.55679">
        <ele>768.71</ele>
        <time>2016-03-20T15:52:05Z</time>
      </trkpt>
      <trkpt lat="45.28407" lon="4.55686">
        <ele>768.71</ele>
        <time>2016-03-20T15:52:26Z</time>
      </trkpt>
      <trkpt lat="45.28427" lon="4.55697">
        <ele>768.71</ele>
        <time>2016-03-20T15:52:46Z</time>
      </trkpt>
      <trkpt lat="45.28454" lon="4.55697">
        <ele>766.79</ele>
        <time>2016-03-20T15:53:06Z</time>
      </trkpt>
      <trkpt lat="45.28479" lon="4.55698">
        <ele>766.79</ele>
        <time>2016-03-20T15:53:24Z</time>
      </trkpt>
      <trkpt lat="45.28513" lon="4.55703">
        <ele>764.39</ele>
        <time>2016-03-20T15:53:46Z</time>
      </trkpt>
      <trkpt lat="45.28526" lon="4.55703">
        <ele>750.45</ele>
        <time>2016-03-20T15:54:08Z</time>
      </trkpt>
      <trkpt lat="45.28529" lon="4.55702">
        <ele>742.76</ele>
        <time>2016-03-20T15:54:33Z</time>
      </trkpt>
      <trkpt lat="45.28537" lon="4.55708">
        <ele>744.68</ele>
        <time>2016-03-20T15:54:49Z</time>
      </trkpt>
      <trkpt lat="45.28548" lon="4.55706">
        <ele>740.35</ele>
        <time>2016-03-20T15:55:00Z</time>
      </trkpt>
      <trkpt lat="45.28561" lon="4.55706">
        <ele>736.51</ele>
        <time>2016-03-20T15:55:12Z</time>
      </trkpt>
      <trkpt lat="45.28564" lon="4.55706">
        <ele>735.07</ele>
        <time>2016-03-20T15:55:15Z</time>
      </trkpt>
      <trkpt lat="45.28578" lon="4.5571">
        <ele>730.74</ele>
        <time>2016-03-20T15:55:31Z</time>
      </trkpt>
      <trkpt lat="45.28587" lon="4.55701">
        <ele>730.26</ele>
        <time>2016-03-20T15:55:50Z</time>
      </trkpt>
      <trkpt lat="45.28604" lon="4.55694">
        <ele>730.26</ele>
        <time>2016-03-20T15:56:03Z</time>
      </trkpt>
      <trkpt lat="45.28612" lon="4.55695">
        <ele>730.26</ele>
        <time>2016-03-20T15:56:07Z</time>
      </trkpt>
      <trkpt lat="45.28658" lon="4.55732">
        <ele>730.26</ele>
        <time>2016-03-20T15:56:30Z</time>
      </trkpt>
      <trkpt lat="45.28685" lon="4.55744">
        <ele>730.26</ele>
        <time>2016-03-20T15:56:51Z</time>
      </trkpt>
      <trkpt lat="45.28733" lon="4.55744">
        <ele>714.4</ele>
        <time>2016-03-20T15:57:12Z</time>
      </trkpt>
      <trkpt lat="45.28739" lon="4.55744">
        <ele>713.44</ele>
        <time>2016-03-20T15:57:14Z</time>
      </trkpt>
      <trkpt lat="45.28788" lon="4.55731">
        <ele>700.46</ele>
        <time>2016-03-20T15:57:40Z</time>
      </trkpt>
      <trkpt lat="45.28812" lon="4.55714">
        <ele>700.46</ele>
        <time>2016-03-20T15:58:03Z</time>
      </trkpt>
      <trkpt lat="45.28813" lon="4.55714">
        <ele>700.46</ele>
        <time>2016-03-20T15:58:04Z</time>
      </trkpt>
      <trkpt lat="45.28846" lon="4.55708">
        <ele>700.46</ele>
        <time>2016-03-20T15:58:26Z</time>
      </trkpt>
      <trkpt lat="45.28868" lon="4.55717">
        <ele>696.13</ele>
        <time>2016-03-20T15:58:42Z</time>
      </trkpt>
      <trkpt lat="45.28867" lon="4.55718">
        <ele>696.13</ele>
        <time>2016-03-20T15:59:11Z</time>
      </trkpt>
      <trkpt lat="45.28867" lon="4.55718">
        <ele>696.13</ele>
        <time>2016-03-20T15:59:21Z</time>
      </trkpt>
      <trkpt lat="45.28856" lon="4.55724">
        <ele>696.13</ele>
        <time>2016-03-20T15:59:39Z</time>
      </trkpt>
      <trkpt lat="45.28854" lon="4.5574">
        <ele>687.96</ele>
        <time>2016-03-20T15:59:59Z</time>
      </trkpt>
      <trkpt lat="45.28857" lon="4.55735">
        <ele>685.08</ele>
        <time>2016-03-20T16:00:19Z</time>
      </trkpt>
      <trkpt lat="45.28857" lon="4.55734">
        <ele>685.08</ele>
        <time>2016-03-20T16:00:29Z</time>
      </trkpt>
      <trkpt lat="45.28857" lon="4.55736">
        <ele>682.67</ele>
        <time>2016-03-20T16:00:41Z</time>
      </trkpt>
      <trkpt lat="45.28857" lon="4.55735">
        <ele>681.23</ele>
        <time>2016-03-20T16:01:02Z</time>
      </trkpt>
      <trkpt lat="45.28858" lon="4.55736">
        <ele>679.79</ele>
        <time>2016-03-20T16:01:29Z</time>
      </trkpt>
      <trkpt lat="45.28858" lon="4.55738">
        <ele>678.35</ele>
        <time>2016-03-20T16:01:57Z</time>
      </trkpt>
      <trkpt lat="45.28855" lon="4.55739">
        <ele>678.35</ele>
        <time>2016-03-20T16:02:21Z</time>
      </trkpt>
      <trkpt lat="45.28882" lon="4.55721">
        <ele>677.87</ele>
        <time>2016-03-20T16:02:46Z</time>
      </trkpt>
      <trkpt lat="45.28921" lon="4.55699">
        <ele>674.98</ele>
        <time>2016-03-20T16:03:05Z</time>
      </trkpt>
      <trkpt lat="45.28961" lon="4.55687">
        <ele>668.25</ele>
        <time>2016-03-20T16:03:28Z</time>
      </trkpt>
      <trkpt lat="45.2898" lon="4.55677">
        <ele>658.16</ele>
        <time>2016-03-20T16:03:48Z</time>
      </trkpt>
      <trkpt lat="45.28993" lon="4.55691">
        <ele>651.91</ele>
        <time>2016-03-20T16:03:58Z</time>
      </trkpt>
      <trkpt lat="45.29002" lon="4.55704">
        <ele>646.62</ele>
        <time>2016-03-20T16:04:08Z</time>
      </trkpt>
      <trkpt lat="45.29021" lon="4.55706">
        <ele>637.01</ele>
        <time>2016-03-20T16:04:31Z</time>
      </trkpt>
      <trkpt lat="45.29036" lon="4.55708">
        <ele>633.17</ele>
        <time>2016-03-20T16:04:53Z</time>
      </trkpt>
      <trkpt lat="45.29037" lon="4.55704">
        <ele>631.72</ele>
        <time>2016-03-20T16:05:15Z</time>
      </trkpt>
      <trkpt lat="45.29035" lon="4.55707">
        <ele>628.84</ele>
        <time>2016-03-20T16:05:38Z</time>
      </trkpt>
      <trkpt lat="45.29041" lon="4.55722">
        <ele>623.07</ele>
        <time>2016-03-20T16:06:00Z</time>
      </trkpt>
      <trkpt lat="45.29071" lon="4.55725">
        <ele>616.82</ele>
        <time>2016-03-20T16:06:26Z</time>
      </trkpt>
      <trkpt lat="45.29096" lon="4.55711">
        <ele>608.65</ele>
        <time>2016-03-20T16:06:51Z</time>
      </trkpt>
      <trkpt lat="45.29125" lon="4.557">
        <ele>601.92</ele>
        <time>2016-03-20T16:07:15Z</time>
      </trkpt>
      <trkpt lat="45.29145" lon="4.55697">
        <ele>594.23</ele>
        <time>2016-03-20T16:07:30Z</time>
      </trkpt>
      <trkpt lat="45.29176" lon="4.55698">
        <ele>589.91</ele>
        <time>2016-03-20T16:07:55Z</time>
      </trkpt>
      <trkpt lat="45.29175" lon="4.557">
        <ele>586.06</ele>
        <time>2016-03-20T16:08:15Z</time>
      </trkpt>
      <trkpt lat="45.2917" lon="4.55698">
        <ele>578.37</ele>
        <time>2016-03-20T16:08:39Z</time>
      </trkpt>
      <trkpt lat="45.29185" lon="4.557">
        <ele>588.46</ele>
        <time>2016-03-20T16:08:56Z</time>
      </trkpt>
      <trkpt lat="45.29188" lon="4.55702">
        <ele>591.35</ele>
        <time>2016-03-20T16:09:18Z</time>
      </trkpt>
      <trkpt lat="45.29195" lon="4.55695">
        <ele>591.35</ele>
        <time>2016-03-20T16:09:44Z</time>
      </trkpt>
      <trkpt lat="45.29177" lon="4.55699">
        <ele>591.83</ele>
        <time>2016-03-20T16:10:07Z</time>
      </trkpt>
      <trkpt lat="45.29176" lon="4.55698">
        <ele>591.83</ele>
        <time>2016-03-20T16:10:29Z</time>
      </trkpt>
      <trkpt lat="45.29251" lon="4.55739">
        <ele>592.79</ele>
        <time>2016-03-20T16:14:01Z</time>
      </trkpt>
      <trkpt lat="45.2926" lon="4.55764">
        <ele>587.02</ele>
        <time>2016-03-20T16:14:26Z</time>
      </trkpt>
      <trkpt lat="45.29272" lon="4.55792">
        <ele>581.25</ele>
        <time>2016-03-20T16:14:47Z</time>
      </trkpt>
      <trkpt lat="45.29306" lon="4.55824">
        <ele>567.8</ele>
        <time>2016-03-20T16:15:14Z</time>
      </trkpt>
      <trkpt lat="45.29332" lon="4.55852">
        <ele>557.7</ele>
        <time>2016-03-20T16:15:36Z</time>
      </trkpt>
      <trkpt lat="45.29343" lon="4.55855">
        <ele>554.82</ele>
        <time>2016-03-20T16:16:00Z</time>
      </trkpt>
      <trkpt lat="45.2935" lon="4.55882">
        <ele>553.38</ele>
        <time>2016-03-20T16:16:22Z</time>
      </trkpt>
      <trkpt lat="45.29354" lon="4.55909">
        <ele>553.38</ele>
        <time>2016-03-20T16:16:37Z</time>
      </trkpt>
      <trkpt lat="45.29366" lon="4.55962">
        <ele>549.53</ele>
        <time>2016-03-20T16:17:03Z</time>
      </trkpt>
      <trkpt lat="45.29372" lon="4.55998">
        <ele>548.09</ele>
        <time>2016-03-20T16:17:26Z</time>
      </trkpt>
      <trkpt lat="45.29376" lon="4.56037">
        <ele>546.65</ele>
        <time>2016-03-20T16:17:49Z</time>
      </trkpt>
      <trkpt lat="45.29386" lon="4.56065">
        <ele>545.2</ele>
        <time>2016-03-20T16:18:00Z</time>
      </trkpt>
      <trkpt lat="45.2939" lon="4.56124">
        <ele>541.84</ele>
        <time>2016-03-20T16:18:25Z</time>
      </trkpt>
      <trkpt lat="45.29387" lon="4.56143">
        <ele>540.88</ele>
        <time>2016-03-20T16:18:35Z</time>
      </trkpt>
      <trkpt lat="45.29384" lon="4.56185">
        <ele>546.17</ele>
        <time>2016-03-20T16:18:59Z</time>
      </trkpt>
      <trkpt lat="45.29382" lon="4.56211">
        <ele>551.93</ele>
        <time>2016-03-20T16:19:17Z</time>
      </trkpt>
      <trkpt lat="45.29364" lon="4.56257">
        <ele>555.3</ele>
        <time>2016-03-20T16:19:41Z</time>
      </trkpt>
      <trkpt lat="45.29363" lon="4.56274">
        <ele>558.18</ele>
        <time>2016-03-20T16:19:50Z</time>
      </trkpt>
      <trkpt lat="45.2936" lon="4.5631">
        <ele>562.99</ele>
        <time>2016-03-20T16:20:18Z</time>
      </trkpt>
      <trkpt lat="45.2936" lon="4.5634">
        <ele>566.83</ele>
        <time>2016-03-20T16:20:38Z</time>
      </trkpt>
      <trkpt lat="45.29352" lon="4.56376">
        <ele>566.35</ele>
        <time>2016-03-20T16:20:54Z</time>
      </trkpt>
      <trkpt lat="45.2935" lon="4.5644">
        <ele>566.83</ele>
        <time>2016-03-20T16:21:18Z</time>
      </trkpt>
      <trkpt lat="45.29352" lon="4.56448">
        <ele>569.24</ele>
        <time>2016-03-20T16:21:20Z</time>
      </trkpt>
      <trkpt lat="45.29351" lon="4.56473">
        <ele>570.2</ele>
        <time>2016-03-20T16:21:34Z</time>
      </trkpt>
      <trkpt lat="45.29349" lon="4.56527">
        <ele>570.2</ele>
        <time>2016-03-20T16:21:57Z</time>
      </trkpt>
      <trkpt lat="45.29352" lon="4.56565">
        <ele>569.72</ele>
        <time>2016-03-20T16:22:19Z</time>
      </trkpt>
      <trkpt lat="45.29351" lon="4.56559">
        <ele>568.76</ele>
        <time>2016-03-20T16:22:38Z</time>
      </trkpt>
      <trkpt lat="45.29348" lon="4.56511">
        <ele>565.39</ele>
        <time>2016-03-20T16:23:01Z</time>
      </trkpt>
      <trkpt lat="45.29354" lon="4.56461">
        <ele>561.07</ele>
        <time>2016-03-20T16:23:23Z</time>
      </trkpt>
      <trkpt lat="45.29354" lon="4.56426">
        <ele>562.99</ele>
        <time>2016-03-20T16:23:39Z</time>
      </trkpt>
      <trkpt lat="45.29359" lon="4.56376">
        <ele>564.91</ele>
        <time>2016-03-20T16:24:05Z</time>
      </trkpt>
      <trkpt lat="45.29361" lon="4.56334">
        <ele>565.87</ele>
        <time>2016-03-20T16:24:31Z</time>
      </trkpt>
      <trkpt lat="45.29367" lon="4.5633">
        <ele>565.87</ele>
        <time>2016-03-20T16:24:54Z</time>
      </trkpt>
      <trkpt lat="45.29372" lon="4.56335">
        <ele>565.39</ele>
        <time>2016-03-20T16:25:18Z</time>
      </trkpt>
      <trkpt lat="45.29367" lon="4.56358">
        <ele>565.87</ele>
        <time>2016-03-20T16:25:43Z</time>
      </trkpt>
      <trkpt lat="45.29369" lon="4.56376">
        <ele>565.39</ele>
        <time>2016-03-20T16:26:08Z</time>
      </trkpt>
      <trkpt lat="45.2938" lon="4.56396">
        <ele>564.43</ele>
        <time>2016-03-20T16:26:15Z</time>
      </trkpt>
      <trkpt lat="45.29407" lon="4.5644">
        <ele>559.14</ele>
        <time>2016-03-20T16:26:32Z</time>
      </trkpt>
      <trkpt lat="45.29408" lon="4.56461">
        <ele>551.93</ele>
        <time>2016-03-20T16:26:55Z</time>
      </trkpt>
      <trkpt lat="45.29406" lon="4.56467">
        <ele>550.49</ele>
        <time>2016-03-20T16:27:01Z</time>
      </trkpt>
      <trkpt lat="45.29422" lon="4.56492">
        <ele>555.3</ele>
        <time>2016-03-20T16:27:05Z</time>
      </trkpt>
      <trkpt lat="45.29433" lon="4.56525">
        <ele>554.82</ele>
        <time>2016-03-20T16:27:17Z</time>
      </trkpt>
      <trkpt lat="45.29446" lon="4.56555">
        <ele>554.34</ele>
        <time>2016-03-20T16:27:37Z</time>
      </trkpt>
      <trkpt lat="45.29465" lon="4.56597">
        <ele>552.41</ele>
        <time>2016-03-20T16:28:00Z</time>
      </trkpt>
      <trkpt lat="45.29455" lon="4.5665">
        <ele>549.05</ele>
        <time>2016-03-20T16:28:25Z</time>
      </trkpt>
      <trkpt lat="45.29456" lon="4.56655">
        <ele>549.05</ele>
        <time>2016-03-20T16:28:27Z</time>
      </trkpt>
      <trkpt lat="45.29465" lon="4.56701">
        <ele>544.24</ele>
        <time>2016-03-20T16:28:49Z</time>
      </trkpt>
      <trkpt lat="45.29472" lon="4.56735">
        <ele>541.36</ele>
        <time>2016-03-20T16:29:12Z</time>
      </trkpt>
      <trkpt lat="45.29472" lon="4.56735">
        <ele>539.92</ele>
        <time>2016-03-20T16:29:37Z</time>
      </trkpt>
      <trkpt lat="45.29473" lon="4.56734">
        <ele>538.96</ele>
        <time>2016-03-20T16:30:00Z</time>
      </trkpt>
      <trkpt lat="45.29474" lon="4.56735">
        <ele>538.48</ele>
        <time>2016-03-20T16:30:25Z</time>
      </trkpt>
      <trkpt lat="45.2947" lon="4.56738">
        <ele>537.99</ele>
        <time>2016-03-20T16:30:45Z</time>
      </trkpt>
      <trkpt lat="45.2947" lon="4.56737">
        <ele>537.03</ele>
        <time>2016-03-20T16:30:58Z</time>
      </trkpt>
      <trkpt lat="45.2947" lon="4.56737">
        <ele>537.03</ele>
        <time>2016-03-20T16:31:17Z</time>
      </trkpt>
      <trkpt lat="45.29472" lon="4.56737">
        <ele>536.07</ele>
        <time>2016-03-20T16:31:32Z</time>
      </trkpt>
      <trkpt lat="45.29477" lon="4.56746">
        <ele>533.67</ele>
        <time>2016-03-20T16:31:39Z</time>
      </trkpt>
      <trkpt lat="45.29476" lon="4.56754">
        <ele>532.71</ele>
        <time>2016-03-20T16:31:44Z</time>
      </trkpt>
      <trkpt lat="45.2948" lon="4.56775">
        <ele>532.23</ele>
        <time>2016-03-20T16:31:56Z</time>
      </trkpt>
      <trkpt lat="45.29487" lon="4.56797">
        <ele>530.79</ele>
        <time>2016-03-20T16:32:07Z</time>
      </trkpt>
      <trkpt lat="45.2949" lon="4.56821">
        <ele>529.82</ele>
        <time>2016-03-20T16:32:21Z</time>
      </trkpt>
      <trkpt lat="45.29491" lon="4.56824">
        <ele>529.82</ele>
        <time>2016-03-20T16:32:25Z</time>
      </trkpt>
      <trkpt lat="45.29498" lon="4.56843">
        <ele>528.86</ele>
        <time>2016-03-20T16:32:37Z</time>
      </trkpt>
      <trkpt lat="45.29499" lon="4.56855">
        <ele>528.38</ele>
        <time>2016-03-20T16:32:42Z</time>
      </trkpt>
      <trkpt lat="45.29504" lon="4.56888">
        <ele>528.38</ele>
        <time>2016-03-20T16:33:01Z</time>
      </trkpt>
      <trkpt lat="45.29511" lon="4.569">
        <ele>527.9</ele>
        <time>2016-03-20T16:33:12Z</time>
      </trkpt>
      <trkpt lat="45.2952" lon="4.56936">
        <ele>526.94</ele>
        <time>2016-03-20T16:33:38Z</time>
      </trkpt>
      <trkpt lat="45.2954" lon="4.56951">
        <ele>527.9</ele>
        <time>2016-03-20T16:34:01Z</time>
      </trkpt>
      <trkpt lat="45.29563" lon="4.56969">
        <ele>528.38</ele>
        <time>2016-03-20T16:34:17Z</time>
      </trkpt>
      <trkpt lat="45.2957" lon="4.56978">
        <ele>527.9</ele>
        <time>2016-03-20T16:34:22Z</time>
      </trkpt>
      <trkpt lat="45.29593" lon="4.57011">
        <ele>525.98</ele>
        <time>2016-03-20T16:34:46Z</time>
      </trkpt>
      <trkpt lat="45.2961" lon="4.57051">
        <ele>525.02</ele>
        <time>2016-03-20T16:35:09Z</time>
      </trkpt>
      <trkpt lat="45.2962" lon="4.57073">
        <ele>523.58</ele>
        <time>2016-03-20T16:35:23Z</time>
      </trkpt>
      <trkpt lat="45.29631" lon="4.57118">
        <ele>522.61</ele>
        <time>2016-03-20T16:35:50Z</time>
      </trkpt>
      <trkpt lat="45.29659" lon="4.57156">
        <ele>519.73</ele>
        <time>2016-03-20T16:36:14Z</time>
      </trkpt>
      <trkpt lat="45.29665" lon="4.57182">
        <ele>521.17</ele>
        <time>2016-03-20T16:36:38Z</time>
      </trkpt>
      <trkpt lat="45.29675" lon="4.57228">
        <ele>518.77</ele>
        <time>2016-03-20T16:37:02Z</time>
      </trkpt>
      <trkpt lat="45.29678" lon="4.57233">
        <ele>519.25</ele>
        <time>2016-03-20T16:37:05Z</time>
      </trkpt>
      <trkpt lat="45.29693" lon="4.57282">
        <ele>516.85</ele>
        <time>2016-03-20T16:37:32Z</time>
      </trkpt>
      <trkpt lat="45.29701" lon="4.5731">
        <ele>514.92</ele>
        <time>2016-03-20T16:37:52Z</time>
      </trkpt>
      <trkpt lat="45.2971" lon="4.57347">
        <ele>514.92</ele>
        <time>2016-03-20T16:38:14Z</time>
      </trkpt>
      <trkpt lat="45.29722" lon="4.57401">
        <ele>510.12</ele>
        <time>2016-03-20T16:38:42Z</time>
      </trkpt>
      <trkpt lat="45.2972" lon="4.57407">
        <ele>507.23</ele>
        <time>2016-03-20T16:39:02Z</time>
      </trkpt>
      <trkpt lat="45.29728" lon="4.57412">
        <ele>506.27</ele>
        <time>2016-03-20T16:39:28Z</time>
      </trkpt>
      <trkpt lat="45.29749" lon="4.57413">
        <ele>505.31</ele>
        <time>2016-03-20T16:39:52Z</time>
      </trkpt>
      <trkpt lat="45.29774" lon="4.57383">
        <ele>506.27</ele>
        <time>2016-03-20T16:40:15Z</time>
      </trkpt>
      <trkpt lat="45.29779" lon="4.5737">
        <ele>506.27</ele>
        <time>2016-03-20T16:40:32Z</time>
      </trkpt>
      <trkpt lat="45.29808" lon="4.57375">
        <ele>509.64</ele>
        <time>2016-03-20T16:40:57Z</time>
      </trkpt>
      <trkpt lat="45.29844" lon="4.57377">
        <ele>510.12</ele>
        <time>2016-03-20T16:41:27Z</time>
      </trkpt>
      <trkpt lat="45.29868" lon="4.57383">
        <ele>511.56</ele>
        <time>2016-03-20T16:41:50Z</time>
      </trkpt>
      <trkpt lat="45.29871" lon="4.57399">
        <ele>510.12</ele>
        <time>2016-03-20T16:42:01Z</time>
      </trkpt>
      <trkpt lat="45.29888" lon="4.57411">
        <ele>514.92</ele>
        <time>2016-03-20T16:42:17Z</time>
      </trkpt>
      <trkpt lat="45.29892" lon="4.57415">
        <ele>515.4</ele>
        <time>2016-03-20T16:42:33Z</time>
      </trkpt>
      <trkpt lat="45.29894" lon="4.57417">
        <ele>517.33</ele>
        <time>2016-03-20T16:42:48Z</time>
      </trkpt>
    </trkseg>
  </trk>
</gpx>